[[{"header":{"parameterUnit":"m.s-1","parameterCategory":1,"la1":31.0,"la2":29.5877,"lo1":-88.7671,"lo2":-86.6584,"dy":0.0162,"dx":0.0185,"nx":115,"ny":88,"refTime":"2023-06-22T12:00:00:Z","depth":0,"parameterNumber":2,"parameterNumberName":"U-component_of_WINDS"},"data":[0.0,0.0,0.0,0.0,0.0,0.0,0.0,0.0,0.0,0.0,0.0,0.0,0.0,0.0,0.0,0.0,0.0,0.0,0.0,0.0,0.0,0.0,0.0,0.0,0.0,0.0,0.0,0.0,0.0,0.0,0.0,0.0,0.0,0.0,0.0,0.0,0.0,0.0,0.0,0.0,0.0,0.0,0.0,0.0,0.0,0.0,0.0,0.0,0.0,0.0,0.0,0.0,0.0,0.0,0.0,0.0,0.0,0.0,0.0,0.0,0.0,0.0,0.0,0.0,0.0,0.0,0.0,0.0,0.0,0.0,0.0,0.0,0.0,0.0,0.0,0.0,0.0,0.0,0.0,0.0,0.0,0.0,0.0,0.0,0.0,0.0,0.0,0.0,0.0,0.0,0.0,0.0,0.0,0.0,0.0,0.0,0.0,0.0,0.0,0.0,0.0,0.0,0.0,0.0,0.0,0.0,0.0,0.0,0.0,0.0,0.0,0.0,0.0,0.0,0.0,0.0,0.0,0.0,0.0,0.0,0.0,0.0,0.0,0.0,0.0,0.0,0.0,0.0,0.0,0.0,0.0,0.0,0.0,0.0,0.0,0.0,0.0,0.0,0.0,0.0,0.0,0.0,0.0,0.0,0.0,0.0,0.0,0.0,0.0,0.0,0.0,0.0,0.0,0.0,0.0,0.0,0.0,0.0,0.0,0.0,0.0,0.0,0.0,0.0,0.0,0.0,0.0,0.0,0.0,0.0,0.0,0.0,0.0,0.0,0.0,0.0,0.0,0.0,0.0,0.0,0.0,0.0,0.0,0.0,0.0,0.0,0.0,0.0,0.0,0.0,0.0,0.0,0.0,0.0,0.0,0.0,0.0,0.0,0.0,0.0,0.0,0.0,0.0,0.0,0.0,0.0,0.0,0.0,0.0,0.0,0.0,0.0,0.0,0.0,0.0,0.0,0.0,0.0,0.0,0.0,0.0,0.0,0.0,0.0,0.0,0.0,0.0,0.0,0.0,0.0,0.0,0.0,0.0,0.0,0.0,0.0,0.0,0.0,0.0,0.0,0.0,0.0,0.0,0.0,0.0,0.0,0.0,0.0,0.0,0.0,0.0,0.0,0.0,0.0,0.0,0.0,0.0,0.0,0.0,0.0,0.0,0.0,0.0,0.0,0.0,0.0,0.0,0.0,0.0,0.0,0.0,0.0,0.0,0.0,0.0,0.0,0.0,0.0,0.0,0.0,0.0,0.0,0.0,0.0,0.0,0.0,0.0,0.0,0.0,0.0,0.0,0.0,0.0,0.0,0.0,0.0,0.0,0.0,0.0,0.0,0.0,0.0,0.0,0.0,0.0,0.0,0.0,0.0,0.0,0.0,0.0,0.0,0.0,0.0,0.0,0.0,0.0,0.0,0.0,0.0,0.0,0.0,0.0,0.0,0.0,0.0,0.0,0.0,0.0,0.0,0.0,0.0,0.0,0.0,0.0,0.0,0.0,0.0,0.0,0.0,0.0,0.0,0.0,0.0,0.0,0.0,0.0,0.0,0.0,0.0,0.0,0.0,0.0,0.0,0.0,0.0,0.0,0.0,0.0,0.0,0.0,0.0,0.0,0.0,0.0,0.0,0.0,0.0,0.0,0.0,0.0,0.0,0.0,0.0,0.0,0.0,0.0,0.0,0.0,0.0,0.0,0.0,0.0,0.0,0.0,0.0,0.0,0.0,0.0,0.0,0.0,0.0,0.0,0.0,0.0,0.0,0.0,0.0,0.0,0.0,0.0,0.0,0.0,0.0,0.0,0.0,0.0,0.0,0.0,0.0,0.0,0.0,0.0,0.0,0.0,0.0,0.0,0.0,0.0,0.0,0.0,0.0,0.0,0.0,0.0,0.0,0.0,0.0,0.0,0.0,0.0,0.0,0.0,0.0,0.0,0.0,0.0,0.0,0.0,0.0,0.0,0.0,0.0,0.0,0.0,0.0,0.0,0.0,0.0,0.0,0.0,0.0,0.0,0.0,0.0,0.0,0.0,0.0,0.0,0.0,0.0,0.0,0.0,0.0,0.0,0.0,0.0,0.0,0.0,0.0,0.0,0.0,0.0,0.0,0.0,0.0,0.0,0.0,0.0,0.0,0.0,0.0,0.0,0.0,0.0,0.0,0.0,0.0,0.0,0.0,0.0,0.0,0.0,0.0,0.0,0.0,0.0,0.0,0.0,0.0,0.0,0.0,0.0,0.0,0.0,0.0,0.0,0.0,0.0,0.0,0.0,0.0,0.0,0.0,0.0,0.0,0.0,0.0,0.0,0.0,0.0,0.0,0.0,0.0,0.0,0.0,0.0,0.0,0.0,0.0,0.0,0.0,0.0,0.0,0.0,0.0,0.0,0.0,0.0,0.0,0.0,0.0,0.0,0.0,0.0,0.0,0.0,0.0,0.0,0.0,0.0,0.0,0.0,0.0,0.0,0.0,0.0,0.0,0.0,0.0,0.0,0.0,0.0,0.0,0.0,0.0,0.0,0.0,0.0,0.0,0.0,0.0,0.0,0.0,0.0,0.0,0.0,0.0,0.0,0.0,0.0,0.0,0.0,0.0,0.0,0.0,0.0,0.0,0.0,0.0,0.0,0.0,0.0,0.0,0.0,0.0,0.0,0.0,0.0,0.0,0.0,0.0,0.0,0.0,0.0,0.0,0.0,0.0,0.0,0.0,0.0,0.0,0.0,0.0,0.0,0.0,0.0,0.0,0.0,0.0,0.0,0.0,0.0,0.0,0.0,0.0,0.0,0.0,0.0,0.0,0.0,0.0,0.0,0.0,0.0,0.0,0.0,0.0,0.0,0.0,0.0,0.0,0.0,0.0,0.0,0.0,0.0,0.0,0.0,0.0,0.0,0.0,0.0,0.0,0.0,0.0,0.0,0.0,0.0,0.0,0.0,0.0,0.0,0.0,0.0,0.0,0.0,0.0,0.0,0.0,0.0,0.0,0.0,0.0,0.0,0.0,0.0,0.0,0.0,0.0,0.0,0.0,0.0,0.0,0.0,0.0,0.0,0.0,0.0,0.0,0.0,0.0,0.0,0.0,0.0,0.0,0.0,0.0,0.0,0.0,0.0,0.0,0.0,0.0,0.0,0.0,0.0,0.0,0.0,0.0,0.0,0.0,0.0,0.0,0.0,0.0,0.0,0.0,0.0,0.0,0.0,0.0,0.0,0.0,0.0,0.0,0.0,0.0,0.0,0.0,0.0,0.0,0.0,0.0,0.0,0.0,0.0,0.0,0.0,0.0,0.0,0.0,0.0,0.0,0.0,0.0,0.0,0.0,0.0,0.0,0.0,0.0,0.0,0.0,0.0,0.0,0.0,0.0,0.0,0.0,0.0,0.0,0.0,0.0,0.0,0.0,0.0,0.0,0.0,0.0,0.0,0.0,0.0,0.0,0.0,0.0,0.0,0.0,0.0,0.0,0.0,0.0,0.0,0.0,0.0,0.0,0.0,0.0,0.0,0.0,0.0,0.0,0.0,0.0,0.0,0.0,0.0,0.0,0.0,0.0,0.0,0.0,0.0,0.0,0.0,0.0,0.0,0.0,0.0,0.0,0.0,0.0,0.0,0.0,0.0,0.0,0.0,0.0,0.0,0.0,0.0,0.0,0.0,0.0,0.0,0.0,0.0,0.0,0.0,0.0,0.0,0.0,0.0,0.0,0.0,0.0,0.0,0.0,0.0,0.0,0.0,0.0,0.0,0.0,0.0,0.0,0.0,0.0,0.0,0.0,0.0,0.0,0.0,0.0,0.0,0.0,0.0,0.0,0.0,0.0,0.0,0.0,0.0,0.0,0.0,0.0,0.0,0.0,0.0,0.0,0.0,0.0,0.0,0.0,0.0,0.0,0.0,0.0,0.0,0.0,0.0,0.0,0.0,0.0,0.0,0.0,0.0,0.0,0.0,0.0,0.0,0.0,0.0,0.0,0.0,0.0,0.0,0.0,0.0,0.0,0.0,0.0,0.0,0.0,0.0,0.0,0.0,0.0,0.0,0.0,0.0,0.0,0.0,0.0,0.0,0.0,0.0,0.0,0.0,0.0,0.0,0.0,0.0,0.0,0.0,0.0,0.0,0.0,0.0,0.0,0.0,0.0,0.0,0.0,0.0,0.0,0.0,0.0,0.0,0.0,0.0,0.0,0.0,0.0,0.0,0.0,0.0,0.0,0.0,0.0,0.0,0.0,0.0,0.0,0.0,0.0,0.0,0.0,0.0,0.0,0.0,0.0,0.0,0.0,0.0,0.0,0.4952,0.0,0.0,0.0,0.0,0.0,0.0,0.0,0.0,0.0,0.0,0.0,0.0,0.0,0.0,0.0,0.0,0.0,0.0,0.0,0.0,0.0,0.0,0.0,0.0,0.0,0.0,0.0,0.0,0.0,0.0,0.0,0.0,0.0,0.0,0.0,0.0,0.0,0.0,0.0,0.0,0.0,0.0,0.0,0.0,0.0,0.0,0.0,0.0,0.0,0.0,0.0,0.0,0.0,0.0,0.0,0.0,0.0,0.0,0.0,0.0,0.0,0.0,0.0,0.0,0.0,0.0,0.0,0.0,0.0,0.0,0.0,0.0,0.0,0.0,0.0,0.0,0.0,0.0,0.0,0.0,0.0,0.0,0.0,0.0,0.0,0.0,0.0,0.0,0.0,0.0,0.0,0.0,0.0,0.0,0.0,0.0,0.0,0.0,0.0,0.0,0.0,0.0,0.0,0.0,0.0,0.0,0.0,0.0,0.0,0.0,0.4613,0.34,0.3051,0.3003,0.3297,0.0,0.0,0.0,0.0,0.0,0.0,0.0,0.0,0.0,0.0,0.0,0.0,0.0,0.0,0.0,0.0,0.0,0.0,0.0,0.0,0.0,0.0,0.0,0.0,0.0,0.0,0.0,0.0,0.0,0.0,0.0,0.0,0.0,0.0,0.0,0.0,0.0,0.0,0.0,0.0,0.0,0.0,0.0,0.0,0.0,0.0,0.0,0.0,0.0,0.0,0.0,0.0,0.0,0.0,0.0,0.0,0.0,0.0,0.0,0.0,0.0,0.0,0.0,0.0,0.0,0.0,0.0,0.0,0.0,0.0,0.0,0.0,0.0,0.0,0.0,0.0,0.0,0.0,0.0,0.0,0.0,0.0,0.0,0.0,0.0,0.0,0.0,0.0,0.0,0.0,0.0,0.0,0.0,0.0,0.0,0.0,0.0,0.0,0.0,0.0,0.0,0.0,0.0,0.0,0.0,0.0,0.0,0.0,0.0,0.0,0.0,0.0,0.0809,0.0987,0.17,0.0,0.0,0.0,0.0,0.0,0.0,0.0,0.0,0.0,0.0,0.0,0.0,0.0,0.0,0.0,0.0,0.0,0.0,0.0,0.0,0.0,0.0,0.0,0.0,0.0,0.0,0.0,0.0,0.0,0.0,0.0,0.0,0.0,0.0,0.0,0.0,0.0,0.0,0.0,0.0,0.0,0.0,0.0,0.0,0.0,0.0,0.0,0.0,0.0,0.0,0.0,0.0,0.0,0.0,0.0,0.0,0.0,0.0,0.0,0.0,0.0,0.0,0.0,0.0,0.0,0.0,0.0,0.0,0.0,0.0,0.0,0.0,0.0,0.0,0.0,0.0,0.0,0.0,0.0,0.0,0.0,0.0,0.0,0.0,0.0,0.0,0.0,0.0,0.0,0.0,0.0,0.0,0.0,0.0,0.0,0.0,0.0,0.0,0.0,0.0,0.0,0.0,0.0,0.0,0.0,0.0,0.0,0.0,0.0,0.0,0.0227,-0.1753,-0.1175,0.0,0.0642,0.0,0.0,0.0,0.0,0.0,0.0,0.0,0.0,0.0,0.0,0.0,0.0,0.0,0.0,0.0,0.0,0.0,0.0,0.0,0.0,0.0,0.0,0.0,0.0,0.0,0.0,0.0,0.0,0.0,0.0,0.0,0.0,0.0,0.0,0.0,0.0,0.0,0.0,0.0,0.0,0.0,0.0,0.0,0.0,0.0,0.0,0.0,0.0,0.0,0.0,0.0,0.0,0.0,0.0,0.0,0.0,0.0,0.0,0.0,0.0,0.0,0.0,0.0,0.0,0.0,0.0,0.0,0.0,0.0,0.0,0.0,0.0,0.0,0.0,0.0,0.0,0.0,0.0,0.0,0.0,0.0,0.0,0.0,0.0,0.0,0.0,0.0,0.0,0.0,0.0,0.0,0.0,0.0,0.0,0.0,0.0,0.0,0.0,0.0,0.0,0.0,0.0,0.0,0.0,0.0,0.0,0.0,0.0,0.0,0.0,-0.1586,-0.3346,-0.2346,-0.1626,0.0,0.0,0.0,0.0,0.0,0.0,0.0,0.0,0.0,0.0,0.0,0.0,0.0,0.0,0.0,0.0,0.0,0.0,0.0,0.0,0.0,0.0,0.0,0.0,0.0,0.0,0.0,0.0,0.0,0.0,0.0,0.0,0.0,0.0,0.0,0.0,0.0,0.0,0.0,0.0,0.0,0.0,0.0,0.0,0.0,0.0,0.0,0.0,0.0,0.0,0.0,0.0,0.0,0.0,0.0,0.0,0.0,0.0,0.0,0.0,0.0,0.0,0.0,0.0,0.0,0.0,0.0,0.0,0.0,0.0,0.0,0.0,0.0,0.0,0.0,0.0,0.0,0.0,0.0,0.0,0.0,0.0,0.0,0.0,0.0,0.0,0.0,0.0,0.0,0.0,0.0,0.0,0.0,0.0,0.0,0.0,0.0,0.0,0.0,0.0,0.0,0.0,0.0,0.0,0.0,0.0,0.0,0.0,0.0,0.0,-0.2375,-0.3261,-0.4484,-0.3828,-0.3088,-0.2548,0.0,0.0,0.0,0.0,0.0,0.0,0.0,0.0,0.0,0.0,0.0,0.0,0.0,0.0,0.0,0.0,0.0,0.0,0.0,0.0,0.0,0.0,0.0,0.0,0.0,0.0,0.0,0.0,0.0,0.0,0.0,0.0,0.0,0.0,0.0,0.0,0.0,0.0,0.0,0.0,0.0,0.0,0.0,0.0,0.0,0.0,0.0,0.0,0.0,0.0,0.0,0.0,0.0,0.0,0.0,0.0,0.0,0.0,0.0,0.0,0.0,0.0,0.0,0.0,0.0,0.0,0.0,0.0,0.0,0.0,0.0,0.0,0.0,0.0,0.0,0.0,0.0,0.0,0.0,0.0,0.0,0.0,0.0,0.0,0.0,0.0,0.0,0.0,0.0,0.0,0.0,0.0,0.0,0.0,0.0,0.0,0.0,0.0,0.0,0.0,0.0,0.0,0.0,0.0,0.0,0.0,0.0,0.0,-0.3188,-0.4106,-0.4926,-0.5589,-0.5642,-0.4997,0.0,0.0,0.0,0.0,0.0,0.0,0.0,0.0,0.0,0.0,0.0,0.0,0.0,0.0,0.0,0.0,0.0,0.0,0.0,0.0,0.0,0.0,0.0,0.0,0.0,0.0,0.0,0.0,0.0,0.0,0.0,0.0,0.0,0.0,0.0,0.0,0.0,0.0,0.0,0.0,0.0,0.0,0.0,0.0,0.0,0.0,0.0,0.0,0.0,0.0,0.0,0.0,0.0,0.0,0.0,0.0,0.0,0.0,0.0,0.0,0.0,0.0,0.0,0.0,0.0,0.0,0.0,0.0,0.0,0.0,0.0,0.0,0.0,0.0,0.0,0.0,0.0,0.0,0.0,0.0,0.0,0.0,0.0,0.0,0.0,0.0,0.0,0.0,0.0,0.0,0.0,0.0,0.0,0.0,0.0,0.0,0.0,0.0,0.0,0.0,0.0,0.0,0.0,0.0,0.0,0.0,0.0,0.0,0.0,-0.4546,-0.6884,-0.8165,-0.8193,-0.7535,-0.646,0.0,0.0,0.0,0.0,0.0,0.0,0.0,0.0,0.0,0.0,0.0,0.0,0.0,0.0,0.0,0.0,0.0,0.0,0.0,0.0,0.0,0.0,0.0,0.0,0.0,0.0,0.0,0.0,0.0,0.0,0.0,0.0,0.0,0.0,0.0,0.0,0.0,0.0,0.0,0.0,0.0,0.0,0.0,0.0,0.0,0.0,0.0,0.0,0.0,0.0,0.0,0.0,0.0,0.0,0.0,0.0,0.0,0.0,0.0,0.0,0.0,0.0,0.0,0.0,0.0,0.0,0.0,0.0,0.0,0.0,0.0,0.0,0.0,0.0,0.0,0.0,0.0,0.0,0.0,0.0,0.0,0.0,0.0,0.0,0.0,0.0,0.0,0.0,0.0,0.0,0.0,0.0,0.0,0.0,0.0,0.0,0.0,0.0,0.0,0.0,0.0,0.0,0.0,0.0,0.0,0.0,0.0,0.0,0.0,-0.7186,0.0,-1.1211,-1.0478,-0.9207,-0.7712,0.0,0.0,0.0,0.0,0.0,0.0,0.0,0.0,0.0,0.0,0.0,0.0,0.0,0.0,0.0,0.0,0.0,0.0,0.0,0.0,0.0,0.0,0.0,0.0,0.0,0.0,0.0,0.0,0.0,0.0,0.0,0.0,0.0,0.0,0.0,0.0,0.0,0.0,0.0,0.0,0.0,0.0,0.0,0.0,0.0,0.0,0.0,0.0,0.0,0.0,0.0,0.0,0.0,0.0,0.0,0.0,0.0,0.0,0.0,0.0,0.0,0.0,0.0,0.0,0.0,0.0,0.0,0.0,0.0,0.0,0.0,0.0,0.0,0.0,0.0,0.0,0.0,0.0,0.0,0.0,0.0,0.0,0.0,0.0,0.0,0.0,0.0,0.0,0.0,0.0,0.0,0.0,0.0,0.0,0.0,0.0,0.0,0.0,0.0,0.0,0.0,0.0,0.0,0.0,0.0,0.0,0.0,0.0,-0.539,-1.1104,-1.3355,-1.3753,-1.2277,-1.0645,-0.8822,0.0,0.0,0.0,0.0,0.0,0.0,0.0,0.0,0.0,0.0,0.0,0.0,0.0,0.0,0.0,0.0,0.0,0.0,0.0,0.0,0.0,0.0,0.0,0.0,0.0,0.0,0.0,0.0,0.0,0.0,0.0,0.0,0.0,0.0,0.0,0.0,0.0,0.0,0.0,0.0,0.0,0.0,0.0,0.0,0.0,0.0,0.0,0.0,0.0,0.0,0.0,0.0,0.0,0.0,0.0,0.0,0.0,0.0,0.0,0.0,0.0,0.0,0.0,0.0,0.0,0.0,0.0,0.0,0.0,0.0,0.0,0.0,0.0,0.0,0.0,0.0,0.0,0.0,0.0,0.0,0.0,0.0,0.0,0.0,0.0,0.0,0.0,0.0,0.0,0.0,0.0,0.0,0.0,0.0,0.0,0.0,0.0,0.0,0.0,0.0,0.0,0.0,0.0,0.0,0.0,0.0,0.0,0.0,0.0,-1.4812,-1.5404,-1.5518,-1.5163,-1.1858,-0.9598,0.0,0.0,0.0,0.0,0.0,0.0,0.0,0.0,0.0,0.0,0.0,0.0,0.0,0.0,0.0,0.0,0.0,0.0,0.0,0.0,0.0,0.0,0.0,0.0,0.0,0.0,0.0,0.0,0.0,0.0,0.0,0.0,0.0,0.0,0.0,0.0,0.0,0.0,0.0,0.0,0.0,0.0,0.0,0.0,0.0,0.0,0.0,0.0,0.0,0.0,0.0,0.0,0.0,0.0,0.0,0.0,0.0,0.0,0.0,0.0,0.0,0.0,0.0,0.0,0.0,0.0,0.0,0.0,0.0,0.0,0.0,0.0,0.0,0.0,0.0,0.0,0.0,0.0,0.0,0.0,0.0,0.0,0.0,0.0,0.0,0.0,0.0,0.0,0.0,0.0,0.0,0.0,0.0,0.0,0.0,0.0,0.0,0.0,0.0,0.0,0.0,0.0,0.0,0.0,0.0,0.0,0.0,0.0,0.0,-1.7687,-1.7083,-1.6516,-1.6204,-1.2807,-1.0391,-0.9025,0.0,0.0,0.0,0.0,0.0,0.0,0.0,0.0,0.0,0.0,0.0,0.0,0.0,0.0,0.0,0.0,0.0,0.0,0.0,0.0,0.0,0.0,0.0,0.0,0.0,0.0,0.0,0.0,0.0,0.0,0.0,0.0,0.0,0.0,0.0,0.0,0.0,0.0,0.0,0.0,0.0,0.0,0.0,0.0,0.0,0.0,0.0,0.0,0.0,0.0,0.0,0.0,0.0,0.0,0.0,0.0,0.0,0.0,0.0,0.0,0.0,0.0,0.0,0.0,0.0,0.0,0.0,0.0,0.0,0.0,0.0,0.0,0.0,0.0,0.0,0.0,0.0,0.0,0.0,0.0,0.0,0.0,0.0,0.0,0.0,0.0,0.0,0.0,0.0,0.0,0.0,0.0,0.0,0.0,0.0,0.0,0.0,0.0,0.0,0.0,0.0,0.0,0.0,0.0,0.0,0.0,0.0,0.0,-1.9734,-1.8407,-1.701,-1.5581,-1.3338,-1.1099,0.0,0.0,0.0,0.0,0.0,0.0,0.0,0.0,0.0,0.0,0.0,0.0,0.0,0.0,0.0,0.0,0.0,0.0,0.0,0.0,0.0,0.0,0.0,0.0,0.0,0.0,0.0,0.0,0.0,0.0,0.0,0.0,0.0,0.0,0.0,0.0,0.0,0.0,0.0,0.0,0.0,0.0,0.0,0.0,0.0,0.0,0.0,0.0,0.0,0.0,0.0,0.0,0.0,0.0,0.0,0.0,0.0,0.0,0.0,0.0,0.0,0.0,0.0,0.0,0.0,0.0,0.0,0.0,0.0,0.0,0.0,0.0,0.0,0.0,0.0,0.0,0.0,0.0,0.0,0.0,0.0,0.0,0.0,0.0,0.0,0.0,0.0,0.0,0.0,0.0,0.0,0.0,0.0,0.0,0.0,0.0,0.0,0.0,0.0,0.0,0.0,0.0,0.0,0.0,0.0,0.0,0.0,0.0,0.0,-1.9231,-1.8316,-1.719,-1.5902,-1.2741,-1.0624,0.0,0.0,0.0,0.0,0.0,0.0,0.0,0.0,0.0,0.0,0.0,0.0,0.0,0.0,0.0,0.0,0.0,0.0,0.0,0.0,0.0,0.0,0.0,0.0,0.0,0.0,0.0,0.0,0.0,0.0,0.0,0.0,0.0,0.0,0.0,0.0,0.0,0.0,0.0,0.0,0.0,0.0,0.0,0.0,0.0,0.0,0.0,0.0,0.0,0.0,0.0,0.0,0.0,0.0,0.0,0.0,0.0,0.0,0.0,0.0,0.0,0.0,0.0,0.0,0.0,0.0,0.0,0.0,0.0,0.0,0.0,0.0,0.0,0.0,0.0,0.0,0.0,0.0,0.0,0.0,0.0,0.0,0.0,0.0,0.0,0.0,0.0,0.0,0.0,0.0,0.0,0.0,0.0,0.0,0.0,0.0,0.0,0.0,0.0,0.0,0.0,0.0,0.0,0.0,0.0,0.0,0.0,0.0,-1.9168,-1.7866,-1.7245,-1.6074,-1.437,-1.2291,-1.0714,0.0,0.0,0.0,0.0,0.0,0.0,0.0,0.0,0.0,0.0,0.0,0.0,0.0,0.0,0.0,0.0,0.0,0.0,0.0,0.0,0.0,0.0,0.0,0.0,0.0,0.0,0.0,0.0,0.0,0.0,0.0,0.0,0.0,0.0,0.0,0.0,0.0,0.0,0.0,0.0,0.0,0.0,0.0,0.0,0.0,0.0,0.0,0.0,0.0,0.0,0.0,0.0,0.0,0.0,0.0,0.0,0.0,0.0,0.0,0.0,0.0,0.0,0.0,0.0,0.0,0.0,0.0,0.0,0.0,0.0,0.0,0.0,0.0,0.0,0.0,0.0,0.0,0.0,0.0,0.0,0.0,0.0,0.0,0.0,0.0,0.0,0.0,0.0,0.0,0.0,0.0,0.0,0.0,0.0,0.0,0.0,0.0,0.0,0.0,0.0,0.0,0.0,0.0,0.0,0.0,0.0,0.0,0.0,-1.8987,-1.6027,-1.5645,-1.4301,-1.1863,-1.1799,-1.0985,0.0,0.0,0.0,0.0,0.0,0.0,0.0,0.0,0.0,0.0,0.0,0.0,0.0,0.0,0.0,0.0,0.0,0.0,0.0,0.0,0.0,0.0,0.0,0.0,0.0,0.0,0.0,0.0,0.0,0.0,0.0,0.0,0.0,0.0,0.0,0.0,0.0,0.0,0.0,0.0,0.0,0.0,0.0,0.0,0.0,0.0,0.0,0.0,0.0,0.0,0.0,0.0,0.0,0.0,0.0,0.0,0.0,0.0,0.0,0.0,0.0,0.0,0.0,0.0,0.0,0.0,0.0,0.0,0.0,0.0,0.0,0.0,0.0,0.0,0.0,0.0,0.0,0.0,0.0,0.0,0.0,0.0,0.0,0.0,0.0,0.0,0.0,0.0,0.0,0.0,0.0,0.0,0.0,0.0,0.0,0.0,0.0,0.0,0.0,0.0,0.0,0.0,0.0,0.0,0.0,0.0,0.0,0.0,-1.7641,-1.5235,-1.4307,-1.2942,-1.0948,-1.0221,-0.9693,0.0,0.0,0.0,0.0,0.0,0.0,0.0,0.0,0.0,0.0,0.0,0.0,0.0,0.0,0.0,0.0,0.0,0.0,0.0,0.0,0.0,0.0,0.0,0.0,0.0,0.0,0.0,0.0,0.0,0.0,0.0,0.0,0.0,0.0,0.0,0.0,0.0,0.0,0.0,0.0,0.0,0.0,0.0,0.0,0.0,0.0,0.0,0.0,-1.8869,0.0,0.0,0.0,0.0,0.0,0.0,0.0,0.0,0.0,0.0,0.0,0.0,0.0,0.0,0.0,0.0,0.0,0.0,0.0,0.0,0.0,0.0,0.0,0.0,0.0,0.0,0.0,0.0,0.0,0.0,0.0,0.0,0.0,0.0,0.0,0.0,0.0,0.0,0.0,0.0,0.0,0.0,0.0,0.0,0.0,0.0,0.0,0.0,0.0,0.0,0.0,0.0,0.0,0.0,0.0,0.0,0.0,0.0,0.0,-1.5563,-1.3728,-1.2278,-1.1169,-1.0322,-0.9247,-0.8675,0.0,0.0,0.0,0.0,0.0,0.0,0.0,0.0,0.0,0.0,0.0,0.0,0.0,0.0,0.0,0.0,0.0,0.0,0.0,0.0,0.0,0.0,0.0,0.0,0.0,0.0,0.0,0.0,0.0,0.0,0.0,0.0,0.0,0.0,0.0,0.0,0.0,0.0,0.0,0.0,0.0,0.0,0.0,0.0,0.0,0.0,0.0,0.0,0.0,0.0,0.0,0.0,0.0,0.0,0.0,0.0,0.0,0.0,0.0,0.0,0.0,0.0,0.0,0.0,0.0,0.0,0.0,0.0,0.0,0.0,0.0,0.0,0.0,0.0,0.0,0.0,0.0,0.0,0.0,0.0,0.0,0.0,0.0,0.0,0.0,0.0,0.0,0.0,0.0,0.0,0.0,0.0,0.0,0.0,0.0,0.0,0.0,0.0,0.0,0.0,0.0,0.0,0.0,0.0,0.0,0.0,0.0,-1.3963,-1.3163,-1.1911,-1.0204,-0.9451,-0.9771,-0.855,-0.7971,-0.8082,0.0,0.0,0.0,0.0,0.0,0.0,0.0,0.0,0.0,0.0,0.0,0.0,0.0,0.0,0.0,0.0,0.0,0.0,0.0,0.0,0.0,0.0,0.0,0.0,0.0,0.0,0.0,0.0,0.0,0.0,0.0,0.0,0.0,0.0,0.0,0.0,0.0,0.0,-1.5575,-1.8682,0.0,0.0,0.0,0.0,0.0,0.0,0.0,0.0,-2.0195,0.0,0.0,0.0,0.0,0.0,0.0,0.0,0.0,0.0,0.0,0.0,0.0,0.0,0.0,0.0,0.0,0.0,0.0,0.0,0.0,0.0,0.0,0.0,0.0,0.0,0.0,0.0,0.0,0.0,0.0,0.0,0.0,0.0,0.0,0.0,0.0,0.0,0.0,0.0,0.0,0.0,0.0,0.0,0.0,0.0,0.0,0.0,0.0,0.0,0.0,0.0,0.0,0.0,0.0,0.0,0.0,-1.3559,-1.1685,-1.0575,-1.0277,-0.8897,-0.8377,-0.8774,-0.8029,-0.7711,-0.7982,0.0,0.0,0.0,0.0,0.0,0.0,0.0,0.0,0.0,0.0,0.0,0.0,0.0,0.0,0.0,0.0,0.0,0.0,0.0,0.0,0.0,0.0,0.0,0.0,0.0,0.0,0.0,0.0,0.0,0.0,0.0,0.0,0.0,0.0,0.0,0.0,0.0,0.0,0.0,-2.0117,-2.1435,0.0,0.0,0.0,0.0,0.0,0.0,0.0,0.0,-2.1086,0.0,0.0,0.0,0.0,0.0,0.0,0.0,0.0,0.0,0.0,0.0,0.0,0.0,0.0,0.0,0.0,0.0,0.0,0.0,0.0,0.0,0.0,0.0,0.0,0.0,0.0,0.0,0.0,0.0,0.0,0.0,0.0,0.0,0.0,0.0,0.0,0.0,0.0,0.0,0.0,0.0,0.0,0.0,0.0,0.0,0.0,0.0,0.0,0.0,0.0,0.0,0.0,0.0,0.0,0.0,-1.044,-0.9509,-0.8634,-0.7838,-0.7274,-0.7537,-0.855,-0.7863,-0.7608,0.0,0.0,0.0,0.0,0.0,0.0,0.0,0.0,0.0,0.0,0.0,0.0,0.0,0.0,0.0,0.0,0.0,0.0,0.0,0.0,0.0,0.0,0.0,0.0,0.0,0.0,0.0,0.0,0.0,0.0,0.0,0.0,0.0,0.0,0.0,0.0,0.0,0.0,0.0,0.0,-2.1993,-2.3321,-2.2805,0.0,0.0,0.0,0.0,0.0,0.0,-2.1835,-2.1786,0.0,0.0,0.0,0.0,0.0,0.0,0.0,0.0,0.0,0.0,0.0,0.0,0.0,0.0,0.0,0.0,0.0,0.0,0.0,0.0,0.0,0.0,0.0,0.0,0.0,0.0,0.0,0.0,0.0,0.0,0.0,0.0,0.0,0.0,0.0,0.0,0.0,0.0,0.0,0.0,0.0,0.0,0.0,0.0,0.0,0.0,0.0,0.0,0.0,0.0,0.0,0.0,0.0,0.0,0.0,-0.7225,-0.7057,-0.6324,-0.5135,-0.5677,-0.6728,-0.8188,-0.7521,-0.738,0.0,0.0,0.0,0.0,0.0,0.0,0.0,0.0,0.0,0.0,0.0,0.0,0.0,0.0,0.0,0.0,0.0,0.0,0.0,0.0,0.0,0.0,0.0,0.0,0.0,0.0,0.0,0.0,0.0,0.0,0.0,0.0,0.0,0.0,0.0,0.0,0.0,0.0,0.0,0.0,0.0,-2.4957,-2.3793,-2.4343,0.0,0.0,0.0,0.0,-2.2127,-2.2292,0.0,0.0,0.0,0.0,0.0,0.0,0.0,0.0,0.0,0.0,0.0,0.0,0.0,0.0,0.0,0.0,0.0,0.0,0.0,0.0,0.0,0.0,0.0,0.0,0.0,0.0,0.0,0.0,0.0,0.0,0.0,0.0,0.0,0.0,0.0,0.0,0.0,0.0,0.0,0.0,0.0,0.0,0.0,0.0,0.0,0.0,0.0,0.0,0.0,0.0,0.0,0.0,0.0,0.0,0.0,0.0,-0.5081,-0.3746,-0.2765,-0.224,-0.4237,-0.5951,-0.7057,-0.6487,-0.6634,0.0,0.0,0.0,0.0,0.0,0.0,0.0,0.0,0.0,0.0,0.0,0.0,0.0,0.0,0.0,0.0,0.0,0.0,0.0,0.0,0.0,0.0,0.0,0.0,0.0,0.0,0.0,0.0,0.0,0.0,0.0,0.0,0.0,0.0,0.0,0.0,0.0,0.0,0.0,0.0,0.0,-2.5285,-2.547,-2.5304,-2.4636,0.0,0.0,-2.2701,-2.3877,-2.3283,0.0,0.0,0.0,0.0,0.0,0.0,0.0,0.0,0.0,0.0,0.0,0.0,0.0,0.0,0.0,0.0,0.0,0.0,0.0,0.0,0.0,0.0,0.0,0.0,0.0,0.0,0.0,0.0,0.0,0.0,0.0,0.0,0.0,0.0,0.0,0.0,0.0,0.0,0.0,0.0,0.0,0.0,0.0,0.0,0.0,0.0,0.0,0.0,0.0,0.0,0.0,0.0,0.0,0.0,0.0,-0.3856,-0.3261,-0.2179,-0.1278,-0.0567,-0.3049,-0.4962,-0.6117,-0.5912,-0.6323,0.0,0.0,0.0,0.0,0.0,0.0,0.0,0.0,0.0,0.0,0.0,0.0,0.0,0.0,0.0,0.0,0.0,0.0,0.0,0.0,0.0,0.0,0.0,0.0,0.0,0.0,0.0,0.0,0.0,0.0,0.0,0.0,0.0,0.0,0.0,0.0,0.0,0.0,0.0,0.0,0.0,0.0,-2.557,-2.5559,0.0,0.0,0.0,-2.2962,-2.3283,0.0,0.0,0.0,0.0,0.0,0.0,0.0,0.0,0.0,0.0,0.0,0.0,0.0,0.0,0.0,0.0,0.0,0.0,0.0,0.0,0.0,0.0,0.0,0.0,0.0,0.0,0.0,0.0,0.0,0.0,0.0,0.0,0.0,0.0,0.0,0.0,0.0,0.0,0.0,0.0,0.0,0.0,0.0,0.0,0.0,0.0,0.0,0.0,0.0,0.0,0.0,0.0,0.0,0.0,0.0,0.0,0.0,-0.1956,-0.0504,0.0291,0.0438,-0.2039,-0.4037,-0.5321,-0.5217,0.0,0.0,0.0,0.0,0.0,0.0,0.0,0.0,0.0,0.0,0.0,0.0,0.0,0.0,0.0,0.0,0.0,0.0,0.0,0.0,0.0,0.0,0.0,0.0,0.0,0.0,0.0,-1.3373,0.0,0.0,0.0,0.0,0.0,0.0,0.0,0.0,0.0,0.0,0.0,0.0,0.0,0.0,-2.5838,-2.5501,-2.567,-2.5155,0.0,0.0,-2.2979,-2.2694,-2.2374,-2.2108,0.0,0.0,0.0,0.0,0.0,0.0,0.0,0.0,0.0,0.0,0.0,0.0,0.0,0.0,0.0,0.0,0.0,0.0,0.0,0.0,0.0,0.0,0.0,0.0,0.0,0.0,0.0,0.0,0.0,0.0,0.0,0.0,0.0,0.0,0.0,0.0,0.0,0.0,0.0,0.0,0.0,0.0,0.0,0.0,0.0,0.0,0.0,0.0,0.0,0.0,0.0,0.0,0.0,0.0,-0.0423,-0.1406,0.1949,0.277,0.0788,-0.1287,-0.3103,-0.461,-0.4102,-0.4604,0.0,0.0,0.0,0.0,0.0,0.0,0.0,0.0,0.0,0.0,0.0,0.0,0.0,0.0,0.0,0.0,0.0,0.0,0.0,0.0,0.0,0.0,0.0,0.0,0.0,0.0,0.0,0.0,0.0,0.0,0.0,0.0,0.0,0.0,0.0,0.0,0.0,0.0,0.0,0.0,0.0,-2.6066,-2.5726,-2.5639,-2.5217,0.0,-2.3157,-2.2663,-2.3024,-2.2249,-2.1568,-2.1291,0.0,0.0,0.0,0.0,0.0,0.0,0.0,0.0,0.0,0.0,0.0,0.0,0.0,0.0,0.0,0.0,0.0,0.0,0.0,0.0,0.0,0.0,0.0,0.0,0.0,0.0,0.0,0.0,0.0,0.0,0.0,0.0,0.0,0.0,0.0,0.0,0.0,0.0,0.0,0.0,0.0,0.0,0.0,0.0,0.0,0.0,0.0,0.0,0.0,0.0,0.0,0.0,0.0,-0.0,-0.103,0.289,0.39,0.1713,-0.0303,-0.2068,-0.3716,-0.3616,-0.4449,0.0,0.0,0.0,0.0,0.0,0.0,0.0,0.0,0.0,0.0,0.0,0.0,0.0,0.0,0.0,0.0,0.0,0.0,0.0,0.0,0.0,0.0,0.0,0.0,0.0,0.0,0.0,0.0,-1.6789,-1.6606,-1.6446,0.0,0.0,0.0,0.0,0.0,0.0,0.0,0.0,0.0,0.0,-2.547,-2.5406,-2.5116,0.0,0.0,-2.3246,-2.2694,-2.2512,-2.1913,-2.1429,-2.1195,-2.0781,0.0,0.0,0.0,0.0,0.0,0.0,0.0,0.0,0.0,0.0,0.0,0.0,0.0,0.0,0.0,0.0,0.0,0.0,0.0,0.0,0.0,0.0,0.0,0.0,0.0,0.0,0.0,0.0,0.0,0.0,0.0,0.0,0.0,0.0,0.0,0.0,0.0,0.0,0.0,0.0,0.0,0.0,0.0,0.0,0.0,0.0,0.0,0.0,0.0,0.0,0.0,0.0,-0.0845,-0.1962,0.2507,0.3724,0.1538,0.0182,-0.1363,-0.304,-0.3198,-0.4088,0.0,0.0,0.0,0.0,0.0,0.0,0.0,0.0,0.0,0.0,0.0,0.0,0.0,0.0,0.0,0.0,0.0,0.0,0.0,0.0,0.0,0.0,0.0,0.0,0.0,0.0,0.0,0.0,-1.7784,-1.7246,-1.6477,0.0,0.0,0.0,0.0,0.0,0.0,0.0,0.0,0.0,0.0,-2.5376,-2.4974,-2.4755,-2.4522,-2.4083,-2.3522,-2.3036,-2.2642,-2.2155,-2.1612,-2.1144,0.0,0.0,0.0,0.0,0.0,0.0,0.0,0.0,0.0,0.0,0.0,0.0,0.0,0.0,0.0,0.0,0.0,0.0,0.0,0.0,0.0,0.0,0.0,0.0,0.0,0.0,0.0,-1.3202,0.0,0.0,-1.0889,0.0,0.0,0.0,0.0,0.0,0.0,0.0,0.0,0.0,0.0,0.0,0.0,0.0,0.0,0.0,0.0,0.0,0.0,0.0,0.0,0.0,0.0,-0.2993,-0.4326,0.0637,0.217,0.0061,-0.0123,-0.1045,-0.2899,-0.2722,-0.3355,-0.5222,0.0,0.0,0.0,0.0,0.0,0.0,0.0,0.0,0.0,0.0,0.0,0.0,0.0,0.0,0.0,0.0,0.0,0.0,0.0,0.0,0.0,0.0,0.0,0.0,0.0,0.0,-1.9864,-1.8746,-1.7444,0.0,0.0,0.0,0.0,0.0,0.0,0.0,0.0,0.0,-2.4982,-2.583,-2.6022,-2.4575,-2.4887,-2.5055,-2.4657,-2.41,-2.3752,-2.3752,-2.3096,-2.2278,0.0,0.0,0.0,0.0,0.0,0.0,0.0,0.0,0.0,0.0,0.0,0.0,0.0,0.0,0.0,0.0,0.0,0.0,0.0,0.0,0.0,0.0,0.0,0.0,0.0,0.0,0.0,-1.6394,-1.5336,0.0,0.0,0.0,0.0,0.0,0.0,0.0,0.0,0.0,0.0,0.0,-1.7115,-1.5687,0.0,0.0,0.0,0.0,0.0,0.0,0.0,0.0,0.0,0.0,0.0,0.0,-0.4986,-0.5835,-0.0903,0.092,-0.0735,-0.0723,-0.1325,-0.2766,-0.2985,-0.3931,-0.5631,0.0,0.0,0.0,0.0,0.0,0.0,0.0,0.0,0.0,0.0,0.0,0.0,0.0,0.0,0.0,0.0,0.0,0.0,0.0,0.0,0.0,0.0,0.0,0.0,0.0,-1.9699,0.0,0.0,0.0,0.0,0.0,0.0,0.0,0.0,0.0,0.0,0.0,-2.5778,-2.5589,-2.568,-2.555,-2.5053,-2.4581,-2.4381,0.0,0.0,0.0,0.0,0.0,0.0,0.0,0.0,0.0,0.0,0.0,0.0,0.0,0.0,-2.6476,-2.5569,-2.4908,-2.4607,-2.4782,0.0,0.0,0.0,0.0,0.0,0.0,0.0,0.0,0.0,0.0,0.0,0.0,0.0,0.0,-1.8117,0.0,-1.5877,0.0,0.0,0.0,0.0,0.0,0.0,0.0,0.0,-1.9092,-1.8605,-1.7954,-1.6136,-1.4985,0.0,-1.322,-1.2091,0.0,0.0,0.0,0.0,0.0,0.0,0.0,0.0,-0.7529,-0.749,-0.3008,-0.0858,-0.1346,-0.1014,-0.1415,-0.2623,-0.3433,-0.4545,-0.5878,-0.6521,-0.7453,0.0,0.0,0.0,0.0,0.0,0.0,0.0,0.0,0.0,0.0,0.0,0.0,0.0,0.0,0.0,0.0,0.0,0.0,0.0,0.0,0.0,0.0,0.0,-2.0845,0.0,0.0,0.0,0.0,0.0,0.0,0.0,0.0,0.0,-2.3999,-2.5129,-2.5843,-2.5722,-2.5507,-2.5228,-2.4866,0.0,0.0,0.0,0.0,0.0,0.0,0.0,-2.3498,-2.404,-2.4316,-2.4598,-2.4981,-2.5419,-2.5824,-2.6133,0.0,0.0,-2.6371,-2.5937,-2.5787,-2.604,-2.6458,-2.6471,-2.569,-2.602,-2.6052,0.0,0.0,0.0,0.0,0.0,0.0,0.0,0.0,-1.9839,-1.8995,0.0,-1.6301,0.0,0.0,0.0,0.0,-1.7014,-2.0096,0.0,0.0,-1.927,-1.863,-1.7033,-1.5094,-1.4092,-1.3856,-1.258,-1.196,-1.1799,-1.1569,0.0,0.0,0.0,0.0,0.0,0.0,-1.054,-0.9086,-0.5649,-0.3249,-0.1967,-0.1193,-0.1386,-0.2591,-0.405,-0.5169,-0.5855,-0.6605,-0.7494,-0.86,-0.9506,0.0,0.0,0.0,0.0,0.0,0.0,0.0,0.0,0.0,0.0,0.0,0.0,0.0,0.0,0.0,0.0,0.0,0.0,0.0,0.0,-2.167,0.0,0.0,0.0,0.0,0.0,0.0,0.0,0.0,0.0,0.0,-2.5319,-2.5674,-2.5706,-2.5418,0.0,0.0,0.0,0.0,-2.5578,-2.5576,-2.5909,-2.6081,-2.6086,-2.5756,-2.5197,-2.4255,0.0,0.0,-2.5711,-2.6076,-2.6208,-2.5682,-2.6402,-2.7523,-2.8425,-2.7701,-2.7376,-2.8027,-2.7397,-2.6974,-2.6863,-2.6263,-2.5706,-1.8142,0.0,0.0,0.0,0.0,-2.0598,-2.0657,-2.0681,-2.055,-1.9854,-1.8755,-1.7438,0.0,0.0,0.0,0.0,0.0,0.0,-2.0009,-1.9806,-1.918,-1.7771,-1.5797,-1.4243,-1.2829,-1.1624,-1.1171,-1.0946,-1.0891,-1.1308,-1.1849,-1.2512,0.0,0.0,0.0,0.0,-1.2062,-1.1533,-0.7758,-0.5296,-0.4397,-0.3058,-0.2967,-0.4107,-0.4883,-0.5497,-0.5914,-0.6431,-0.7045,-0.7747,-0.8817,0.0,0.0,0.0,0.0,0.0,0.0,0.0,0.0,0.0,0.0,0.0,0.0,0.0,0.0,0.0,0.0,0.0,0.0,0.0,-2.2953,-2.2579,-2.1693,0.0,0.0,0.0,0.0,0.0,0.0,0.0,0.0,0.0,-2.524,-2.5678,-2.5716,0.0,0.0,-2.4755,-2.4368,-2.3999,-2.3841,-2.4043,-2.4243,0.0,-2.5053,-2.5159,-2.5327,-2.574,-2.6219,-2.6471,-2.6307,-2.5472,-2.4945,-2.5293,-2.4743,-2.4653,-2.5828,-2.6322,-2.6166,-2.5621,-2.5486,-2.5439,-2.5025,-2.5095,-2.5119,-1.8232,-1.8891,-1.9673,-2.0492,-2.1183,-2.1015,-2.0899,-2.0738,-2.0258,-1.9579,-1.8666,-1.756,-1.6851,-1.6588,-1.6939,0.0,0.0,0.0,-1.9506,-1.9255,-1.7984,-1.6388,-1.44,-1.2866,-1.1472,-1.0229,-0.9875,-0.9767,-0.9977,-1.0218,-1.0829,-1.1764,0.0,0.0,-1.4749,-1.424,-1.3478,-1.2514,-0.9458,-0.7107,-0.5547,-0.4186,-0.4079,-0.5208,-0.5482,-0.5848,-0.6288,-0.648,-0.676,-0.7135,-0.8258,-0.8886,0.0,0.0,0.0,0.0,0.0,0.0,0.0,0.0,0.0,0.0,0.0,-1.6515,-1.7212,0.0,0.0,0.0,-2.1744,-2.2758,-2.3324,-2.2711,0.0,0.0,0.0,0.0,0.0,0.0,0.0,-2.3322,-2.3223,-2.3163,-2.3717,-2.4115,-2.4392,-2.4503,-2.4091,-2.3652,-2.341,0.0,-2.2871,-2.3018,-2.3399,-2.3928,-2.4688,-2.4964,-2.5418,-2.6339,-2.6521,-2.6521,-2.6452,-2.5652,-2.5288,-2.5535,-2.5111,-2.4549,-2.4568,-2.5036,-2.5335,-2.4751,-2.4969,-2.5015,-2.4386,-2.4608,-2.4602,-1.7291,-1.749,-1.9245,-2.0408,-2.0966,-2.0779,-2.0591,-2.0343,-1.93,-1.8472,-1.7816,-1.6829,-1.6261,-1.6083,-1.7455,0.0,-1.8549,-1.9098,-1.8606,-1.7423,-1.5982,-1.4443,-1.2866,-1.1114,-1.0002,-0.9296,-0.8737,-0.8635,-0.9057,-0.87,-0.9122,-1.0388,-1.2732,-1.4076,-1.4505,-1.5216,-1.4573,-1.2329,-1.0762,-0.8616,-0.5811,-0.483,-0.4818,-0.5887,-0.5969,-0.628,-0.684,-0.6836,-0.6806,-0.6806,-0.7892,-0.8313,-0.7829,0.0,0.0,0.0,0.0,0.0,0.0,0.0,0.0,0.0,0.0,0.0,0.0,0.0,0.0,0.0,-2.2816,0.0,-2.2547,-2.2429,0.0,0.0,0.0,-2.162,-2.2191,-2.2274,-2.2299,-2.225,0.0,0.0,-2.1368,-2.1628,-2.2234,-2.305,-2.2748,-2.2238,-2.1667,-2.2051,-2.2357,-2.221,-2.2953,-2.3887,-2.4522,-2.503,-2.5591,-2.6302,-2.649,-2.6553,-2.6496,-2.6489,-2.6452,-2.6432,-2.6639,-2.6251,-2.4253,-2.4258,-2.4565,-2.5136,-2.5136,-2.4878,-2.4276,-2.4186,-2.3924,-1.6528,-1.6834,-1.6725,-1.7707,-1.9359,-1.9178,-1.8732,-1.8174,-1.7718,-1.7214,-1.6581,-1.591,-1.5494,-1.5352,-1.6115,-1.6623,-1.698,-1.6156,-1.5434,-1.4676,-1.3416,-1.1989,-1.0349,-0.9348,-0.8592,-0.8032,-0.7842,-0.7852,-0.8132,-0.8371,-0.8468,-0.857,-1.0418,-1.1997,-1.3235,-1.4046,-1.3731,-1.235,-1.1508,-0.9472,-0.6222,-0.5686,-0.562,-0.5891,-0.6401,-0.667,-0.6652,-0.715,-0.7451,-0.7326,-0.8381,-0.8845,-0.8665,-1.0287,0.0,0.0,0.0,0.0,0.0,0.0,0.0,0.0,0.0,-1.8753,-1.956,0.0,-2.1375,0.0,-2.2769,-2.342,-2.4196,-2.3341,0.0,0.0,-2.1809,-2.1565,-2.1632,-2.2069,-2.2131,-2.173,-2.218,-2.2086,-2.0934,-2.0846,-2.082,-2.0557,-2.1174,-2.1553,-2.1345,-2.1479,-2.1305,-2.0839,-2.1691,-2.277,-2.3584,-2.4811,-2.5828,-2.6037,-2.6499,-2.6856,-2.6655,-2.6627,-2.6502,-2.6354,-2.5913,-2.5429,-2.4921,-2.4404,-2.4021,-2.4086,-2.33,-2.2394,-2.2279,-2.2345,-2.2389,-1.4955,-1.509,-1.4672,-1.5515,-1.7099,-1.689,-1.669,-1.6419,-1.6079,-1.5736,-1.5448,-1.507,-1.4777,-1.4464,-1.4749,-1.4915,-1.4906,-1.3868,-1.3194,-1.2893,-1.1512,-1.0229,-0.8971,-0.8339,-0.7455,-0.6548,-0.6548,-0.6706,-0.7161,-0.7085,-0.7104,-0.7203,-0.8787,-1.0199,-1.1329,-1.2749,-1.307,-1.2151,-1.116,-0.9505,-0.7381,-0.6643,-0.6412,-0.659,-0.6949,-0.7102,-0.7081,-0.7708,-0.8037,-0.7972,-0.8918,-0.9376,-0.9229,-1.0622,-1.1549,0.0,0.0,0.0,0.0,0.0,0.0,0.0,0.0,0.0,0.0,0.0,-2.3022,-2.3761,-2.3785,-2.3834,-2.4154,-2.3167,-2.2428,-2.2298,-2.2132,-2.1989,-2.1699,-2.2132,-2.2273,-2.1767,-2.152,-2.1152,-2.049,-1.9954,-1.9507,-1.9187,-1.9886,-2.0302,-2.01,-2.0272,-2.0222,-1.953,-2.0532,-2.19,-2.3161,-2.4755,-2.5923,-2.5935,-2.6214,-2.6556,-2.6672,-2.6639,-2.6673,-2.6752,-2.6434,-2.5977,-2.5581,-2.4714,-2.4014,-2.345,-2.2436,-2.1693,-2.171,-2.1722,-2.1645,-1.3184,-1.2901,-1.2753,-1.3329,-1.4279,-1.4118,-1.4368,-1.4944,-1.4382,-1.4103,-1.4043,-1.4034,-1.3795,-1.3347,-1.3347,-1.3218,-1.2907,-1.1889,-1.152,-1.1534,-0.9983,-0.8843,-0.8001,-0.7478,-0.6488,-0.5202,-0.5241,-0.5626,-0.621,-0.5649,-0.5761,-0.6455,-0.7792,-0.8812,-0.9454,-1.1454,-1.2343,-1.1973,-1.0352,-0.9304,-0.8869,-0.7734,-0.7258,-0.757,-0.7579,-0.766,-0.7842,-0.8339,-0.8683,-0.8818,-0.9676,-1.0045,-0.9771,-1.1277,-1.2482,0.0,-1.4417,0.0,0.0,0.0,0.0,0.0,0.0,0.0,0.0,-2.3426,-2.4792,-2.5344,-2.4682,-2.3916,-2.3305,-2.256,-2.2101,-2.197,-2.2275,-2.2292,-2.1897,-2.2275,-2.2413,-2.1787,-2.0876,-2.0265,-1.996,-1.9155,-1.8584,-1.8632,-1.8952,-1.9111,-1.8713,-1.9191,-1.9451,-1.8718,-1.9849,-2.1645,-2.329,-2.4708,-2.5632,-2.5767,-2.5853,-2.6024,-2.6551,-2.6723,-2.6919,-2.7262,-2.7296,-2.7019,-2.6365,-2.534,-2.4367,-2.3766,-2.2686,-2.186,-2.1898,-2.171,-2.1456,-1.1692,-1.1346,-1.0361,-1.0279,-1.0662,-0.9951,-1.1169,-1.3432,-1.2765,-1.2205,-1.1663,-1.1663,-1.1593,-1.1531,-1.1531,-1.1648,-1.175,-1.0634,-0.9996,-0.9711,-0.8468,-0.7181,-0.599,-0.5807,-0.5286,-0.4483,-0.4817,-0.5119,-0.5217,-0.575,-0.6153,-0.642,-0.7817,-0.8549,-0.8742,0.0,0.0,0.0,-1.0485,-0.9719,-0.9706,-0.8798,-0.8393,-0.8604,-0.8512,0.0,-0.8511,-0.9018,-0.9576,-1.0078,-1.0835,0.0,0.0,0.0,0.0,0.0,0.0,0.0,0.0,0.0,0.0,0.0,-2.0404,-2.095,-2.125,-2.232,-2.3171,-2.3664,-2.3053,-2.2685,-2.2818,-2.2073,-2.1803,-2.2262,-2.1816,-2.1404,-2.1322,-2.1826,-2.1775,-2.0642,-2.0709,-2.038,-1.9193,-1.9,-1.8958,-1.8625,-1.8794,-1.8804,-1.8576,-1.9273,-1.9636,-1.9582,-2.076,-2.2343,-2.3781,-2.413,-2.4631,-2.5175,-2.5618,-2.5825,-2.6227,-2.6761,-2.704,-2.7085,-2.736,-2.7536,-2.7382,-2.6348,-2.5387,-2.5297,-2.3763,-2.2383,-2.177,-2.1429,-2.1215,-0.9952,-0.9532,-0.8983,-0.8575,0.0,-0.8143,-0.872,-0.9891,-1.052,-1.0763,-1.0664,-1.0758,-1.0424,-0.9845,-0.9851,-0.9663,-0.9352,-0.8493,-0.8043,-0.7938,-0.7223,-0.649,-0.5754,-0.5499,-0.5095,-0.4578,-0.4513,-0.454,-0.4722,-0.5287,-0.5853,-0.6419,-0.7469,-0.8109,-0.8312,-0.9513,-1.0561,-1.1406,-1.0499,-1.0114,-1.0275,-0.94,-0.903,-0.9153,-0.9169,0.0,0.0,0.0,0.0,0.0,0.0,0.0,0.0,-1.3543,0.0,-1.5178,-1.6205,-1.75,-1.8934,-1.8871,-1.909,-1.9765,-2.0302,-2.1027,-2.1963,-2.2556,-2.2936,-2.3328,-2.2715,-2.2313,-2.2312,-2.1627,-2.1302,-2.1431,-2.1175,-2.0886,-2.0974,-2.1185,-2.1094,-2.0569,-2.0482,-2.0162,-1.9326,-1.8981,-1.8835,-1.8611,-1.8643,-1.8574,-1.8408,-1.8913,-1.9515,-2.0237,-2.152,-2.2728,-2.3547,-2.4048,-2.4254,-2.4795,-2.5009,-2.5429,-2.6094,-2.6493,-2.6649,-2.6653,-2.704,-2.7404,-2.7526,-2.6462,-2.5452,-2.5521,-2.395,-2.2369,-2.1774,-2.1521,-2.1292,-0.8373,-0.793,-0.7807,-0.7418,-0.6836,-0.7007,-0.683,-0.6507,-0.8442,0.0,0.0,-1.0093,-0.9569,-0.8475,-0.8392,-0.7984,-0.72,-0.6634,-0.6437,-0.6607,-0.624,-0.6049,-0.5919,-0.5535,-0.5138,-0.4789,-0.4394,-0.4336,-0.4773,-0.5199,-0.59,-0.6715,-0.7447,-0.8016,-0.8443,-0.9383,-1.0134,-1.0703,-1.0452,-1.0416,-1.053,-0.992,-0.9635,-0.9794,-0.9868,-0.9923,-0.9958,-1.0485,-1.1045,-1.167,-1.1985,-1.2641,-1.3606,-1.4282,-1.5323,-1.6646,-1.7244,-1.7986,-1.9023,-1.9131,-1.9272,-1.9727,-2.0029,-2.091,-2.2548,-2.267,-2.2811,-2.3066,-2.2531,-2.2059,-2.1745,-2.1242,-2.0819,-2.0644,-2.0576,-2.0566,-2.0566,-2.0576,-2.0634,-2.0537,-2.033,-1.9951,-1.9691,-1.9165,-1.8672,-1.8569,-1.8618,-1.8373,-1.8184,-1.8587,-1.9414,-2.0648,-2.1498,-2.2343,-2.3235,-2.3594,-2.4121,-2.422,-2.4321,-2.4723,-2.5539,-2.5792,-2.5793,-2.5946,-2.6342,-2.6713,-2.7097,-2.5939,-2.5071,-2.5352,-2.3567,-2.1894,-2.1855,-2.1614,-2.1421,-0.7346,-0.6712,-0.6346,-0.5998,-0.5608,-0.5516,-0.5536,-0.5873,-0.7436,-0.8162,-0.8269,-0.8398,-0.8309,-0.7968,-0.7558,-0.7299,-0.7002,-0.6509,-0.6319,-0.6413,-0.5811,-0.533,-0.4996,-0.4952,-0.4577,-0.4172,-0.4834,-0.5354,-0.5759,-0.6754,-0.7421,-0.7804,-0.8545,-0.9162,-0.9829,-1.0259,-1.0544,-1.0611,-1.0329,-1.0235,-1.0423,-1.0506,-1.0698,-1.0857,-1.0669,-1.0627,-1.0674,-1.1115,-1.1663,-1.2328,-1.2683,-1.331,-1.43,-1.4717,-1.5444,-1.6703,-1.7345,-1.8058,-1.8992,-1.9131,-1.9204,-1.9499,-1.9413,-1.9968,-2.1231,-2.1229,-2.1261,-2.1618,-2.1312,-2.1041,-2.0789,-2.0722,-2.0654,-2.0566,-2.0576,-2.0576,-2.0576,-2.0576,-2.0576,-2.0566,-2.0518,-2.009,-1.9425,-1.9581,-1.9428,-1.8625,-1.8672,-1.8854,-1.8301,-1.858,-1.9384,-2.0292,-2.0522,-2.1226,-2.2528,-2.2524,-2.274,-2.341,-2.3715,-2.3874,-2.423,-2.435,-2.4369,-2.4725,-2.5182,-2.5585,-2.5819,-2.515,-2.4475,-2.4177,-2.2887,-2.1938,-2.1826,-2.1494,-2.1103,-0.5268,-0.4857,-0.4988,-0.4885,-0.4637,-0.4806,-0.4945,-0.508,-0.6054,-0.6662,-0.6966,-0.7178,-0.6973,-0.6502,-0.624,-0.6,-0.5637,-0.5455,-0.5451,-0.5435,-0.5311,-0.5228,-0.5036,-0.504,-0.5037,-0.5081,-0.5553,-0.6193,-0.6828,-0.7486,-0.7968,-0.8301,-0.8821,-0.9254,-0.956,-0.9912,-1.0147,-1.0087,-1.0267,-1.0416,-1.0485,-1.0669,-1.0674,-1.0415,-1.0674,-1.0611,-1.0288,-1.1045,-1.1787,-1.2451,-1.2818,-1.3614,-1.4893,-1.5419,-1.6166,-1.7201,-1.8058,-1.863,-1.9034,-1.8998,-1.89,-1.8831,-1.8851,-1.9,-1.939,-1.9616,-1.9988,-2.0515,-2.0411,-2.0409,-2.0615,-2.0576,-2.0576,-2.0576,-2.0576,-2.0576,-2.0576,-2.0576,-2.0576,-2.0576,-2.0576,-2.0333,-1.9821,-1.9544,-1.9353,-1.8638,-1.8672,-1.8407,-1.8076,-1.8269,-1.8809,-1.991,-2.0357,-2.0981,-2.1931,-2.1716,-2.1857,-2.2811,-2.284,-2.2987,-2.334,-2.3522,-2.3569,-2.3549,-2.3872,-2.4141,-2.45,-2.385,-2.3446,-2.3439,-2.2381,-2.1654,-2.1475,-2.1182,-2.082,-0.3721,-0.3583,-0.4099,-0.4221,-0.4189,-0.4526,-0.4628,-0.4574,-0.4956,-0.5391,-0.585,-0.6201,-0.5949,-0.5344,-0.5211,-0.4957,-0.4587,-0.4636,-0.4704,-0.4823,-0.5043,-0.515,-0.5236,-0.5366,-0.5735,-0.6162,-0.651,-0.706,-0.7767,-0.8171,-0.8476,-0.8764,-0.9095,-0.926,-0.9193,-0.9594,-0.9821,-0.9854,-1.0394,-1.0595,-1.053,-1.064,-1.0485,-1.0098,-1.0485,-1.0478,-1.0098,-1.0982,-1.1787,-1.2336,-1.2704,-1.3588,-1.5084,-1.5733,-1.6495,-1.7519,-1.8462,-1.8971,-1.8998,-1.8808,-1.8607,-1.8337,-1.8347,-1.8279,-1.8105,-1.8429,-1.8941,-1.9502,-1.9795,-2.0068,-2.0342,-2.0518,-2.0576,-2.0576,-2.0576,-2.0576,-2.0576,-2.0576,-2.0576,-2.0576,-2.0566,-2.0382,-2.0053,-1.9412,-1.8947,-1.881,-1.8334,-1.7969,-1.8008,-1.7872,-1.8203,-1.895,-1.9766,-2.0349,-2.0855,-2.0849,-2.1002,-2.1879,-2.1834,-2.1875,-2.2313,-2.2547,-2.2582,-2.234,-2.2428,-2.2725,-2.3113,-2.2709,-2.2377,-2.2471,-2.178,-2.1094,-2.1064,-2.085,-2.0596,-0.3795,-0.396,-0.4174,-0.4408,-0.4581,-0.4551,-0.4477,-0.4519,-0.457,-0.4574,-0.4754,-0.5417,-0.5567,-0.5262,-0.4944,-0.4721,-0.4667,-0.4684,-0.481,-0.503,-0.4961,-0.509,-0.5442,-0.6022,-0.6416,-0.6763,-0.7644,-0.8204,-0.8527,-0.8997,-0.9334,-0.9519,-0.9769,-0.9769,-0.9642,-0.9994,-1.0229,-1.0236,-1.0724,-1.0695,-1.0207,-1.0483,-1.0555,-1.0561,-1.0561,-1.0618,-1.0491,-1.1178,-1.167,-1.2042,-1.2375,-1.3182,-1.4462,-1.496,-1.5829,-1.7187,-1.808,-1.8555,-1.8757,-1.8617,-1.8482,-1.8337,-1.8154,-1.8095,-1.8047,-1.8066,-1.8252,-1.8809,-1.9492,-1.9902,-2.0,-2.0332,-2.0547,-2.0518,-2.0527,-2.0576,-2.0518,-2.0576,-2.0576,-2.0576,-2.0362,-2.013,-1.9553,-1.9399,-1.9182,-1.8516,-1.8075,-1.7862,-1.794,-1.7579,-1.7235,-1.742,-1.7842,-1.8626,-1.9322,-1.9737,-1.9986,-2.0133,-2.0579,-2.0808,-2.0776,-2.0687,-2.0512,-2.1265,-2.113,-2.1435,-2.1734,-2.1549,-2.1308,-2.149,-2.1135,-2.0664,-2.0635,-2.0528,-2.0489,-0.2366,-0.2738,-0.3177,-0.3863,-0.4492,-0.4543,-0.4463,-0.4301,-0.4301,-0.4301,-0.4373,-0.4791,-0.4937,-0.494,-0.4779,-0.4735,-0.4823,-0.4826,-0.509,-0.5631,-0.5574,-0.5816,-0.6357,-0.6964,-0.732,-0.7461,-0.8376,-0.888,-0.9094,-0.9538,-0.9888,-1.0053,-1.0179,-1.0248,-1.0299,-1.0479,-1.0603,-1.0603,-1.092,-1.0929,-1.0719,-1.077,-1.062,-1.0354,-1.0614,-1.0528,-1.0155,-1.1122,-1.2028,-1.2371,-1.2708,-1.3526,-1.4714,-1.5053,-1.5573,-1.6571,-1.7492,-1.8205,-1.8596,-1.8482,-1.8378,-1.8498,-1.8144,-1.8203,-1.8701,-1.8535,-1.8564,-1.8984,-1.9346,-1.9629,-1.9902,-2.0303,-2.0478,-2.0187,-2.0042,-1.9965,-1.9694,-1.9524,-1.9581,-1.9898,-1.9813,-1.9648,-1.9465,-1.9268,-1.8742,-1.8106,-1.7824,-1.793,-1.7959,-1.7725,-1.7373,-1.7079,-1.751,-1.7966,-1.8314,-1.8535,-1.8962,-1.9545,-1.9693,-1.9666,-2.003,-1.9916,-2.0022,-2.0445,-2.0365,-2.0514,-2.1014,-2.0978,-2.0834,-2.0791,-2.0781,-2.0489,-1.9942,-1.9854,-1.9687,-0.1513,-0.2014,-0.2738,-0.363,-0.4408,-0.4353,-0.4301,-0.4193,-0.419,-0.4157,-0.4201,-0.4314,-0.4465,-0.4677,-0.4713,-0.4836,-0.4962,-0.516,-0.5551,-0.6072,-0.6265,-0.6634,-0.7176,-0.7791,-0.8034,-0.8193,-0.8918,-0.946,-0.9642,-0.9817,-1.0105,-1.0336,-1.0373,-1.0473,-1.0642,-1.0736,-1.0736,-1.0736,-1.1076,-1.1272,-1.1233,-1.1275,-1.0988,-1.0508,-1.0842,-1.0738,-1.0021,-1.1189,-1.2059,-1.2437,-1.2772,-1.3475,-1.4654,-1.5026,-1.5563,-1.6315,-1.7323,-1.7985,-1.8321,-1.8498,-1.8695,-1.875,-1.8516,-1.8613,-1.9082,-1.8994,-1.8965,-1.9219,-1.9394,-1.9555,-1.9893,-2.0312,-2.0333,-1.9937,-1.9822,-1.9592,-1.9287,-1.9117,-1.9278,-1.9593,-1.9582,-1.9446,-1.9547,-1.923,-1.8805,-1.8373,-1.835,-1.8359,-1.829,-1.8189,-1.782,-1.7333,-1.7637,-1.7745,-1.7555,-1.7894,-1.8449,-1.8922,-1.9046,-1.9014,-1.9547,-1.9421,-1.9473,-1.9737,-1.9624,-1.984,-2.0374,-2.0389,-2.0546,-2.0537,-2.0411,-2.0089,-1.9529,-1.9213,-1.8727,-0.1903,-0.2238,-0.3585,-0.4144,-0.4193,-0.4086,-0.4086,-0.4154,-0.4092,-0.41,-0.4186,-0.4103,-0.425,-0.4631,-0.4771,-0.4986,-0.5171,-0.5754,-0.6145,-0.64,-0.7071,-0.7349,-0.7428,-0.814,-0.8511,-0.8548,-0.9361,-0.9965,-1.0194,-1.0025,-1.0055,-1.0297,-1.0315,-1.0321,-1.0439,-1.059,-1.0622,-1.0684,-1.1237,-1.1566,-1.1559,-1.1759,-1.1677,-1.1319,-1.1334,-1.1253,-1.1022,-1.106,-1.1491,-1.2226,-1.2262,-1.2877,-1.4045,-1.4857,-1.5575,-1.6576,-1.7694,-1.8253,-1.8142,-1.8821,-1.9354,-1.9321,-1.918,-1.9238,-1.9385,-1.9316,-1.9316,-1.9326,-1.9558,-1.9771,-1.9915,-2.0101,-2.0226,-2.0159,-1.9944,-1.9818,-1.98,-1.9542,-1.9778,-1.9788,-1.9612,-1.9562,-1.9618,-1.9582,-1.9506,-1.9314,-1.9296,-1.915,-1.9029,-1.8632,-1.8248,-1.8027,-1.7842,-1.7558,-1.7558,-1.7796,-1.8163,-1.8498,-1.8567,-1.8291,-1.834,-1.8437,-1.8801,-1.9017,-1.9102,-1.9375,-1.9766,-2.0049,-2.0254,-2.0236,-1.9835,-1.946,-1.9054,-1.8487,-1.7917,-0.1998,-0.2238,-0.353,-0.4092,-0.4098,-0.4175,-0.4216,-0.4116,-0.4133,-0.408,-0.4063,-0.4086,-0.4243,-0.4497,-0.4662,-0.4884,-0.5133,-0.5982,-0.6343,-0.6527,-0.7572,-0.8102,-0.8161,-0.8823,-0.9151,-0.9192,-0.9676,-1.0073,-1.0297,-1.023,-1.0321,-1.0538,-1.0574,-1.0659,-1.0797,-1.09,-1.0906,-1.0985,-1.1297,-1.156,-1.17,-1.1853,-1.1873,-1.1768,-1.1591,-1.1407,-1.1086,-1.121,-1.1683,-1.2493,-1.2239,-1.2821,-1.4238,-1.4729,-1.5429,-1.6365,-1.6721,-1.7552,-1.8922,-1.8829,-1.8953,-1.9564,-1.9434,-1.9561,-1.9932,-1.9863,-1.9805,-2.0049,-2.0215,-2.0245,-2.012,-2.01,-1.9915,-1.9514,-1.939,-1.9238,-1.8985,-1.8853,-1.888,-1.9217,-1.9372,-1.9469,-1.9709,-1.9591,-1.9488,-1.9723,-1.9487,-1.9355,-1.9297,-1.9068,-1.8822,-1.8397,-1.8441,-1.8569,-1.834,-1.8081,-1.8096,-1.8154,-1.8183,-1.8358,-1.8494,-1.8666,-1.8967,-1.9492,-1.935,-1.9541,-2.0107,-2.0283,-2.041,-2.0198,-1.9775,-1.8975,-1.8567,-1.7764,-1.7033,-0.1944,-0.2469,-0.314,-0.3363,-0.3314,-0.3607,-0.3877,-0.407,-0.4027,-0.3977,-0.3946,-0.3985,-0.4122,-0.4288,-0.4418,-0.4662,-0.5008,-0.5877,-0.64,-0.6597,-0.7772,-0.8408,-0.8668,-0.9208,-0.9521,-0.9622,-0.9904,-1.0236,-1.0538,-1.0496,-1.0592,-1.0834,-1.0846,-1.093,-1.1087,-1.1117,-1.1117,-1.1111,-1.1335,-1.1477,-1.1706,-1.1929,-1.2003,-1.1977,-1.1741,-1.1488,-1.123,-1.1363,-1.1697,-1.2353,-1.2351,-1.3008,-1.446,-1.487,-1.5157,-1.5674,-1.6052,-1.6746,-1.8136,-1.8373,-1.8824,-1.9621,-1.9742,-1.998,-2.0488,-2.0293,-2.0303,-2.0498,-2.0498,-2.0411,-2.0177,-1.9951,-1.9681,-1.9263,-1.913,-1.9019,-1.8768,-1.8598,-1.8745,-1.9081,-1.9399,-1.9608,-1.9835,-1.9782,-1.988,-2.0127,-1.9853,-1.9717,-1.9697,-1.9697,-1.9558,-1.9014,-1.9144,-1.9173,-1.892,-1.8556,-1.8585,-1.8672,-1.8437,-1.8543,-1.8769,-1.8937,-1.929,-1.9761,-2.0051,-2.0225,-2.0352,-2.0527,-2.043,-2.0284,-1.9371,-1.8407,-1.7764,-1.687,-1.6358,-0.1796,-0.2691,-0.2415,-0.2018,-0.1905,-0.2193,-0.303,-0.3904,-0.3741,-0.3754,-0.3804,-0.3721,-0.3822,-0.4091,-0.4196,-0.4399,-0.4725,-0.5547,-0.621,-0.6671,-0.7606,-0.8311,-0.8746,-0.9176,-0.9525,-0.9661,-1.0113,-1.0521,-1.0861,-1.0694,-1.0773,-1.0983,-1.0926,-1.0926,-1.1043,-1.0962,-1.1037,-1.1037,-1.1186,-1.1409,-1.17,-1.1855,-1.1929,-1.1935,-1.1761,-1.1588,-1.1366,-1.1391,-1.162,-1.2057,-1.2439,-1.341,-1.4351,-1.4814,-1.5004,-1.4963,-1.5836,-1.5994,-1.5525,-1.7576,-1.8928,-1.9464,-2.0032,-2.0382,-2.0518,-2.0527,-2.0518,-2.0557,-2.0459,-2.0312,-2.0008,-1.9916,-1.9827,-1.9673,-1.9487,-1.9381,-1.9311,-1.9292,-1.9283,-1.9353,-1.9529,-1.9863,-1.9942,-2.0129,-2.0314,-2.0469,-2.0439,-2.0391,-2.0361,-2.0352,-2.0411,-2.011,-1.9621,-1.924,-1.907,-1.9042,-1.9183,-1.9278,-1.8927,-1.8832,-1.9123,-1.9333,-1.9667,-2.0072,-2.0304,-2.0478,-2.0596,-2.0672,-2.0324,-1.9916,-1.8905,-1.8023,-1.745,-1.6773,-1.611,-0.2683,-0.151,-0.095,-0.0615,-0.0562,-0.0687,-0.185,-0.3671,-0.3738,-0.3749,-0.3778,-0.3808,-0.389,-0.3985,-0.4096,-0.421,-0.4425,-0.4891,-0.5484,-0.6362,-0.7469,-0.811,-0.8466,-0.8949,-0.9292,-0.957,-0.9956,-1.0193,-1.0295,-1.0427,-1.0525,-1.0282,-1.0293,-1.0293,-1.0293,-1.0293,-1.0368,-1.0669,-1.0738,-1.0962,-1.1484,-1.1706,-1.1713,-1.1632,-1.1632,-1.1552,-1.126,-1.1186,-1.1484,-1.1929,-1.1484,-1.1608,-1.244,-1.3634,-1.4512,-1.5114,-1.5479,-1.5726,-1.5516,-1.6605,-1.8078,-1.9054,-1.9539,-2.001,-2.0489,-2.0586,-2.0596,-2.0625,-2.0751,-2.0796,-2.0505,-2.0652,-2.0417,-1.994,-1.9841,-1.9942,-1.9998,-1.987,-1.9604,-1.9347,-1.9381,-1.9627,-1.9863,-2.0098,-2.0177,-2.0489,-2.0489,-2.0411,-2.0342,-2.0167,-2.0255,-2.007,-1.9519,-1.9045,-1.9081,-1.892,-1.8966,-1.9343,-1.9241,-1.909,-1.9393,-1.9698,-2.0043,-2.0275,-2.0566,-2.0663,-2.0767,-2.0571,-2.007,-1.9605,-1.8809,-1.8077,-1.7507,-1.6861,-1.6178,-0.3352,-0.2122,-0.0726,-0.0392,-0.0674,-0.0753,-0.1807,-0.3493,-0.3765,-0.3749,-0.3732,-0.377,-0.3857,-0.3936,-0.4018,-0.4143,-0.4287,-0.4431,-0.5049,-0.597,-0.695,-0.7633,-0.8065,-0.8857,-0.9394,-0.9669,-0.9917,-0.9994,-0.9916,-1.0148,-1.0148,-0.9916,-0.9922,-0.9922,-0.9922,-0.9922,-1.0067,-1.0293,-1.0438,-1.0738,-1.1111,-1.1403,-1.1558,-1.1409,-1.1558,-1.1416,-1.1117,-1.1117,-1.1267,-1.1527,-1.1211,-1.13,-1.1768,-1.2871,-1.4068,-1.5034,-1.5034,-1.4844,-1.5284,-1.6195,-1.7147,-1.839,-1.9134,-1.979,-2.0437,-2.0643,-2.0771,-2.0915,-2.1228,-2.1312,-2.0923,-2.1094,-2.0949,-2.0383,-2.0237,-2.0292,-2.0448,-2.031,-1.998,-1.9677,-1.9629,-1.9706,-1.9752,-1.9618,-1.9696,-1.9923,-1.9756,-1.9511,-1.9362,-1.9204,-1.9125,-1.8877,-1.8346,-1.8329,-1.8939,-1.893,-1.8771,-1.9104,-1.954,-1.9523,-1.9629,-1.9966,-2.0285,-2.0562,-2.0774,-2.0552,-2.0576,-2.008,-1.9583,-1.9033,-1.8584,-1.7857,-1.7093,-1.6783,-1.6206,-0.386,-0.4082,-0.1729,-0.112,-0.1749,-0.2026,-0.2715,-0.3578,-0.3754,-0.3691,-0.3613,-0.3653,-0.3743,-0.3895,-0.3977,-0.411,-0.4249,-0.43,-0.476,-0.5593,-0.6368,-0.702,-0.785,-0.8777,-0.9316,-0.9658,-0.9814,-0.9846,-0.9748,-0.9862,-0.9857,-0.9813,-0.9748,-0.9781,-0.9711,-0.9776,-0.9803,-0.9922,-1.0218,-1.0513,-1.0812,-1.1186,-1.1409,-1.1403,-1.1409,-1.1329,-1.1111,-1.1037,-1.1049,-1.1115,-1.136,-1.1617,-1.2164,-1.253,-1.3385,-1.4754,-1.4062,-1.4489,-1.5144,-1.6147,-1.7057,-1.7916,-1.9093,-2.0169,-2.0628,-2.0857,-2.1053,-2.1351,-2.1607,-2.1665,-2.1322,-2.1352,-2.124,-2.0998,-2.0747,-2.0677,-2.0567,-2.0567,-2.0282,-1.9898,-1.9934,-1.9887,-1.9387,-1.9056,-1.894,-1.8789,-1.831,-1.806,-1.7891,-1.7819,-1.7334,-1.7172,-1.7172,-1.7415,-1.7908,-1.8149,-1.8149,-1.8939,-1.9524,-1.9837,-1.9906,-2.0235,-2.0478,-2.0774,-2.0778,-2.056,-2.0238,-1.9832,-1.9202,-1.8578,-1.8001,-1.7316,-1.6994,-1.6758,-1.6855,-0.4089,-0.4206,-0.353,-0.2725,-0.2196,-0.2866,-0.3392,-0.3771,-0.371,-0.3623,-0.3615,-0.377,-0.3806,-0.383,-0.4077,-0.4153,-0.4118,-0.423,-0.4428,-0.4954,-0.605,-0.7219,-0.8178,-0.867,-0.8932,-0.9084,-0.9322,-0.9407,-0.9223,-0.9387,-0.9397,-0.9252,-0.9291,-0.9145,-0.9047,-0.9154,-0.9309,-0.9494,-0.9841,-1.0223,-1.0599,-1.1129,-1.1335,-1.118,-1.1353,-1.1273,-1.1117,-1.0812,-1.0604,-1.0401,-1.0375,-1.0402,-1.0554,-1.1277,-1.2089,-1.2838,-1.3535,-1.4656,-1.63,-1.6828,-1.7519,-1.9054,-1.9603,-2.0246,-2.0948,-2.1049,-2.1189,-2.136,-2.1635,-2.175,-2.1446,-2.1661,-2.1701,-2.153,-2.1207,-2.1044,-2.1016,-2.0943,-2.054,-1.9604,-1.944,-1.897,-1.8411,-1.8019,-1.7845,-1.7742,-1.7529,-1.718,-1.6935,-1.6958,-1.6692,-1.6574,-1.6542,-1.6617,-1.6772,-1.709,-1.7658,-1.8638,-1.9423,-2.0157,-2.0245,-2.0459,-2.0761,-2.1043,-2.0652,-2.0364,-2.0192,-1.9858,-1.9181,-1.8186,-1.7773,-1.7273,-1.7286,-1.7198,-1.7613,-0.4141,-0.4089,-0.4092,-0.3626,-0.2932,-0.3442,-0.374,-0.3749,-0.3732,-0.3623,-0.3626,-0.3721,-0.3776,-0.384,-0.3971,-0.4091,-0.4107,-0.4235,-0.4417,-0.4845,-0.6072,-0.736,-0.8433,-0.8703,-0.8703,-0.8703,-0.8937,-0.9,-0.8923,-0.899,-0.8937,-0.8927,-0.8888,-0.8817,-0.8722,-0.8807,-0.8913,-0.9108,-0.9544,-1.0106,-1.0433,-1.1059,-1.1447,-1.1419,-1.1526,-1.1413,-1.1006,-1.0444,-1.0169,-1.0232,-1.009,-0.9883,-0.9833,-1.0646,-1.1391,-1.2049,-1.3438,-1.5113,-1.6676,-1.7548,-1.8566,-1.9484,-1.9911,-2.0443,-2.0987,-2.1221,-2.1325,-2.1607,-2.1891,-2.1889,-2.177,-2.1878,-2.1624,-2.115,-2.0738,-2.073,-2.118,-2.1004,-2.0377,-1.96,-1.8924,-1.837,-1.7472,-1.7146,-1.6881,-1.6676,-1.6376,-1.6058,-1.5839,-1.6088,-1.6117,-1.5881,-1.5834,-1.59,-1.6178,-1.6552,-1.7516,-1.8475,-1.9377,-2.0163,-2.0368,-2.0505,-2.0732,-2.0832,-2.0555,-2.0166,-1.9872,-1.9331,-1.8362,-1.7665,-1.7404,-1.7419,-1.7419,-1.7692,-1.8149,-0.4079,-0.4135,-0.4033,-0.3981,-0.3896,-0.3926,-0.3915,-0.3806,-0.3909,-0.3889,-0.3837,-0.3837,-0.3998,-0.3931,-0.4252,-0.4182,-0.4392,-0.4506,-0.4672,-0.5264,-0.628,-0.746,-0.838,-0.8627,-0.8703,-0.8713,-0.8713,-0.876,-0.8812,-0.8789,-0.877,-0.8822,-0.8807,-0.8746,-0.8741,-0.8751,-0.8746,-0.8918,-0.9464,-1.0033,-1.0401,-1.1057,-1.1426,-1.1787,-1.1665,-1.1417,-1.0819,-1.0158,-0.9946,-1.0411,-1.0096,-0.9991,-1.0144,-1.0804,-1.1746,-1.279,-1.4271,-1.5621,-1.6831,-1.876,-1.9973,-1.9986,-2.0543,-2.0939,-2.1521,-2.1787,-2.1814,-2.2155,-2.2246,-2.212,-2.1952,-2.182,-2.1365,-2.0494,-1.9438,-1.9479,-2.0666,-2.0628,-1.994,-1.9465,-1.8612,-1.7817,-1.7062,-1.6458,-1.5985,-1.5918,-1.5583,-1.549,-1.5304,-1.5425,-1.5308,-1.5099,-1.5094,-1.5306,-1.5719,-1.6107,-1.7311,-1.8365,-1.9291,-2.0046,-2.0263,-2.0395,-2.0641,-2.0642,-2.0119,-1.9655,-1.9191,-1.8488,-1.7699,-1.7419,-1.7326,-1.7419,-1.7512,-1.8156,-1.8603,-0.4849,-0.4849,-0.4739,-0.4752,-0.4784,-0.4717,-0.4671,-0.4744,-0.4657,-0.4622,-0.4685,-0.4872,-0.4924,-0.4889,-0.513,-0.522,-0.4866,-0.5045,-0.5293,-0.5706,-0.6481,-0.7238,-0.8012,-0.847,-0.8703,-0.8732,-0.8878,-0.894,-0.8959,-0.903,-0.9096,-0.8959,-0.9015,-0.9015,-0.8751,-0.8859,-0.8954,-0.9027,-0.9408,-0.999,-1.046,-1.0864,-1.1298,-1.1772,-1.1543,-1.11,-1.0648,-1.015,-1.0019,-1.0098,-1.0006,-1.0199,-1.0914,-1.1729,-1.2735,-1.4139,-1.5353,-1.6815,-1.8548,-1.9531,-2.0506,-2.1677,-2.1966,-2.2544,-2.3103,-2.2698,-2.2553,-2.2561,-2.2227,-2.1998,-2.182,-2.1731,-2.1087,-1.9991,-1.8182,-1.7371,-1.8859,-1.9255,-1.8824,-1.8141,-1.7642,-1.7062,-1.5952,-1.5854,-1.5466,-1.5192,-1.5055,-1.5001,-1.4945,-1.4986,-1.4917,-1.4903,-1.5087,-1.5354,-1.5555,-1.6111,-1.7165,-1.8154,-1.9073,-1.9413,-1.9632,-2.0154,-2.0345,-2.013,-1.9635,-1.91,-1.8564,-1.8064,-1.7333,-1.7333,-1.7333,-1.7606,-1.7971,-1.8519,-1.933,-0.5087,-0.5014,-0.4901,-0.4949,-0.5009,-0.4938,-0.4994,-0.5113,-0.5061,-0.5118,-0.5208,-0.5385,-0.5397,-0.5351,-0.5675,-0.565,-0.5624,-0.5863,-0.6342,-0.6734,-0.7214,-0.7625,-0.8165,-0.8475,-0.8708,-0.8722,-0.8803,-0.8869,-0.8926,-0.9063,-0.9044,-0.8911,-0.9091,-0.8978,-0.8784,-0.8907,-0.9006,-0.9173,-0.9571,-1.019,-1.0702,-1.1141,-1.1439,-1.1671,-1.1271,-1.063,-1.0383,-0.997,-1.0108,-1.046,-1.0726,-1.1075,-1.1866,-1.2826,-1.4079,-1.5213,-1.675,-1.779,-1.9196,-2.044,-2.1516,-2.2668,-2.3038,-2.3377,-2.3714,-2.3464,-2.3115,-2.2833,-2.2413,-2.2087,-2.1731,-2.0962,-2.0503,-1.9372,-1.7308,-1.6458,-1.723,-1.7777,-1.7963,-1.7326,-1.6936,-1.6306,-1.5697,-1.5458,-1.5271,-1.5149,-1.5285,-1.5221,-1.5147,-1.511,-1.5237,-1.5277,-1.5351,-1.5436,-1.5547,-1.6106,-1.7177,-1.7956,-1.8701,-1.8701,-1.8633,-1.9255,-1.9915,-1.9427,-1.8935,-1.8651,-1.8126,-1.7591,-1.7333,-1.7333,-1.7512,-1.7971,-1.8511,-1.9063,-1.9968,-0.5335,-0.5198,-0.5194,-0.5198,-0.5198,-0.5266,-0.5356,-0.5478,-0.551,-0.5699,-0.5691,-0.5734,-0.5977,-0.5843,-0.6053,-0.6195,-0.6414,-0.6655,-0.6973,-0.7294,-0.7617,-0.794,-0.8322,-0.8551,-0.8703,-0.8703,-0.8779,-0.8779,-0.8803,-0.8949,-0.9048,-0.8826,-0.8978,-0.8992,-0.8864,-0.8874,-0.9006,-0.9156,-0.9577,-1.0295,-1.0864,-1.1351,-1.1464,-1.1394,-1.0948,-1.0363,-1.0194,-0.9945,-1.0114,-1.1025,-1.1945,-1.2529,-1.3231,-1.4246,-1.5516,-1.6339,-1.8226,-1.9472,-2.025,-2.1447,-2.2611,-2.3038,-2.3647,-2.3983,-2.4145,-2.4059,-2.378,-2.3357,-2.2921,-2.2422,-2.1722,-2.0666,-1.9753,-1.8648,-1.7001,-1.5987,-1.5981,-1.6574,-1.6951,-1.6958,-1.6487,-1.59,-1.5698,-1.5524,-1.5317,-1.519,-1.5337,-1.5418,-1.5344,-1.5344,-1.5471,-1.5545,-1.5591,-1.5792,-1.5927,-1.6042,-1.7041,-1.7509,-1.8241,-1.8057,-1.7713,-1.8209,-1.8693,-1.8523,-1.8175,-1.8118,-1.8041,-1.7598,-1.7426,-1.7426,-1.7606,-1.7963,-1.8696,-1.9604,-2.0602,-0.6483,-0.6506,-0.6511,-0.6447,-0.6447,-0.6447,-0.6461,-0.6588,-0.6664,-0.6725,-0.661,-0.7003,-0.6976,-0.6953,-0.7122,-0.7172,-0.7095,-0.7159,-0.7092,-0.7322,-0.7629,-0.8012,-0.8165,-0.8546,-0.8703,-0.8755,-0.8831,-0.8841,-0.8892,-0.9209,-0.9167,-0.8892,-0.9091,-0.9162,-0.8959,-0.8874,-0.8996,-0.92,-0.9485,-1.0044,-1.0757,-1.0805,-1.0705,-1.0699,-1.0499,-1.0378,-1.0139,-1.0062,-1.0326,-1.1262,-1.2638,-1.4085,-1.5365,-1.6675,-1.7764,-1.87,-2.0298,-2.1365,-2.1787,-2.2814,-2.3811,-2.4413,-2.4605,-2.5031,-2.5211,-2.5031,-2.4638,-2.4129,-2.3374,-2.2463,-2.1731,-2.0486,-1.9563,-1.8548,-1.7123,-1.5799,-1.5886,-1.6015,-1.6204,-1.6204,-1.5913,-1.5812,-1.5718,-1.5658,-1.5578,-1.5498,-1.5571,-1.5645,-1.5618,-1.5631,-1.5705,-1.5752,-1.5785,-1.6069,-1.6411,-1.6383,-1.6765,-1.6992,-1.7408,-1.7301,-1.7162,-1.7179,-1.7245,-1.7482,-1.8117,-1.8632,-1.8334,-1.7971,-1.7878,-1.8149,-1.8056,-1.787,-1.878,-1.9786,-2.0872,-0.7067,-0.7091,-0.7086,-0.7086,-0.711,-0.7213,-0.7201,-0.7045,-0.7225,-0.7267,-0.7248,-0.7371,-0.7545,-0.7593,-0.7755,-0.7869,-0.7855,-0.7899,-0.7859,-0.7936,-0.8165,-0.8241,-0.8241,-0.8546,-0.8627,-0.8727,-0.8803,-0.8892,-0.8902,-0.9256,-0.928,-0.9195,-0.9346,-0.9337,-0.911,-0.9053,-0.9115,-0.9304,-0.9505,-0.9985,-1.0699,-1.0469,-1.0389,-1.0429,-1.0307,-1.0197,-1.012,-1.0549,-1.1305,-1.276,-1.4311,-1.5981,-1.7466,-1.8836,-1.9859,-2.0344,-2.1578,-2.2566,-2.2988,-2.3798,-2.4553,-2.4861,-2.52,-2.5559,-2.5728,-2.5549,-2.5221,-2.4671,-2.3634,-2.2473,-2.1606,-2.0215,-1.9039,-1.8041,-1.6692,-1.5954,-1.5812,-1.5825,-1.5825,-1.5825,-1.5825,-1.5818,-1.5825,-1.5792,-1.5812,-1.5825,-1.5825,-1.5825,-1.5825,-1.5832,-1.5832,-1.5825,-1.5825,-1.6021,-1.6305,-1.64,-1.6494,-1.669,-1.6784,-1.6683,-1.6777,-1.6958,-1.6922,-1.6937,-1.7725,-1.8788,-1.9239,-1.9147,-1.8964,-1.8688,-1.8419,-1.8419,-1.9147,-1.9968,-2.0872,-0.7432,-0.7517,-0.7517,-0.7537,-0.7598,-0.7601,-0.7506,-0.7378,-0.7466,-0.7499,-0.7531,-0.7579,-0.7621,-0.7801,-0.8037,-0.8321,-0.8647,-0.8585,-0.8627,-0.8551,-0.8551,-0.8627,-0.8627,-0.8627,-0.8551,-0.8637,-0.8649,-0.8754,-0.894,-0.9133,-0.9294,-0.9294,-0.9478,-0.9386,-0.9114,-0.9209,-0.9308,-0.9414,-0.9722,-1.0183,-1.0454,-1.0549,-1.0549,-1.0463,-1.0207,-1.0033,-1.0381,-1.1144,-1.2407,-1.4068,-1.5752,-1.7503,-1.9147,-2.0634,-2.131,-2.1385,-2.2129,-2.2814,-2.35,-2.4493,-2.5126,-2.5211,-2.5535,-2.5714,-2.5841,-2.5692,-2.5355,-2.4639,-2.368,-2.2416,-2.1373,-1.9778,-1.8511,-1.7412,-1.6574,-1.5825,-1.5825,-1.5825,-1.5825,-1.5825,-1.5825,-1.5825,-1.5825,-1.5825,-1.5825,-1.5825,-1.5825,-1.5825,-1.5825,-1.5933,-1.5933,-1.5927,-1.5927,-1.5933,-1.6123,-1.6218,-1.6312,-1.6501,-1.6501,-1.64,-1.6683,-1.6871,-1.6929,-1.7181,-1.7747,-1.8796,-1.9513,-1.9869,-1.9239,-1.8788,-1.8603,-1.8696,-1.9055,-1.9422,-2.0141,-0.7931,-0.7906,-0.7901,-0.8017,-0.8052,-0.7751,-0.7602,-0.7755,-0.7735,-0.7626,-0.7564,-0.7659,-0.7763,-0.79,-0.8212,-0.8387,-0.8496,-0.8548,-0.8646,-0.866,-0.8512,-0.8449,-0.8426,-0.825,-0.8381,-0.849,-0.8447,-0.8558,-0.8737,-0.8981,-0.9199,-0.9361,-0.9257,-0.928,-0.9169,-0.9096,-0.9318,-0.936,-0.9927,-1.0309,-1.0504,-1.0549,-1.0376,-1.012,-1.0125,-1.0294,-1.0977,-1.1901,-1.3231,-1.4873,-1.6734,-1.8104,-1.9007,-2.0386,-2.139,-2.2279,-2.3096,-2.3888,-2.42,-2.505,-2.5644,-2.5557,-2.5557,-2.5546,-2.5546,-2.5437,-2.5005,-2.4231,-2.352,-2.2505,-2.1309,-1.9679,-1.8503,-1.7217,-1.6103,-1.573,-1.573,-1.5825,-1.5825,-1.5825,-1.5825,-1.5832,-1.5832,-1.5832,-1.5825,-1.5825,-1.5825,-1.5825,-1.592,-1.6021,-1.6035,-1.6028,-1.5927,-1.6028,-1.5933,-1.6123,-1.6123,-1.6218,-1.6211,-1.6211,-1.64,-1.6777,-1.7628,-1.7885,-1.835,-1.8434,-1.8611,-1.8788,-1.8788,-1.8788,-1.8603,-1.8603,-1.8696,-1.9147,-1.9513,-0.7982,-0.7982,-0.7982,-0.8038,-0.8139,-0.8073,-0.8001,-0.7898,-0.8028,-0.7947,-0.7725,-0.7858,-0.8009,-0.8165,-0.8379,-0.8426,-0.8374,-0.8367,-0.8394,-0.8544,-0.8411,-0.8387,-0.8493,-0.8422,-0.8484,-0.8449,-0.8546,-0.8508,-0.8684,-0.8873,-0.9072,-0.8985,-0.8751,-0.8687,-0.8914,-0.866,-0.8923,-0.9233,-0.979,-1.011,-1.0188,-1.0212,-1.0212,-1.0038,-1.0038,-1.0467,-1.1402,-1.2662,-1.3988,-1.5756,-1.7737,-1.9207,-2.0084,-2.1219,-2.2254,-2.2602,-2.3795,-2.4693,-2.5157,-2.5589,-2.5768,-2.5775,-2.5448,-2.5185,-2.512,-2.4978,-2.4875,-2.4734,-2.3753,-2.2475,-2.0962,-1.9157,-1.7353,-1.6075,-1.5261,-1.5274,-1.5178,-1.573,-1.5825,-1.5825,-1.5825,-1.5927,-1.5927,-1.5927,-1.6015,-1.6015,-1.6109,-1.6116,-1.6211,-1.64,-1.6312,-1.613,-1.6123,-1.6028,-1.5927,-1.5927,-1.5927,-1.6021,-1.6021,-1.6015,-1.6116,-1.6588,-1.7347,-1.7994,-1.835,-1.8249,-1.7885,-1.8427,-1.9247,-1.888,-1.8427,-1.8334,-1.8334,-1.8696,-1.9147,-0.7857,-0.7857,-0.7987,-0.8043,-0.8169,-0.8319,-0.8269,-0.8065,-0.8188,-0.8136,-0.7985,-0.8066,-0.8182,-0.8268,-0.8285,-0.8304,-0.8322,-0.8178,-0.8185,-0.8282,-0.8299,-0.8369,-0.8358,-0.8427,-0.8466,-0.8517,-0.8448,-0.8563,-0.8603,-0.8674,-0.8644,-0.8293,-0.8293,-0.8241,-0.841,-0.8658,-0.8948,-0.9738,-0.9943,-1.0106,-1.0207,-1.0125,-1.0038,-1.0038,-1.012,-1.0549,-1.1655,-1.3159,-1.4823,-1.6844,-1.9016,-2.0513,-2.1322,-2.2283,-2.3047,-2.3454,-2.4392,-2.5137,-2.5475,-2.5706,-2.5764,-2.56,-2.536,-2.4902,-2.4235,-2.4312,-2.4469,-2.453,-2.3347,-2.1902,-2.0286,-1.8118,-1.6285,-1.4904,-1.396,-1.4063,-1.4358,-1.5121,-1.5662,-1.5832,-1.5927,-1.6021,-1.6021,-1.6021,-1.6109,-1.6292,-1.6393,-1.6407,-1.6501,-1.6588,-1.6494,-1.6312,-1.6218,-1.6116,-1.5927,-1.5825,-1.5825,-1.5825,-1.5825,-1.5825,-1.5927,-1.6305,-1.6972,-1.7613,-1.8164,-1.8156,-1.7978,-1.8788,-1.9513,-1.8603,-1.787,-1.7777,-1.787,-1.8241,-1.8519,-0.7521,-0.7591,-0.7857,-0.8143,-0.8488,-0.8,-0.8163,-0.8413,-0.8251,-0.8141,-0.8056,-0.8052,-0.8075,-0.8096,-0.8161,-0.8102,-0.8102,-0.8102,-0.8077,-0.8138,-0.8138,-0.8218,-0.8243,-0.8263,-0.8188,-0.8346,-0.8417,-0.8451,-0.8574,-0.8661,-0.7624,-0.6322,-0.7694,-0.7978,-0.8377,-0.8854,-0.9434,-1.0053,-1.0111,-1.0207,-1.0294,-1.0207,-1.0038,-1.0038,-1.012,-1.0804,-1.2504,-1.4072,-1.5854,-1.7887,-2.0227,-2.1646,-2.2237,-2.3198,-2.381,-2.4237,-2.4732,-2.5381,-2.5741,-2.5637,-2.5317,-2.5229,-2.5054,-2.4585,-2.3678,-2.4508,-2.4573,-2.3604,-2.2359,-2.0658,-1.8822,-1.6865,-1.4865,-1.3849,-1.3303,-1.3692,-1.4148,-1.4709,-1.5249,-1.5668,-1.5927,-1.6116,-1.6305,-1.64,-1.6386,-1.6567,-1.6676,-1.6777,-1.669,-1.6784,-1.6588,-1.6494,-1.6312,-1.6116,-1.5825,-1.5825,-1.5825,-1.5825,-1.5825,-1.5832,-1.5927,-1.6305,-1.669,-1.7261,-1.7815,-1.79,-1.7978,-1.8427,-1.8511,-1.7777,-1.7318,-1.7505,-1.7512,-1.7692,-1.7699,-0.7138,-0.7138,-0.7269,-0.7564,-0.791,-0.7808,-0.7854,-0.7947,-0.8029,-0.8101,-0.8087,-0.7986,-0.7957,-0.8063,-0.7973,-0.7957,-0.7897,-0.7935,-0.7947,-0.7999,-0.8073,-0.8222,-0.8229,-0.8312,-0.839,-0.8508,-0.8455,-0.8475,-0.8636,-0.8605,-0.7738,-0.7166,-0.7577,-0.8066,-0.8499,-0.9048,-0.9781,-1.0047,-1.013,-1.0125,-1.012,-1.012,-1.0038,-1.0038,-1.0636,-1.1322,-1.2674,-1.4968,-1.6738,-1.8676,-2.1005,-2.2175,-2.3021,-2.3978,-2.4478,-2.4838,-2.5232,-2.5602,-2.5793,-2.5616,-2.5393,-2.4814,-2.4694,-2.4377,-2.3362,-2.3691,-2.3489,-2.2519,-2.1154,-1.9304,-1.7744,-1.5492,-1.3478,-1.2783,-1.276,-1.3344,-1.3973,-1.4654,-1.5447,-1.6022,-1.6143,-1.6211,-1.6494,-1.6683,-1.6756,-1.6835,-1.6951,-1.6965,-1.6972,-1.6878,-1.6683,-1.6494,-1.6312,-1.6123,-1.5832,-1.5825,-1.5825,-1.5825,-1.5825,-1.5927,-1.5927,-1.6123,-1.6508,-1.6986,-1.7369,-1.7535,-1.7606,-1.7792,-1.7699,-1.7419,-1.7326,-1.7333,-1.7333,-1.7333,-1.7333,-0.6881,-0.6885,-0.6941,-0.7211,-0.7541,-0.7681,-0.7659,-0.7582,-0.7899,-0.8102,-0.8093,-0.7882,-0.789,-0.7927,-0.7795,-0.7718,-0.7748,-0.7676,-0.777,-0.7909,-0.8008,-0.8219,-0.8337,-0.8446,-0.8552,-0.8617,-0.8649,-0.8662,-0.8665,-0.8731,-0.8286,-0.7833,-0.7628,-0.8166,-0.829,-0.9309,-0.9753,-0.9972,-1.0045,-1.0081,-1.0062,-1.0038,-1.0038,-1.0057,-1.0537,-1.1456,-1.2905,-1.4986,-1.7129,-1.9144,-2.1188,-2.2839,-2.3774,-2.4462,-2.5052,-2.538,-2.5549,-2.5895,-2.5863,-2.5524,-2.5207,-2.465,-2.4201,-2.3996,-2.3602,-2.2932,-2.2625,-2.1853,-1.9903,-1.7896,-1.6443,-1.4325,-1.2699,-1.1983,-1.2817,-1.341,-1.4055,-1.4767,-1.5681,-1.6505,-1.649,-1.6573,-1.6714,-1.6904,-1.6899,-1.6972,-1.6958,-1.6965,-1.6777,-1.669,-1.6595,-1.6407,-1.6224,-1.6028,-1.5832,-1.5832,-1.5825,-1.5825,-1.5825,-1.5927,-1.6028,-1.6218,-1.6414,-1.6892,-1.7167,-1.7153,-1.7333,-1.7512,-1.7512,-1.7333,-1.7333,-1.7333,-1.7333,-1.7333,-1.7333,-0.6876,-0.6907,-0.7068,-0.7259,-0.7491,-0.7517,-0.7492,-0.7501,-0.7816,-0.8012,-0.8021,-0.7846,-0.777,-0.7799,-0.7638,-0.7561,-0.7585,-0.7545,-0.763,-0.7805,-0.8057,-0.8166,-0.83,-0.8471,-0.8637,-0.8779,-0.8796,-0.8758,-0.8842,-0.8991,-0.8926,-0.8946,-0.8721,-0.8498,-0.7745,-0.907,-0.9898,-1.0206,-1.0267,-1.0159,-1.0124,-1.0086,-1.0086,-1.0071,-1.0431,-1.1361,-1.2724,-1.5283,-1.7456,-1.9359,-2.2078,-2.3745,-2.4557,-2.5276,-2.5684,-2.5812,-2.5812,-2.5895,-2.5863,-2.5054,-2.4625,-2.4458,-2.4057,-2.3629,-2.3318,-2.2661,-2.1584,-2.0553,-1.8485,-1.6491,-1.488,-1.3346,-1.2111,-1.2143,-1.3007,-1.3903,-1.4665,-1.5534,-1.6546,-1.7066,-1.7043,-1.7022,-1.7138,-1.7244,-1.7006,-1.7029,-1.6994,-1.6878,-1.669,-1.6595,-1.6407,-1.6305,-1.6123,-1.6028,-1.5832,-1.5832,-1.5825,-1.5825,-1.5927,-1.6021,-1.6218,-1.6407,-1.6697,-1.6979,-1.716,-1.7239,-1.7239,-1.7333,-1.7333,-1.7333,-1.7333,-1.7333,-1.7333,-1.7333,-1.7333,-0.6548,-0.6568,-0.6751,-0.7003,-0.7229,-0.7304,-0.7308,-0.7277,-0.7393,-0.7605,-0.7702,-0.7638,-0.7561,-0.7561,-0.7561,-0.7488,-0.7521,-0.778,-0.7878,-0.7809,-0.8146,-0.828,-0.839,-0.8507,-0.8674,-0.8783,-0.8836,-0.8942,-0.8983,-0.9133,-0.9112,-0.9108,-0.9313,-0.9255,-0.9233,-0.9811,-1.0242,-1.0393,-1.0452,-1.0381,-1.0197,-1.0159,-1.0102,-1.0076,-1.0592,-1.1356,-1.2493,-1.5262,-1.7903,-1.9749,-2.2511,-2.4551,-2.5137,-2.583,-2.5874,-2.5895,-2.5895,-2.5895,-2.5681,-2.507,-2.447,-2.4172,-2.3966,-2.3371,-2.2641,-2.1997,-2.0685,-1.8953,-1.7108,-1.5251,-1.3632,-1.2558,-1.1914,-1.3044,-1.4039,-1.5001,-1.5952,-1.6742,-1.7597,-1.7629,-1.7661,-1.7591,-1.7576,-1.7246,-1.7091,-1.6929,-1.6887,-1.6651,-1.6421,-1.6319,-1.6224,-1.6021,-1.5927,-1.5832,-1.5838,-1.5899,-1.5912,-1.6001,-1.6062,-1.6218,-1.6407,-1.6697,-1.6878,-1.716,-1.7246,-1.7333,-1.7333,-1.7333,-1.7333,-1.7333,-1.7333,-1.7333,-1.7333,-1.7333,-1.7333,-0.6453,-0.6526,-0.6708,-0.6958,-0.7105,-0.7186,-0.722,-0.7218,-0.7317,-0.7387,-0.7468,-0.748,-0.748,-0.748,-0.7484,-0.7545,-0.7594,-0.7789,-0.804,-0.7959,-0.8272,-0.8434,-0.8515,-0.8597,-0.8824,-0.8926,-0.9019,-0.9112,-0.9307,-0.9295,-0.9303,-0.9344,-0.9481,-0.9665,-0.9884,-1.0152,-1.0391,-1.0632,-1.0669,-1.0584,-1.0442,-1.0353,-1.0277,-1.0365,-1.0736,-1.1352,-1.2704,-1.5109,-1.8184,-2.0023,-2.2291,-2.4802,-2.5341,-2.5808,-2.5863,-2.5895,-2.6052,-2.5884,-2.5492,-2.5489,-2.4638,-2.3348,-2.349,-2.2954,-2.1834,-2.081,-1.9266,-1.7586,-1.583,-1.457,-1.3208,-1.2205,-1.2687,-1.3851,-1.4972,-1.5952,-1.6851,-1.7755,-1.8259,-1.8278,-1.8171,-1.811,-1.7782,-1.7456,-1.7106,-1.6849,-1.6691,-1.645,-1.63,-1.6177,-1.6177,-1.5987,-1.5945,-1.6012,-1.6025,-1.6039,-1.6032,-1.6088,-1.6211,-1.6414,-1.6602,-1.6885,-1.7066,-1.7239,-1.7239,-1.7333,-1.7333,-1.7333,-1.7333,-1.7333,-1.7333,-1.7333,-1.7333,-1.7333,-1.7333,-0.653,-0.6696,-0.6883,-0.7058,-0.7204,-0.7224,-0.7322,-0.746,-0.7472,-0.7476,-0.748,-0.748,-0.748,-0.748,-0.748,-0.7577,-0.7707,-0.7768,-0.7975,-0.8166,-0.8308,-0.8491,-0.8662,-0.8775,-0.8938,-0.9181,-0.9315,-0.9324,-0.9579,-0.9539,-0.9547,-0.9579,-0.9755,-1.004,-1.0223,-1.0396,-1.0624,-1.0833,-1.0886,-1.0778,-1.0636,-1.0579,-1.0471,-1.0505,-1.0765,-1.1104,-1.2285,-1.4327,-1.6595,-1.885,-2.1409,-2.3378,-2.4762,-2.5655,-2.5808,-2.5979,-2.6207,-2.5768,-2.5326,-2.5419,-2.4299,-2.2746,-2.1832,-2.1646,-2.098,-1.9563,-1.8069,-1.6677,-1.5163,-1.4255,-1.3151,-1.3285,-1.3517,-1.4616,-1.5864,-1.682,-1.762,-1.8328,-1.8766,-1.8891,-1.879,-1.859,-1.7936,-1.7465,-1.7351,-1.7186,-1.7028,-1.6876,-1.6607,-1.6273,-1.6184,-1.6184,-1.6175,-1.633,-1.635,-1.633,-1.6449,-1.6505,-1.6415,-1.6508,-1.6798,-1.6979,-1.7153,-1.7239,-1.7333,-1.7333,-1.7333,-1.7333,-1.7333,-1.7333,-1.7333,-1.7333,-1.7333,-1.7333,-1.7333,-0.6712,-0.6958,-0.707,-0.7179,-0.724,-0.7358,-0.7374,-0.7317,-0.7419,-0.748,-0.748,-0.748,-0.748,-0.748,-0.7484,-0.7602,-0.7699,-0.7889,-0.8004,-0.8166,-0.8296,-0.845,-0.8613,-0.8783,-0.8966,-0.9145,-0.9303,-0.9429,-0.9583,-0.9624,-0.9624,-0.962,-0.9821,-1.0117,-1.031,-1.0605,-1.0751,-1.0914,-1.0983,-1.0967,-1.0853,-1.0801,-1.0669,-1.0627,-1.0645,-1.0959,-1.1857,-1.3505,-1.5581,-1.7594,-2.0649,-2.2926,-2.4026,-2.5199,-2.5895,-2.5895,-2.5706,-2.5359,-2.5094,-2.4669,-2.382,-2.2422,-2.1291,-2.0039,-1.9363,-1.8434,-1.7095,-1.5866,-1.4704,-1.3827,-1.335,-1.3456,-1.4138,-1.5468,-1.6477,-1.7322,-1.8131,-1.8809,-1.9266,-1.9237,-1.915,-1.87,-1.8154,-1.7956,-1.7818,-1.7544,-1.7372,-1.7313,-1.7106,-1.6662,-1.6456,-1.647,-1.6495,-1.6677,-1.6755,-1.6728,-1.6821,-1.6905,-1.6791,-1.6711,-1.6885,-1.7066,-1.7246,-1.7239,-1.7333,-1.7333,-1.7333,-1.7333,-1.7333,-1.7333,-1.7333,-1.7333,-1.7333,-1.7333,-1.7333,-0.6834,-0.7062,-0.7175,-0.7265,-0.7338,-0.7435,-0.7419,-0.7358,-0.7443,-0.748,-0.748,-0.748,-0.748,-0.748,-0.7492,-0.7577,-0.7832,-0.7856,-0.7951,-0.8219,-0.828,-0.8483,-0.8637,-0.8783,-0.8982,-0.9137,-0.9259,-0.9368,-0.9551,-0.9624,-0.9628,-0.9723,-0.9817,-0.9813,-1.001,-1.0212,-1.0507,-1.0694,-1.0974,-1.1113,-1.1057,-1.1,-1.0882,-1.0759,-1.0754,-1.0853,-1.0899,-1.2598,-1.408,-1.5661,-1.8552,-2.0838,-2.2349,-2.4094,-2.5147,-2.5158,-2.5126,-2.4563,-2.418,-2.4125,-2.3359,-2.2326,-2.111,-2.0205,-1.895,-1.7956,-1.6596,-1.5261,-1.437,-1.3628,-1.3421,-1.3507,-1.4806,-1.6214,-1.6982,-1.7842,-1.8617,-1.9295,-1.9477,-1.9469,-1.9194,-1.8891,-1.8617,-1.8534,-1.8338,-1.797,-1.7911,-1.7929,-1.7696,-1.7232,-1.7155,-1.7057,-1.7096,-1.7248,-1.7207,-1.7244,-1.7211,-1.7225,-1.7003,-1.6956,-1.7102,-1.7174,-1.7283,-1.7261,-1.7333,-1.734,-1.7347,-1.7333,-1.7333,-1.7347,-1.7377,-1.7369,-1.7362,-1.7333,-1.7333,-0.6928,-0.7244,-0.7248,-0.7342,-0.7544,-0.7561,-0.7557,-0.7557,-0.7557,-0.7557,-0.7557,-0.748,-0.748,-0.748,-0.7484,-0.759,-0.7774,-0.7815,-0.7996,-0.8268,-0.832,-0.8496,-0.8792,-0.8857,-0.9056,-0.9198,-0.9287,-0.934,-0.9527,-0.9612,-0.9727,-0.9916,-0.9719,-0.9715,-1.001,-1.031,-1.0507,-1.0609,-1.0998,-1.1165,-1.1175,-1.1156,-1.1118,-1.0986,-1.0927,-1.0803,-1.0127,-1.0734,-1.1905,-1.3273,-1.521,-1.7728,-2.0312,-2.1766,-2.2746,-2.3349,-2.3057,-2.2861,-2.2672,-2.2904,-2.2759,-2.1897,-2.1052,-1.9813,-1.8372,-1.7112,-1.579,-1.4733,-1.3789,-1.2906,-1.2559,-1.3086,-1.4251,-1.5695,-1.6933,-1.7943,-1.8971,-1.9455,-1.9455,-1.9433,-1.9269,-1.8981,-1.8862,-1.8646,-1.8617,-1.8398,-1.843,-1.8497,-1.8368,-1.7981,-1.7789,-1.7682,-1.7645,-1.767,-1.7834,-1.7844,-1.7733,-1.7576,-1.7316,-1.7246,-1.7421,-1.7385,-1.7428,-1.7465,-1.7501,-1.7391,-1.7362,-1.7347,-1.7377,-1.7472,-1.7479,-1.7435,-1.7421,-1.7457,-1.7355,-0.722,-0.7419,-0.7419,-0.7528,-0.7718,-0.7723,-0.7799,-0.7949,-0.7949,-0.7791,-0.7561,-0.748,-0.7557,-0.7561,-0.7561,-0.7655,-0.777,-0.7853,-0.8129,-0.8267,-0.8346,-0.857,-0.8939,-0.8984,-0.9116,-0.9275,-0.9332,-0.9319,-0.9413,-0.9527,-0.9719,-1.001,-0.9813,-1.001,-1.031,-1.0609,-1.0708,-1.0609,-1.1002,-1.1194,-1.1194,-1.1194,-1.1156,-1.1127,-1.1077,-1.0685,-1.024,-1.0164,-1.0373,-1.0905,-1.2874,-1.5465,-1.8411,-1.8265,-1.8688,-1.9304,-1.952,-1.945,-1.9805,-2.0301,-2.0404,-2.0127,-1.9184,-1.8139,-1.7015,-1.6088,-1.513,-1.4135,-1.3113,-1.2191,-1.1858,-1.2674,-1.3581,-1.519,-1.6687,-1.7948,-1.9208,-1.9418,-1.9418,-1.9374,-1.9323,-1.9197,-1.8974,-1.8952,-1.8923,-1.8894,-1.8991,-1.9073,-1.9051,-1.8767,-1.8506,-1.8361,-1.7978,-1.8062,-1.8263,-1.8273,-1.8117,-1.7915,-1.7652,-1.7632,-1.7669,-1.8058,-1.835,-1.789,-1.7699,-1.7662,-1.7544,-1.7362,-1.7413,-1.7611,-1.7713,-1.7735,-1.7801,-1.7852,-1.7604,-0.7401,-0.7472,-0.7561,-0.7718,-0.7799,-0.7876,-0.7953,-0.8102,-0.8102,-0.7949,-0.7791,-0.7791,-0.7795,-0.7795,-0.7791,-0.7769,-0.789,-0.7947,-0.8163,-0.8292,-0.8552,-0.8566,-0.873,-0.9133,-0.9099,-0.9169,-0.9403,-0.9436,-0.9299,-0.9497,-0.9693,-0.9922,-1.0049,-1.0113,-1.0413,-1.0609,-1.0703,-1.0609,-1.1002,-1.1198,-1.1194,-1.1194,-1.1194,-1.1194,-1.1096,-1.0703,-1.0109,-0.9813,-0.9706,-1.0458,-1.2448,-1.4527,-1.6665,-1.7099,-1.6729,-1.64,-1.5932,-1.539,-1.5611,-1.606,-1.6968,-1.6826,-1.651,-1.5261,-1.7291,-1.6231,-1.3461,-1.2299,-1.1558,-1.07,-1.1257,-1.1946,-1.3044,-1.444,-1.5934,-1.7311,-1.8478,-1.9338,-1.933,-1.9323,-1.9286,-1.9286,-1.9175,-1.9175,-1.9146,-1.9146,-1.9272,-1.9272,-1.9286,-1.9316,-1.9095,-1.889,-1.8568,-1.8568,-1.8779,-1.8723,-1.8441,-1.8222,-1.8013,-1.8372,-1.8743,-1.9216,-1.9407,-1.8755,-1.8296,-1.811,-1.7991,-1.7691,-1.7743,-1.7984,-1.805,-1.8079,-1.8152,-1.8393,-1.8141,-0.7944,-0.7931,-0.8097,-0.8178,-0.8178,-0.8403,-0.8551,-0.8556,-0.8556,-0.8551,-0.8627,-0.8632,-0.8412,-0.8137,-0.8137,-0.8154,-0.8229,-0.8304,-0.841,-0.8739,-0.8804,-0.9256,-0.9416,-0.9339,-0.9653,-0.9575,-0.9453,-0.9313,-0.9141,-0.939,-0.9602,-0.9891,-0.9892,-0.9616,-1.0019,-1.0216,-1.0408,-1.0605,-1.09,-1.1194,-1.1194,-1.1194,-1.1194,-1.1194,-1.1096,-1.0596,-1.0006,-0.9608,-0.9414,-1.0489,-1.2242,-1.4244,-1.5619,-1.63,-1.5912,-1.5347,-1.3939,-1.201,-1.0079,-1.033,-1.192,-1.2881,-1.2656,-1.3286,-1.5053,-1.4169,-1.1276,-1.0647,-0.9904,-1.0017,-1.057,-1.1232,-1.2422,-1.4051,-1.5435,-1.6817,-1.8101,-1.9168,-1.9272,-1.9272,-1.9272,-1.9272,-1.9272,-1.9272,-1.9272,-1.9272,-1.9272,-1.9272,-1.9286,-1.9323,-1.9294,-1.9124,-1.8948,-1.9095,-1.9264,-1.9133,-1.8824,-1.8762,-1.861,-1.9169,-1.9665,-2.0045,-2.0047,-1.9431,-1.9057,-1.8654,-1.8282,-1.7991,-1.8174,-1.8442,-1.8859,-1.8988,-1.9208,-1.93,-1.8988,-0.9916,-0.9965,-0.9965,-1.004,-1.019,-1.019,-1.0346,-1.0513,-1.0438,-1.0507,-1.0363,-1.0299,-0.984,-0.84,-0.8326,-0.8528,-0.9035,-0.899,-0.9548,-1.0153,-1.005,-1.0502,-1.0781,-1.0821,-1.1177,-1.0803,-1.0,-0.9325,-0.955,-0.9573,-0.9715,-1.0219,-1.0351,-1.0408,-1.0801,-1.09,-1.09,-1.0998,-1.1091,-1.1389,-1.1389,-1.1292,-1.1194,-1.1194,-1.1194,-1.0605,-1.0109,-0.971,-0.9497,-1.0194,-1.2046,-1.4178,-1.5484,-1.6157,-1.587,-1.4999,-1.354,-0.9508,-0.7687,-0.7698,-0.9318,-0.7256,-0.6958,-0.6958,-0.8191,-0.8513,-0.7433,-0.8813,-0.8605,-0.9361,-0.9911,-1.0241,-1.1328,-1.3717,-1.5654,-1.7035,-1.8415,-1.8848,-1.9063,-1.9168,-1.9272,-1.9272,-1.9272,-1.9272,-1.9272,-1.9272,-1.9272,-1.9279,-1.9286,-1.933,-1.9396,-1.9338,-1.9294,-1.9272,-1.9264,-1.9265,-1.9115,-1.9089,-1.9399,-2.0327,-2.0802,-2.0672,-2.052,-1.9981,-1.9305,-1.8843,-1.8537,-1.8654,-1.888,-1.9222,-1.9752,-2.0106,-2.034,-2.054,-2.0416]},{"header":{"parameterUnit":"m.s-1","parameterCategory":1,"la1":31.0,"la2":29.5877,"lo1":-88.7671,"lo2":-86.6584,"dy":0.0162,"dx":0.0185,"nx":115,"ny":88,"refTime":"2023-06-22T12:00:00:Z","depth":0,"parameterNumber":3,"parameterNumberName":"V-component_of_WINDS"},"data":[0.0,0.0,0.0,0.0,0.0,0.0,0.0,0.0,0.0,0.0,0.0,0.0,0.0,0.0,0.0,0.0,0.0,0.0,0.0,0.0,0.0,0.0,0.0,0.0,0.0,0.0,0.0,0.0,0.0,0.0,0.0,0.0,0.0,0.0,0.0,0.0,0.0,0.0,0.0,0.0,0.0,0.0,0.0,0.0,0.0,0.0,0.0,0.0,0.0,0.0,0.0,0.0,0.0,0.0,0.0,0.0,0.0,0.0,0.0,0.0,0.0,0.0,0.0,0.0,0.0,0.0,0.0,0.0,0.0,0.0,0.0,0.0,0.0,0.0,0.0,0.0,0.0,0.0,0.0,0.0,0.0,0.0,0.0,0.0,0.0,0.0,0.0,0.0,0.0,0.0,0.0,0.0,0.0,0.0,0.0,0.0,0.0,0.0,0.0,0.0,0.0,0.0,0.0,0.0,0.0,0.0,0.0,0.0,0.0,0.0,0.0,0.0,0.0,0.0,0.0,0.0,0.0,0.0,0.0,0.0,0.0,0.0,0.0,0.0,0.0,0.0,0.0,0.0,0.0,0.0,0.0,0.0,0.0,0.0,0.0,0.0,0.0,0.0,0.0,0.0,0.0,0.0,0.0,0.0,0.0,0.0,0.0,0.0,0.0,0.0,0.0,0.0,0.0,0.0,0.0,0.0,0.0,0.0,0.0,0.0,0.0,0.0,0.0,0.0,0.0,0.0,0.0,0.0,0.0,0.0,0.0,0.0,0.0,0.0,0.0,0.0,0.0,0.0,0.0,0.0,0.0,0.0,0.0,0.0,0.0,0.0,0.0,0.0,0.0,0.0,0.0,0.0,0.0,0.0,0.0,0.0,0.0,0.0,0.0,0.0,0.0,0.0,0.0,0.0,0.0,0.0,0.0,0.0,0.0,0.0,0.0,0.0,0.0,0.0,0.0,0.0,0.0,0.0,0.0,0.0,0.0,0.0,0.0,0.0,0.0,0.0,0.0,0.0,0.0,0.0,0.0,0.0,0.0,0.0,0.0,0.0,0.0,0.0,0.0,0.0,0.0,0.0,0.0,0.0,0.0,0.0,0.0,0.0,0.0,0.0,0.0,0.0,0.0,0.0,0.0,0.0,0.0,0.0,0.0,0.0,0.0,0.0,0.0,0.0,0.0,0.0,0.0,0.0,0.0,0.0,0.0,0.0,0.0,0.0,0.0,0.0,0.0,0.0,0.0,0.0,0.0,0.0,0.0,0.0,0.0,0.0,0.0,0.0,0.0,0.0,0.0,0.0,0.0,0.0,0.0,0.0,0.0,0.0,0.0,0.0,0.0,0.0,0.0,0.0,0.0,0.0,0.0,0.0,0.0,0.0,0.0,0.0,0.0,0.0,0.0,0.0,0.0,0.0,0.0,0.0,0.0,0.0,0.0,0.0,0.0,0.0,0.0,0.0,0.0,0.0,0.0,0.0,0.0,0.0,0.0,0.0,0.0,0.0,0.0,0.0,0.0,0.0,0.0,0.0,0.0,0.0,0.0,0.0,0.0,0.0,0.0,0.0,0.0,0.0,0.0,0.0,0.0,0.0,0.0,0.0,0.0,0.0,0.0,0.0,0.0,0.0,0.0,0.0,0.0,0.0,0.0,0.0,0.0,0.0,0.0,0.0,0.0,0.0,0.0,0.0,0.0,0.0,0.0,0.0,0.0,0.0,0.0,0.0,0.0,0.0,0.0,0.0,0.0,0.0,0.0,0.0,0.0,0.0,0.0,0.0,0.0,0.0,0.0,0.0,0.0,0.0,0.0,0.0,0.0,0.0,0.0,0.0,0.0,0.0,0.0,0.0,0.0,0.0,0.0,0.0,0.0,0.0,0.0,0.0,0.0,0.0,0.0,0.0,0.0,0.0,0.0,0.0,0.0,0.0,0.0,0.0,0.0,0.0,0.0,0.0,0.0,0.0,0.0,0.0,0.0,0.0,0.0,0.0,0.0,0.0,0.0,0.0,0.0,0.0,0.0,0.0,0.0,0.0,0.0,0.0,0.0,0.0,0.0,0.0,0.0,0.0,0.0,0.0,0.0,0.0,0.0,0.0,0.0,0.0,0.0,0.0,0.0,0.0,0.0,0.0,0.0,0.0,0.0,0.0,0.0,0.0,0.0,0.0,0.0,0.0,0.0,0.0,0.0,0.0,0.0,0.0,0.0,0.0,0.0,0.0,0.0,0.0,0.0,0.0,0.0,0.0,0.0,0.0,0.0,0.0,0.0,0.0,0.0,0.0,0.0,0.0,0.0,0.0,0.0,0.0,0.0,0.0,0.0,0.0,0.0,0.0,0.0,0.0,0.0,0.0,0.0,0.0,0.0,0.0,0.0,0.0,0.0,0.0,0.0,0.0,0.0,0.0,0.0,0.0,0.0,0.0,0.0,0.0,0.0,0.0,0.0,0.0,0.0,0.0,0.0,0.0,0.0,0.0,0.0,0.0,0.0,0.0,0.0,0.0,0.0,0.0,0.0,0.0,0.0,0.0,0.0,0.0,0.0,0.0,0.0,0.0,0.0,0.0,0.0,0.0,0.0,0.0,0.0,0.0,0.0,0.0,0.0,0.0,0.0,0.0,0.0,0.0,0.0,0.0,0.0,0.0,0.0,0.0,0.0,0.0,0.0,0.0,0.0,0.0,0.0,0.0,0.0,0.0,0.0,0.0,0.0,0.0,0.0,0.0,0.0,0.0,0.0,0.0,0.0,0.0,0.0,0.0,0.0,0.0,0.0,0.0,0.0,0.0,0.0,0.0,0.0,0.0,0.0,0.0,0.0,0.0,0.0,0.0,0.0,0.0,0.0,0.0,0.0,0.0,0.0,0.0,0.0,0.0,0.0,0.0,0.0,0.0,0.0,0.0,0.0,0.0,0.0,0.0,0.0,0.0,0.0,0.0,0.0,0.0,0.0,0.0,0.0,0.0,0.0,0.0,0.0,0.0,0.0,0.0,0.0,0.0,0.0,0.0,0.0,0.0,0.0,0.0,0.0,0.0,0.0,0.0,0.0,0.0,0.0,0.0,0.0,0.0,0.0,0.0,0.0,0.0,0.0,0.0,0.0,0.0,0.0,0.0,0.0,0.0,0.0,0.0,0.0,0.0,0.0,0.0,0.0,0.0,0.0,0.0,0.0,0.0,0.0,0.0,0.0,0.0,0.0,0.0,0.0,0.0,0.0,0.0,0.0,0.0,0.0,0.0,0.0,0.0,0.0,0.0,0.0,0.0,0.0,0.0,0.0,0.0,0.0,0.0,0.0,0.0,0.0,0.0,0.0,0.0,0.0,0.0,0.0,0.0,0.0,0.0,0.0,0.0,0.0,0.0,0.0,0.0,0.0,0.0,0.0,0.0,0.0,0.0,0.0,0.0,0.0,0.0,0.0,0.0,0.0,0.0,0.0,0.0,0.0,0.0,0.0,0.0,0.0,0.0,0.0,0.0,0.0,0.0,0.0,0.0,0.0,0.0,0.0,0.0,0.0,0.0,0.0,0.0,0.0,0.0,0.0,0.0,0.0,0.0,0.0,0.0,0.0,0.0,0.0,0.0,0.0,0.0,0.0,0.0,0.0,0.0,0.0,0.0,0.0,0.0,0.0,0.0,0.0,0.0,0.0,0.0,0.0,0.0,0.0,0.0,0.0,0.0,0.0,0.0,0.0,0.0,0.0,0.0,0.0,0.0,0.0,0.0,0.0,0.0,0.0,0.0,0.0,0.0,0.0,0.0,0.0,0.0,0.0,0.0,0.0,0.0,0.0,0.0,0.0,0.0,0.0,0.0,0.0,0.0,0.0,0.0,0.0,0.0,0.0,0.0,0.0,0.0,0.0,0.0,0.0,0.0,0.0,0.0,0.0,0.0,0.0,0.0,0.0,0.0,0.0,0.0,0.0,0.0,0.0,0.0,0.0,0.0,0.0,0.0,0.0,0.0,0.0,0.0,0.0,0.0,0.0,0.0,0.0,0.0,0.0,0.0,0.0,0.0,0.0,0.0,0.0,0.0,0.0,0.0,0.0,0.0,0.0,0.0,0.0,0.0,0.0,0.0,0.0,0.0,0.0,0.0,0.0,0.0,0.0,0.0,0.0,0.0,0.0,0.0,0.0,0.0,0.0,0.0,0.0,0.0,0.0,0.0,0.0,0.0,0.0,0.0,0.0,0.0,0.0,0.0,0.0,0.0,0.0,0.0,0.0,0.0,0.0,0.0,0.0,0.0,0.0,0.0,0.0,0.0,0.0,0.0,0.0,0.0,-2.5182,0.0,0.0,0.0,0.0,0.0,0.0,0.0,0.0,0.0,0.0,0.0,0.0,0.0,0.0,0.0,0.0,0.0,0.0,0.0,0.0,0.0,0.0,0.0,0.0,0.0,0.0,0.0,0.0,0.0,0.0,0.0,0.0,0.0,0.0,0.0,0.0,0.0,0.0,0.0,0.0,0.0,0.0,0.0,0.0,0.0,0.0,0.0,0.0,0.0,0.0,0.0,0.0,0.0,0.0,0.0,0.0,0.0,0.0,0.0,0.0,0.0,0.0,0.0,0.0,0.0,0.0,0.0,0.0,0.0,0.0,0.0,0.0,0.0,0.0,0.0,0.0,0.0,0.0,0.0,0.0,0.0,0.0,0.0,0.0,0.0,0.0,0.0,0.0,0.0,0.0,0.0,0.0,0.0,0.0,0.0,0.0,0.0,0.0,0.0,0.0,0.0,0.0,0.0,0.0,0.0,0.0,0.0,0.0,0.0,0.0,-2.6159,-2.5398,-2.6269,-2.6353,-2.5471,0.0,0.0,0.0,0.0,0.0,0.0,0.0,0.0,0.0,0.0,0.0,0.0,0.0,0.0,0.0,0.0,0.0,0.0,0.0,0.0,0.0,0.0,0.0,0.0,0.0,0.0,0.0,0.0,0.0,0.0,0.0,0.0,0.0,0.0,0.0,0.0,0.0,0.0,0.0,0.0,0.0,0.0,0.0,0.0,0.0,0.0,0.0,0.0,0.0,0.0,0.0,0.0,0.0,0.0,0.0,0.0,0.0,0.0,0.0,0.0,0.0,0.0,0.0,0.0,0.0,0.0,0.0,0.0,0.0,0.0,0.0,0.0,0.0,0.0,0.0,0.0,0.0,0.0,0.0,0.0,0.0,0.0,0.0,0.0,0.0,0.0,0.0,0.0,0.0,0.0,0.0,0.0,0.0,0.0,0.0,0.0,0.0,0.0,0.0,0.0,0.0,0.0,0.0,0.0,0.0,0.0,0.0,0.0,0.0,0.0,0.0,0.0,-2.6491,-2.6603,-2.594,0.0,0.0,0.0,0.0,0.0,0.0,0.0,0.0,0.0,0.0,0.0,0.0,0.0,0.0,0.0,0.0,0.0,0.0,0.0,0.0,0.0,0.0,0.0,0.0,0.0,0.0,0.0,0.0,0.0,0.0,0.0,0.0,0.0,0.0,0.0,0.0,0.0,0.0,0.0,0.0,0.0,0.0,0.0,0.0,0.0,0.0,0.0,0.0,0.0,0.0,0.0,0.0,0.0,0.0,0.0,0.0,0.0,0.0,0.0,0.0,0.0,0.0,0.0,0.0,0.0,0.0,0.0,0.0,0.0,0.0,0.0,0.0,0.0,0.0,0.0,0.0,0.0,0.0,0.0,0.0,0.0,0.0,0.0,0.0,0.0,0.0,0.0,0.0,0.0,0.0,0.0,0.0,0.0,0.0,0.0,0.0,0.0,0.0,0.0,0.0,0.0,0.0,0.0,0.0,0.0,0.0,0.0,0.0,0.0,0.0,-2.6034,-2.6739,-2.6908,0.0,-2.675,0.0,0.0,0.0,0.0,0.0,0.0,0.0,0.0,0.0,0.0,0.0,0.0,0.0,0.0,0.0,0.0,0.0,0.0,0.0,0.0,0.0,0.0,0.0,0.0,0.0,0.0,0.0,0.0,0.0,0.0,0.0,0.0,0.0,0.0,0.0,0.0,0.0,0.0,0.0,0.0,0.0,0.0,0.0,0.0,0.0,0.0,0.0,0.0,0.0,0.0,0.0,0.0,0.0,0.0,0.0,0.0,0.0,0.0,0.0,0.0,0.0,0.0,0.0,0.0,0.0,0.0,0.0,0.0,0.0,0.0,0.0,0.0,0.0,0.0,0.0,0.0,0.0,0.0,0.0,0.0,0.0,0.0,0.0,0.0,0.0,0.0,0.0,0.0,0.0,0.0,0.0,0.0,0.0,0.0,0.0,0.0,0.0,0.0,0.0,0.0,0.0,0.0,0.0,0.0,0.0,0.0,0.0,0.0,0.0,0.0,-2.5928,-2.6764,-2.6812,-2.6591,0.0,0.0,0.0,0.0,0.0,0.0,0.0,0.0,0.0,0.0,0.0,0.0,0.0,0.0,0.0,0.0,0.0,0.0,0.0,0.0,0.0,0.0,0.0,0.0,0.0,0.0,0.0,0.0,0.0,0.0,0.0,0.0,0.0,0.0,0.0,0.0,0.0,0.0,0.0,0.0,0.0,0.0,0.0,0.0,0.0,0.0,0.0,0.0,0.0,0.0,0.0,0.0,0.0,0.0,0.0,0.0,0.0,0.0,0.0,0.0,0.0,0.0,0.0,0.0,0.0,0.0,0.0,0.0,0.0,0.0,0.0,0.0,0.0,0.0,0.0,0.0,0.0,0.0,0.0,0.0,0.0,0.0,0.0,0.0,0.0,0.0,0.0,0.0,0.0,0.0,0.0,0.0,0.0,0.0,0.0,0.0,0.0,0.0,0.0,0.0,0.0,0.0,0.0,0.0,0.0,0.0,0.0,0.0,0.0,0.0,-2.5848,-2.6086,-2.6795,-2.6404,-2.6087,-2.5871,0.0,0.0,0.0,0.0,0.0,0.0,0.0,0.0,0.0,0.0,0.0,0.0,0.0,0.0,0.0,0.0,0.0,0.0,0.0,0.0,0.0,0.0,0.0,0.0,0.0,0.0,0.0,0.0,0.0,0.0,0.0,0.0,0.0,0.0,0.0,0.0,0.0,0.0,0.0,0.0,0.0,0.0,0.0,0.0,0.0,0.0,0.0,0.0,0.0,0.0,0.0,0.0,0.0,0.0,0.0,0.0,0.0,0.0,0.0,0.0,0.0,0.0,0.0,0.0,0.0,0.0,0.0,0.0,0.0,0.0,0.0,0.0,0.0,0.0,0.0,0.0,0.0,0.0,0.0,0.0,0.0,0.0,0.0,0.0,0.0,0.0,0.0,0.0,0.0,0.0,0.0,0.0,0.0,0.0,0.0,0.0,0.0,0.0,0.0,0.0,0.0,0.0,0.0,0.0,0.0,0.0,0.0,0.0,-2.7452,-2.6678,-2.6579,-2.7165,-2.5716,-2.5412,0.0,0.0,0.0,0.0,0.0,0.0,0.0,0.0,0.0,0.0,0.0,0.0,0.0,0.0,0.0,0.0,0.0,0.0,0.0,0.0,0.0,0.0,0.0,0.0,0.0,0.0,0.0,0.0,0.0,0.0,0.0,0.0,0.0,0.0,0.0,0.0,0.0,0.0,0.0,0.0,0.0,0.0,0.0,0.0,0.0,0.0,0.0,0.0,0.0,0.0,0.0,0.0,0.0,0.0,0.0,0.0,0.0,0.0,0.0,0.0,0.0,0.0,0.0,0.0,0.0,0.0,0.0,0.0,0.0,0.0,0.0,0.0,0.0,0.0,0.0,0.0,0.0,0.0,0.0,0.0,0.0,0.0,0.0,0.0,0.0,0.0,0.0,0.0,0.0,0.0,0.0,0.0,0.0,0.0,0.0,0.0,0.0,0.0,0.0,0.0,0.0,0.0,0.0,0.0,0.0,0.0,0.0,0.0,0.0,-2.5457,-2.525,-2.5317,-2.5596,-2.4839,-2.4757,0.0,0.0,0.0,0.0,0.0,0.0,0.0,0.0,0.0,0.0,0.0,0.0,0.0,0.0,0.0,0.0,0.0,0.0,0.0,0.0,0.0,0.0,0.0,0.0,0.0,0.0,0.0,0.0,0.0,0.0,0.0,0.0,0.0,0.0,0.0,0.0,0.0,0.0,0.0,0.0,0.0,0.0,0.0,0.0,0.0,0.0,0.0,0.0,0.0,0.0,0.0,0.0,0.0,0.0,0.0,0.0,0.0,0.0,0.0,0.0,0.0,0.0,0.0,0.0,0.0,0.0,0.0,0.0,0.0,0.0,0.0,0.0,0.0,0.0,0.0,0.0,0.0,0.0,0.0,0.0,0.0,0.0,0.0,0.0,0.0,0.0,0.0,0.0,0.0,0.0,0.0,0.0,0.0,0.0,0.0,0.0,0.0,0.0,0.0,0.0,0.0,0.0,0.0,0.0,0.0,0.0,0.0,0.0,0.0,-2.4067,0.0,-2.4318,-2.4387,-2.4144,-2.4273,0.0,0.0,0.0,0.0,0.0,0.0,0.0,0.0,0.0,0.0,0.0,0.0,0.0,0.0,0.0,0.0,0.0,0.0,0.0,0.0,0.0,0.0,0.0,0.0,0.0,0.0,0.0,0.0,0.0,0.0,0.0,0.0,0.0,0.0,0.0,0.0,0.0,0.0,0.0,0.0,0.0,0.0,0.0,0.0,0.0,0.0,0.0,0.0,0.0,0.0,0.0,0.0,0.0,0.0,0.0,0.0,0.0,0.0,0.0,0.0,0.0,0.0,0.0,0.0,0.0,0.0,0.0,0.0,0.0,0.0,0.0,0.0,0.0,0.0,0.0,0.0,0.0,0.0,0.0,0.0,0.0,0.0,0.0,0.0,0.0,0.0,0.0,0.0,0.0,0.0,0.0,0.0,0.0,0.0,0.0,0.0,0.0,0.0,0.0,0.0,0.0,0.0,0.0,0.0,0.0,0.0,0.0,0.0,-2.4312,-2.3678,-2.3726,-2.3701,-2.3709,-2.3631,-2.3913,0.0,0.0,0.0,0.0,0.0,0.0,0.0,0.0,0.0,0.0,0.0,0.0,0.0,0.0,0.0,0.0,0.0,0.0,0.0,0.0,0.0,0.0,0.0,0.0,0.0,0.0,0.0,0.0,0.0,0.0,0.0,0.0,0.0,0.0,0.0,0.0,0.0,0.0,0.0,0.0,0.0,0.0,0.0,0.0,0.0,0.0,0.0,0.0,0.0,0.0,0.0,0.0,0.0,0.0,0.0,0.0,0.0,0.0,0.0,0.0,0.0,0.0,0.0,0.0,0.0,0.0,0.0,0.0,0.0,0.0,0.0,0.0,0.0,0.0,0.0,0.0,0.0,0.0,0.0,0.0,0.0,0.0,0.0,0.0,0.0,0.0,0.0,0.0,0.0,0.0,0.0,0.0,0.0,0.0,0.0,0.0,0.0,0.0,0.0,0.0,0.0,0.0,0.0,0.0,0.0,0.0,0.0,0.0,0.0,-2.0862,-2.0722,-2.1655,-2.3687,-2.3024,-2.3316,0.0,0.0,0.0,0.0,0.0,0.0,0.0,0.0,0.0,0.0,0.0,0.0,0.0,0.0,0.0,0.0,0.0,0.0,0.0,0.0,0.0,0.0,0.0,0.0,0.0,0.0,0.0,0.0,0.0,0.0,0.0,0.0,0.0,0.0,0.0,0.0,0.0,0.0,0.0,0.0,0.0,0.0,0.0,0.0,0.0,0.0,0.0,0.0,0.0,0.0,0.0,0.0,0.0,0.0,0.0,0.0,0.0,0.0,0.0,0.0,0.0,0.0,0.0,0.0,0.0,0.0,0.0,0.0,0.0,0.0,0.0,0.0,0.0,0.0,0.0,0.0,0.0,0.0,0.0,0.0,0.0,0.0,0.0,0.0,0.0,0.0,0.0,0.0,0.0,0.0,0.0,0.0,0.0,0.0,0.0,0.0,0.0,0.0,0.0,0.0,0.0,0.0,0.0,0.0,0.0,0.0,0.0,0.0,0.0,-1.7998,-1.889,-2.0579,-2.3035,-2.2869,-2.3338,-2.4629,0.0,0.0,0.0,0.0,0.0,0.0,0.0,0.0,0.0,0.0,0.0,0.0,0.0,0.0,0.0,0.0,0.0,0.0,0.0,0.0,0.0,0.0,0.0,0.0,0.0,0.0,0.0,0.0,0.0,0.0,0.0,0.0,0.0,0.0,0.0,0.0,0.0,0.0,0.0,0.0,0.0,0.0,0.0,0.0,0.0,0.0,0.0,0.0,0.0,0.0,0.0,0.0,0.0,0.0,0.0,0.0,0.0,0.0,0.0,0.0,0.0,0.0,0.0,0.0,0.0,0.0,0.0,0.0,0.0,0.0,0.0,0.0,0.0,0.0,0.0,0.0,0.0,0.0,0.0,0.0,0.0,0.0,0.0,0.0,0.0,0.0,0.0,0.0,0.0,0.0,0.0,0.0,0.0,0.0,0.0,0.0,0.0,0.0,0.0,0.0,0.0,0.0,0.0,0.0,0.0,0.0,0.0,0.0,-1.5348,-1.8247,-2.0452,-2.1945,-2.3219,-2.3939,0.0,0.0,0.0,0.0,0.0,0.0,0.0,0.0,0.0,0.0,0.0,0.0,0.0,0.0,0.0,0.0,0.0,0.0,0.0,0.0,0.0,0.0,0.0,0.0,0.0,0.0,0.0,0.0,0.0,0.0,0.0,0.0,0.0,0.0,0.0,0.0,0.0,0.0,0.0,0.0,0.0,0.0,0.0,0.0,0.0,0.0,0.0,0.0,0.0,0.0,0.0,0.0,0.0,0.0,0.0,0.0,0.0,0.0,0.0,0.0,0.0,0.0,0.0,0.0,0.0,0.0,0.0,0.0,0.0,0.0,0.0,0.0,0.0,0.0,0.0,0.0,0.0,0.0,0.0,0.0,0.0,0.0,0.0,0.0,0.0,0.0,0.0,0.0,0.0,0.0,0.0,0.0,0.0,0.0,0.0,0.0,0.0,0.0,0.0,0.0,0.0,0.0,0.0,0.0,0.0,0.0,0.0,0.0,0.0,-1.6065,-1.8967,-2.1515,-2.3576,-2.4216,-2.4877,0.0,0.0,0.0,0.0,0.0,0.0,0.0,0.0,0.0,0.0,0.0,0.0,0.0,0.0,0.0,0.0,0.0,0.0,0.0,0.0,0.0,0.0,0.0,0.0,0.0,0.0,0.0,0.0,0.0,0.0,0.0,0.0,0.0,0.0,0.0,0.0,0.0,0.0,0.0,0.0,0.0,0.0,0.0,0.0,0.0,0.0,0.0,0.0,0.0,0.0,0.0,0.0,0.0,0.0,0.0,0.0,0.0,0.0,0.0,0.0,0.0,0.0,0.0,0.0,0.0,0.0,0.0,0.0,0.0,0.0,0.0,0.0,0.0,0.0,0.0,0.0,0.0,0.0,0.0,0.0,0.0,0.0,0.0,0.0,0.0,0.0,0.0,0.0,0.0,0.0,0.0,0.0,0.0,0.0,0.0,0.0,0.0,0.0,0.0,0.0,0.0,0.0,0.0,0.0,0.0,0.0,0.0,0.0,-1.4642,-1.5737,-2.028,-2.3388,-2.4765,-2.5341,-2.5708,0.0,0.0,0.0,0.0,0.0,0.0,0.0,0.0,0.0,0.0,0.0,0.0,0.0,0.0,0.0,0.0,0.0,0.0,0.0,0.0,0.0,0.0,0.0,0.0,0.0,0.0,0.0,0.0,0.0,0.0,0.0,0.0,0.0,0.0,0.0,0.0,0.0,0.0,0.0,0.0,0.0,0.0,0.0,0.0,0.0,0.0,0.0,0.0,0.0,0.0,0.0,0.0,0.0,0.0,0.0,0.0,0.0,0.0,0.0,0.0,0.0,0.0,0.0,0.0,0.0,0.0,0.0,0.0,0.0,0.0,0.0,0.0,0.0,0.0,0.0,0.0,0.0,0.0,0.0,0.0,0.0,0.0,0.0,0.0,0.0,0.0,0.0,0.0,0.0,0.0,0.0,0.0,0.0,0.0,0.0,0.0,0.0,0.0,0.0,0.0,0.0,0.0,0.0,0.0,0.0,0.0,0.0,0.0,-1.5035,-1.5343,-2.1732,-2.5278,-2.5587,-2.6346,-2.6357,0.0,0.0,0.0,0.0,0.0,0.0,0.0,0.0,0.0,0.0,0.0,0.0,0.0,0.0,0.0,0.0,0.0,0.0,0.0,0.0,0.0,0.0,0.0,0.0,0.0,0.0,0.0,0.0,0.0,0.0,0.0,0.0,0.0,0.0,0.0,0.0,0.0,0.0,0.0,0.0,0.0,0.0,0.0,0.0,0.0,0.0,0.0,0.0,0.0,0.0,0.0,0.0,0.0,0.0,0.0,0.0,0.0,0.0,0.0,0.0,0.0,0.0,0.0,0.0,0.0,0.0,0.0,0.0,0.0,0.0,0.0,0.0,0.0,0.0,0.0,0.0,0.0,0.0,0.0,0.0,0.0,0.0,0.0,0.0,0.0,0.0,0.0,0.0,0.0,0.0,0.0,0.0,0.0,0.0,0.0,0.0,0.0,0.0,0.0,0.0,0.0,0.0,0.0,0.0,0.0,0.0,0.0,0.0,-1.6451,-1.7604,-2.2031,-2.4861,-2.5949,-2.6453,-2.6631,0.0,0.0,0.0,0.0,0.0,0.0,0.0,0.0,0.0,0.0,0.0,0.0,0.0,0.0,0.0,0.0,0.0,0.0,0.0,0.0,0.0,0.0,0.0,0.0,0.0,0.0,0.0,0.0,0.0,0.0,0.0,0.0,0.0,0.0,0.0,0.0,0.0,0.0,0.0,0.0,0.0,0.0,0.0,0.0,0.0,0.0,0.0,0.0,-2.4369,0.0,0.0,0.0,0.0,0.0,0.0,0.0,0.0,0.0,0.0,0.0,0.0,0.0,0.0,0.0,0.0,0.0,0.0,0.0,0.0,0.0,0.0,0.0,0.0,0.0,0.0,0.0,0.0,0.0,0.0,0.0,0.0,0.0,0.0,0.0,0.0,0.0,0.0,0.0,0.0,0.0,0.0,0.0,0.0,0.0,0.0,0.0,0.0,0.0,0.0,0.0,0.0,0.0,0.0,0.0,0.0,0.0,0.0,0.0,-1.7209,-1.9069,-2.3091,-2.5535,-2.6204,-2.6665,-2.6897,0.0,0.0,0.0,0.0,0.0,0.0,0.0,0.0,0.0,0.0,0.0,0.0,0.0,0.0,0.0,0.0,0.0,0.0,0.0,0.0,0.0,0.0,0.0,0.0,0.0,0.0,0.0,0.0,0.0,0.0,0.0,0.0,0.0,0.0,0.0,0.0,0.0,0.0,0.0,0.0,0.0,0.0,0.0,0.0,0.0,0.0,0.0,0.0,0.0,0.0,0.0,0.0,0.0,0.0,0.0,0.0,0.0,0.0,0.0,0.0,0.0,0.0,0.0,0.0,0.0,0.0,0.0,0.0,0.0,0.0,0.0,0.0,0.0,0.0,0.0,0.0,0.0,0.0,0.0,0.0,0.0,0.0,0.0,0.0,0.0,0.0,0.0,0.0,0.0,0.0,0.0,0.0,0.0,0.0,0.0,0.0,0.0,0.0,0.0,0.0,0.0,0.0,0.0,0.0,0.0,0.0,0.0,-1.7792,-1.8368,-2.084,-2.4334,-2.6323,-2.6664,-2.6712,-2.6911,-2.7285,0.0,0.0,0.0,0.0,0.0,0.0,0.0,0.0,0.0,0.0,0.0,0.0,0.0,0.0,0.0,0.0,0.0,0.0,0.0,0.0,0.0,0.0,0.0,0.0,0.0,0.0,0.0,0.0,0.0,0.0,0.0,0.0,0.0,0.0,0.0,0.0,0.0,0.0,-2.605,-2.4905,0.0,0.0,0.0,0.0,0.0,0.0,0.0,0.0,-2.3334,0.0,0.0,0.0,0.0,0.0,0.0,0.0,0.0,0.0,0.0,0.0,0.0,0.0,0.0,0.0,0.0,0.0,0.0,0.0,0.0,0.0,0.0,0.0,0.0,0.0,0.0,0.0,0.0,0.0,0.0,0.0,0.0,0.0,0.0,0.0,0.0,0.0,0.0,0.0,0.0,0.0,0.0,0.0,0.0,0.0,0.0,0.0,0.0,0.0,0.0,0.0,0.0,0.0,0.0,0.0,0.0,-2.0584,-2.0654,-2.2048,-2.4811,-2.4779,-2.5782,-2.7829,-2.6057,-2.603,-2.8067,0.0,0.0,0.0,0.0,0.0,0.0,0.0,0.0,0.0,0.0,0.0,0.0,0.0,0.0,0.0,0.0,0.0,0.0,0.0,0.0,0.0,0.0,0.0,0.0,0.0,0.0,0.0,0.0,0.0,0.0,0.0,0.0,0.0,0.0,0.0,0.0,0.0,0.0,0.0,-2.3658,-2.3087,0.0,0.0,0.0,0.0,0.0,0.0,0.0,0.0,-2.3011,0.0,0.0,0.0,0.0,0.0,0.0,0.0,0.0,0.0,0.0,0.0,0.0,0.0,0.0,0.0,0.0,0.0,0.0,0.0,0.0,0.0,0.0,0.0,0.0,0.0,0.0,0.0,0.0,0.0,0.0,0.0,0.0,0.0,0.0,0.0,0.0,0.0,0.0,0.0,0.0,0.0,0.0,0.0,0.0,0.0,0.0,0.0,0.0,0.0,0.0,0.0,0.0,0.0,0.0,0.0,-2.2909,-2.187,-2.2941,-2.6461,-2.5791,-2.6284,-2.8185,-2.6759,-2.6752,0.0,0.0,0.0,0.0,0.0,0.0,0.0,0.0,0.0,0.0,0.0,0.0,0.0,0.0,0.0,0.0,0.0,0.0,0.0,0.0,0.0,0.0,0.0,0.0,0.0,0.0,0.0,0.0,0.0,0.0,0.0,0.0,0.0,0.0,0.0,0.0,0.0,0.0,0.0,0.0,-2.2283,-2.1843,-2.0265,0.0,0.0,0.0,0.0,0.0,0.0,-2.2027,-2.2267,0.0,0.0,0.0,0.0,0.0,0.0,0.0,0.0,0.0,0.0,0.0,0.0,0.0,0.0,0.0,0.0,0.0,0.0,0.0,0.0,0.0,0.0,0.0,0.0,0.0,0.0,0.0,0.0,0.0,0.0,0.0,0.0,0.0,0.0,0.0,0.0,0.0,0.0,0.0,0.0,0.0,0.0,0.0,0.0,0.0,0.0,0.0,0.0,0.0,0.0,0.0,0.0,0.0,0.0,0.0,-2.4992,-2.2902,-2.3601,-2.7374,-2.6708,-2.6986,-2.8556,-2.7587,-2.7544,0.0,0.0,0.0,0.0,0.0,0.0,0.0,0.0,0.0,0.0,0.0,0.0,0.0,0.0,0.0,0.0,0.0,0.0,0.0,0.0,0.0,0.0,0.0,0.0,0.0,0.0,0.0,0.0,0.0,0.0,0.0,0.0,0.0,0.0,0.0,0.0,0.0,0.0,0.0,0.0,0.0,-2.0757,-1.9096,-2.0517,0.0,0.0,0.0,0.0,-2.165,-2.134,0.0,0.0,0.0,0.0,0.0,0.0,0.0,0.0,0.0,0.0,0.0,0.0,0.0,0.0,0.0,0.0,0.0,0.0,0.0,0.0,0.0,0.0,0.0,0.0,0.0,0.0,0.0,0.0,0.0,0.0,0.0,0.0,0.0,0.0,0.0,0.0,0.0,0.0,0.0,0.0,0.0,0.0,0.0,0.0,0.0,0.0,0.0,0.0,0.0,0.0,0.0,0.0,0.0,0.0,0.0,0.0,-2.5256,-2.4698,-2.577,-2.8467,-2.7132,-2.7408,-2.968,-2.7547,-2.7371,0.0,0.0,0.0,0.0,0.0,0.0,0.0,0.0,0.0,0.0,0.0,0.0,0.0,0.0,0.0,0.0,0.0,0.0,0.0,0.0,0.0,0.0,0.0,0.0,0.0,0.0,0.0,0.0,0.0,0.0,0.0,0.0,0.0,0.0,0.0,0.0,0.0,0.0,0.0,0.0,0.0,-2.0294,-1.718,-1.9416,-2.1227,0.0,0.0,-2.1076,-2.0939,-2.0873,0.0,0.0,0.0,0.0,0.0,0.0,0.0,0.0,0.0,0.0,0.0,0.0,0.0,0.0,0.0,0.0,0.0,0.0,0.0,0.0,0.0,0.0,0.0,0.0,0.0,0.0,0.0,0.0,0.0,0.0,0.0,0.0,0.0,0.0,0.0,0.0,0.0,0.0,0.0,0.0,0.0,0.0,0.0,0.0,0.0,0.0,0.0,0.0,0.0,0.0,0.0,0.0,0.0,0.0,0.0,-2.4345,-2.5633,-2.5552,-2.661,-2.8881,-2.7841,-2.814,-3.0068,-2.8116,-2.7946,0.0,0.0,0.0,0.0,0.0,0.0,0.0,0.0,0.0,0.0,0.0,0.0,0.0,0.0,0.0,0.0,0.0,0.0,0.0,0.0,0.0,0.0,0.0,0.0,0.0,0.0,0.0,0.0,0.0,0.0,0.0,0.0,0.0,0.0,0.0,0.0,0.0,0.0,0.0,0.0,0.0,0.0,-1.6925,-1.8485,0.0,0.0,0.0,-2.0675,-2.0873,0.0,0.0,0.0,0.0,0.0,0.0,0.0,0.0,0.0,0.0,0.0,0.0,0.0,0.0,0.0,0.0,0.0,0.0,0.0,0.0,0.0,0.0,0.0,0.0,0.0,0.0,0.0,0.0,0.0,0.0,0.0,0.0,0.0,0.0,0.0,0.0,0.0,0.0,0.0,0.0,0.0,0.0,0.0,0.0,0.0,0.0,0.0,0.0,0.0,0.0,0.0,0.0,0.0,0.0,0.0,0.0,0.0,-2.557,-2.5659,-2.6678,-2.8668,-2.8266,-2.8722,-3.0179,-2.8848,0.0,0.0,0.0,0.0,0.0,0.0,0.0,0.0,0.0,0.0,0.0,0.0,0.0,0.0,0.0,0.0,0.0,0.0,0.0,0.0,0.0,0.0,0.0,0.0,0.0,0.0,0.0,-2.7725,0.0,0.0,0.0,0.0,0.0,0.0,0.0,0.0,0.0,0.0,0.0,0.0,0.0,0.0,-1.8092,-1.6959,-1.7891,-1.9128,0.0,0.0,-2.051,-2.0795,-2.114,-2.1725,0.0,0.0,0.0,0.0,0.0,0.0,0.0,0.0,0.0,0.0,0.0,0.0,0.0,0.0,0.0,0.0,0.0,0.0,0.0,0.0,0.0,0.0,0.0,0.0,0.0,0.0,0.0,0.0,0.0,0.0,0.0,0.0,0.0,0.0,0.0,0.0,0.0,0.0,0.0,0.0,0.0,0.0,0.0,0.0,0.0,0.0,0.0,0.0,0.0,0.0,0.0,0.0,0.0,0.0,-2.4235,-2.4765,-2.4767,-2.5809,-2.7782,-2.8076,-2.8916,-3.0394,-2.9659,-2.9486,0.0,0.0,0.0,0.0,0.0,0.0,0.0,0.0,0.0,0.0,0.0,0.0,0.0,0.0,0.0,0.0,0.0,0.0,0.0,0.0,0.0,0.0,0.0,0.0,0.0,0.0,0.0,0.0,0.0,0.0,0.0,0.0,0.0,0.0,0.0,0.0,0.0,0.0,0.0,0.0,0.0,-1.7831,-1.6866,-1.8036,-1.9175,0.0,-2.0308,-2.0858,-2.0459,-2.1299,-2.2044,-2.2338,0.0,0.0,0.0,0.0,0.0,0.0,0.0,0.0,0.0,0.0,0.0,0.0,0.0,0.0,0.0,0.0,0.0,0.0,0.0,0.0,0.0,0.0,0.0,0.0,0.0,0.0,0.0,0.0,0.0,0.0,0.0,0.0,0.0,0.0,0.0,0.0,0.0,0.0,0.0,0.0,0.0,0.0,0.0,0.0,0.0,0.0,0.0,0.0,0.0,0.0,0.0,0.0,0.0,-2.4902,-2.4822,-2.5363,-2.6097,-2.7036,-2.7772,-2.8675,-2.973,-2.9447,-2.9332,0.0,0.0,0.0,0.0,0.0,0.0,0.0,0.0,0.0,0.0,0.0,0.0,0.0,0.0,0.0,0.0,0.0,0.0,0.0,0.0,0.0,0.0,0.0,0.0,0.0,0.0,0.0,0.0,-2.573,-2.5941,-2.6066,0.0,0.0,0.0,0.0,0.0,0.0,0.0,0.0,0.0,0.0,-1.7835,-1.7379,-1.8164,0.0,0.0,-2.0207,-2.0795,-2.0993,-2.1534,-2.2287,-2.3334,-2.4118,0.0,0.0,0.0,0.0,0.0,0.0,0.0,0.0,0.0,0.0,0.0,0.0,0.0,0.0,0.0,0.0,0.0,0.0,0.0,0.0,0.0,0.0,0.0,0.0,0.0,0.0,0.0,0.0,0.0,0.0,0.0,0.0,0.0,0.0,0.0,0.0,0.0,0.0,0.0,0.0,0.0,0.0,0.0,0.0,0.0,0.0,0.0,0.0,0.0,0.0,0.0,0.0,-2.5806,-2.5648,-2.6032,-2.6497,-2.7085,-2.7753,-2.8385,-2.8923,-2.92,-2.9089,0.0,0.0,0.0,0.0,0.0,0.0,0.0,0.0,0.0,0.0,0.0,0.0,0.0,0.0,0.0,0.0,0.0,0.0,0.0,0.0,0.0,0.0,0.0,0.0,0.0,0.0,0.0,0.0,-2.4932,-2.5449,-2.6115,0.0,0.0,0.0,0.0,0.0,0.0,0.0,0.0,0.0,0.0,-1.7934,-1.8061,-1.8654,-1.9245,-1.9853,-2.081,-2.1576,-2.1961,-2.2644,-2.3482,-2.4217,0.0,0.0,0.0,0.0,0.0,0.0,0.0,0.0,0.0,0.0,0.0,0.0,0.0,0.0,0.0,0.0,0.0,0.0,0.0,0.0,0.0,0.0,0.0,0.0,0.0,0.0,0.0,-2.1757,0.0,0.0,-2.3218,0.0,0.0,0.0,0.0,0.0,0.0,0.0,0.0,0.0,0.0,0.0,0.0,0.0,0.0,0.0,0.0,0.0,0.0,0.0,0.0,0.0,0.0,-2.6786,-2.7316,-2.6535,-2.6826,-2.8086,-2.8183,-2.8164,-2.8171,-2.8935,-2.8888,-2.7835,0.0,0.0,0.0,0.0,0.0,0.0,0.0,0.0,0.0,0.0,0.0,0.0,0.0,0.0,0.0,0.0,0.0,0.0,0.0,0.0,0.0,0.0,0.0,0.0,0.0,0.0,-2.3258,-2.3994,-2.5029,0.0,0.0,0.0,0.0,0.0,0.0,0.0,0.0,0.0,-1.815,-1.8002,-1.8136,-1.8857,-1.9444,-2.0019,-2.0598,-2.2181,-2.3341,-2.3341,-2.4876,-2.5741,0.0,0.0,0.0,0.0,0.0,0.0,0.0,0.0,0.0,0.0,0.0,0.0,0.0,0.0,0.0,0.0,0.0,0.0,0.0,0.0,0.0,0.0,0.0,0.0,0.0,0.0,0.0,-2.0426,-2.1401,0.0,0.0,0.0,0.0,0.0,0.0,0.0,0.0,0.0,0.0,0.0,-2.4329,-2.4743,0.0,0.0,0.0,0.0,0.0,0.0,0.0,0.0,0.0,0.0,0.0,0.0,-2.5951,-2.6594,-2.5863,-2.6332,-2.8057,-2.7627,-2.7585,-2.8087,-2.8398,-2.7967,-2.6778,0.0,0.0,0.0,0.0,0.0,0.0,0.0,0.0,0.0,0.0,0.0,0.0,0.0,0.0,0.0,0.0,0.0,0.0,0.0,0.0,0.0,0.0,0.0,0.0,0.0,-2.3372,0.0,0.0,0.0,0.0,0.0,0.0,0.0,0.0,0.0,0.0,0.0,-1.8815,-1.8677,-1.8916,-1.9253,-1.9485,-2.0353,-2.1194,0.0,0.0,0.0,0.0,0.0,0.0,0.0,0.0,0.0,0.0,0.0,0.0,0.0,0.0,-3.2695,-3.0608,-2.9684,-2.9325,-2.9535,0.0,0.0,0.0,0.0,0.0,0.0,0.0,0.0,0.0,0.0,0.0,0.0,0.0,0.0,-2.0298,0.0,-2.1853,0.0,0.0,0.0,0.0,0.0,0.0,0.0,0.0,-2.2453,-2.3285,-2.4375,-2.4966,-2.5696,0.0,-2.7256,-2.7157,0.0,0.0,0.0,0.0,0.0,0.0,0.0,0.0,-2.6043,-2.7008,-2.59,-2.6216,-2.8015,-2.7325,-2.6994,-2.7237,-2.7462,-2.7161,-2.6244,-2.6152,-2.6207,0.0,0.0,0.0,0.0,0.0,0.0,0.0,0.0,0.0,0.0,0.0,0.0,0.0,0.0,0.0,0.0,0.0,0.0,0.0,0.0,0.0,0.0,0.0,-2.2649,0.0,0.0,0.0,0.0,0.0,0.0,0.0,0.0,0.0,-2.142,-1.9989,-1.9123,-1.9737,-2.0108,-2.052,-2.0957,0.0,0.0,0.0,0.0,0.0,0.0,0.0,-2.7757,-2.8398,-2.9237,-2.984,-2.9903,-3.1112,-3.189,-3.1282,0.0,0.0,-3.1567,-3.0911,-3.0731,-3.1309,-3.1672,-3.1687,-3.0889,-3.1147,-3.1324,0.0,0.0,0.0,0.0,0.0,0.0,0.0,0.0,-2.01,-2.0821,0.0,-2.1929,0.0,0.0,0.0,0.0,-2.3634,-2.2221,0.0,0.0,-2.3272,-2.3738,-2.41,-2.5246,-2.5819,-2.5924,-2.6674,-2.7022,-2.7136,-2.8103,0.0,0.0,0.0,0.0,0.0,0.0,-2.7105,-2.8386,-2.6574,-2.6461,-2.8134,-2.7318,-2.6448,-2.5729,-2.6311,-2.6592,-2.641,-2.778,-2.8464,-2.8129,-2.8619,0.0,0.0,0.0,0.0,0.0,0.0,0.0,0.0,0.0,0.0,0.0,0.0,0.0,0.0,0.0,0.0,0.0,0.0,0.0,0.0,-2.2244,0.0,0.0,0.0,0.0,0.0,0.0,0.0,0.0,0.0,0.0,-2.172,-2.0149,-1.9725,-2.1423,0.0,0.0,0.0,0.0,-2.3748,-2.5024,-2.5909,-2.689,-2.8097,-2.9498,-3.0028,-2.8906,0.0,0.0,-3.0642,-3.1076,-3.1372,-3.0743,-3.1745,-3.2946,-3.4177,-3.3306,-3.2916,-3.4151,-3.3532,-3.2868,-3.2732,-3.2288,-3.1886,-2.3966,0.0,0.0,0.0,0.0,-2.0778,-2.0388,-2.0502,-2.055,-2.1197,-2.2252,-2.2932,0.0,0.0,0.0,0.0,0.0,0.0,-2.1932,-2.2585,-2.3371,-2.446,-2.5779,-2.6647,-2.7356,-2.789,-2.8179,-2.833,-2.8372,-2.8524,-2.843,-2.8102,0.0,0.0,0.0,0.0,-2.6934,-2.7673,-2.6403,-2.6627,-2.857,-2.6838,-2.6042,-2.6302,-2.7003,-2.7324,-2.7236,-2.758,-2.7994,-2.8416,-2.7754,0.0,0.0,0.0,0.0,0.0,0.0,0.0,0.0,0.0,0.0,0.0,0.0,0.0,0.0,0.0,0.0,0.0,0.0,0.0,-2.2953,-2.3484,-2.4305,0.0,0.0,0.0,0.0,0.0,0.0,0.0,0.0,0.0,-2.4162,-2.2618,-2.2158,0.0,0.0,-2.3906,-2.5124,-2.518,-2.5678,-2.7416,-2.7889,0.0,-3.0123,-2.9983,-2.9918,-3.0541,-3.1108,-3.1407,-3.1213,-3.2023,-3.2509,-3.194,-3.2834,-3.3776,-3.412,-3.369,-3.3341,-3.3541,-3.3668,-3.3606,-3.3209,-3.3302,-3.3334,-2.4752,-2.4179,-2.2933,-2.2363,-2.2225,-2.1573,-2.136,-2.1569,-2.1915,-2.2523,-2.3361,-2.384,-2.4749,-2.579,-2.4878,0.0,0.0,0.0,-2.2638,-2.3462,-2.4304,-2.5478,-2.694,-2.7748,-2.8395,-2.8887,-2.9092,-2.9191,-2.9181,-2.9056,-2.8772,-2.8402,0.0,0.0,-2.6884,-2.6227,-2.6452,-2.7459,-2.6342,-2.6525,-2.821,-2.6428,-2.5753,-2.6485,-2.7247,-2.781,-2.8074,-2.8351,-2.8707,-2.9159,-2.8333,-2.8183,0.0,0.0,0.0,0.0,0.0,0.0,0.0,0.0,0.0,0.0,0.0,-2.8037,-2.7545,0.0,0.0,0.0,-2.3626,-2.3773,-2.4258,-2.4568,0.0,0.0,0.0,0.0,0.0,0.0,0.0,-2.6593,-2.6134,-2.5952,-2.611,-2.5635,-2.548,-2.6048,-2.5497,-2.5586,-2.6931,0.0,-2.7136,-2.8808,-2.9154,-2.9681,-3.0899,-3.0828,-3.0835,-3.139,-3.1467,-3.1467,-3.1524,-3.2104,-3.2367,-3.2247,-3.2874,-3.3634,-3.3814,-3.3834,-3.3928,-3.4067,-3.4367,-3.4431,-3.3874,-3.4026,-3.4175,-2.5395,-2.5211,-2.3872,-2.2965,-2.2483,-2.2577,-2.2669,-2.2892,-2.3728,-2.4402,-2.4862,-2.4717,-2.528,-2.6245,-2.5045,0.0,-2.4393,-2.369,-2.4029,-2.5115,-2.5826,-2.6739,-2.7748,-2.8579,-2.9049,-2.9262,-2.9495,-2.9626,-2.9623,-2.9608,-2.9378,-2.8934,-2.7939,-2.733,-2.6994,-2.5832,-2.6021,-2.7692,-2.647,-2.6321,-2.7338,-2.606,-2.5685,-2.6282,-2.7204,-2.8036,-2.8768,-2.9612,-3.0079,-3.0079,-2.9712,-2.9231,-2.8717,0.0,0.0,0.0,0.0,0.0,0.0,0.0,0.0,0.0,0.0,0.0,0.0,0.0,0.0,0.0,-2.4149,0.0,-2.6283,-2.5688,0.0,0.0,0.0,-2.7425,-2.704,-2.7878,-2.8033,-2.6992,0.0,0.0,-2.7597,-2.8701,-2.8976,-2.747,-2.6753,-2.6977,-2.8622,-2.8352,-2.836,-2.9607,-3.0049,-3.0437,-3.1106,-3.175,-3.2028,-3.1625,-3.1569,-3.1644,-3.1717,-3.185,-3.1805,-3.1923,-3.246,-3.315,-3.3535,-3.4324,-3.492,-3.5402,-3.5402,-3.5202,-3.467,-3.4542,-3.4487,-2.5944,-2.5677,-2.5631,-2.4939,-2.3906,-2.4002,-2.4302,-2.4673,-2.4955,-2.5282,-2.5655,-2.5962,-2.6303,-2.659,-2.6042,-2.5721,-2.5533,-2.5855,-2.6202,-2.6612,-2.7356,-2.8074,-2.8823,-2.9204,-2.9476,-2.9715,-2.9786,-2.9823,-2.9829,-2.9682,-2.9532,-2.9401,-2.8819,-2.8262,-2.7747,-2.7126,-2.7243,-2.8067,-2.7112,-2.6565,-2.6426,-2.6187,-2.6161,-2.6301,-2.7728,-2.8608,-2.8812,-2.9497,-2.9886,-2.9937,-2.8989,-2.8707,-2.9251,-2.8264,0.0,0.0,0.0,0.0,0.0,0.0,0.0,0.0,0.0,-2.8739,-2.8196,0.0,-2.6396,0.0,-2.5177,-2.601,-2.7229,-2.794,0.0,0.0,-3.0434,-3.0798,-3.0751,-3.0656,-3.0321,-2.9501,-2.9434,-2.9309,-2.8946,-2.9225,-2.946,-2.9358,-2.8746,-2.8732,-2.9925,-2.9974,-3.0145,-3.0895,-3.1709,-3.2219,-3.2017,-3.2044,-3.2038,-3.1868,-3.2146,-3.2434,-3.2624,-3.3325,-3.3921,-3.4037,-3.4544,-3.4999,-3.5099,-3.5674,-3.6121,-3.6218,-3.5707,-3.5152,-3.4971,-3.4906,-3.4808,-2.6434,-2.6672,-2.6882,-2.6472,-2.5712,-2.564,-2.5701,-2.5898,-2.611,-2.6319,-2.6489,-2.6773,-2.6935,-2.706,-2.6884,-2.677,-2.6753,-2.7217,-2.7507,-2.7649,-2.8316,-2.8887,-2.9343,-2.9569,-2.9623,-2.9537,-2.9537,-2.9341,-2.8992,-2.9232,-2.9308,-2.9162,-2.9195,-2.9001,-2.8578,-2.7974,-2.7869,-2.8281,-2.7278,-2.6657,-2.639,-2.592,-2.5958,-2.6679,-2.7616,-2.8483,-2.9213,-2.9538,-2.9734,-2.9751,-2.94,-2.9072,-2.8832,-2.8599,-2.8406,0.0,0.0,0.0,0.0,0.0,0.0,0.0,0.0,0.0,0.0,0.0,-2.7315,-2.6622,-2.7122,-2.7906,-2.8914,-2.9786,-3.0588,-3.1261,-3.1903,-3.2144,-3.1869,-3.1903,-3.1662,-3.0943,-3.0591,-3.0348,-3.0235,-3.0147,-3.0182,-3.041,-3.0332,-3.0384,-3.0658,-3.092,-3.1139,-3.1255,-3.2541,-3.3402,-3.2924,-3.2408,-3.2012,-3.2027,-3.2228,-3.2503,-3.2938,-3.349,-3.3986,-3.4395,-3.4763,-3.5106,-3.5371,-3.5959,-3.6453,-3.6633,-3.6256,-3.5749,-3.5602,-3.5274,-3.4977,-2.6882,-2.7667,-2.7822,-2.7789,-2.7577,-2.7265,-2.7023,-2.6821,-2.7192,-2.7382,-2.7413,-2.7396,-2.7517,-2.7672,-2.7672,-2.7712,-2.7837,-2.818,-2.8334,-2.837,-2.8993,-2.9382,-2.9602,-2.9718,-2.957,-2.9129,-2.8983,-2.8612,-2.8011,-2.8727,-2.8964,-2.8817,-2.9334,-2.9513,-2.9314,-2.8529,-2.8219,-2.8378,-2.7323,-2.6831,-2.6896,-2.5697,-2.5734,-2.7067,-2.7328,-2.8096,-2.9523,-2.9569,-2.9551,-2.9532,-3.0002,-2.9591,-2.8178,-2.8998,-2.9053,0.0,-2.8143,0.0,0.0,0.0,0.0,0.0,0.0,0.0,0.0,-2.9057,-2.8395,-2.8899,-2.9415,-3.0066,-3.0787,-3.1337,-3.171,-3.1967,-3.2563,-3.2741,-3.2159,-3.2563,-3.2611,-3.1998,-3.1691,-3.1506,-3.1331,-3.1258,-3.1237,-3.1163,-3.1541,-3.165,-3.1297,-3.1625,-3.1741,-3.0998,-3.239,-3.3172,-3.3262,-3.2493,-3.1794,-3.1962,-3.2068,-3.2281,-3.2935,-3.3148,-3.3391,-3.3968,-3.4315,-3.4583,-3.4987,-3.5856,-3.6641,-3.7127,-3.702,-3.6743,-3.6265,-3.5602,-3.5185,-2.7713,-2.7392,-2.8466,-2.8828,-2.8709,-2.8901,-2.8537,-2.7848,-2.801,-2.8237,-2.8507,-2.8507,-2.8515,-2.854,-2.854,-2.8471,-2.8366,-2.8824,-2.903,-2.9024,-2.9532,-2.9912,-3.0113,-2.9532,-2.9233,-2.913,-2.8403,-2.831,-2.8848,-2.8906,-2.9262,-2.9884,-2.9691,-2.957,-2.9514,0.0,0.0,0.0,-2.7858,-2.7638,-2.7601,-2.6878,-2.6618,-2.6879,-2.7625,0.0,-2.8503,-2.9042,-2.9254,-2.9064,-2.8978,0.0,0.0,0.0,0.0,0.0,0.0,0.0,0.0,0.0,0.0,0.0,-3.0973,-3.0914,-3.1653,-3.1005,-3.0472,-3.0289,-3.0732,-3.1367,-3.2137,-3.2724,-3.3255,-3.3795,-3.4409,-3.4758,-3.4625,-3.4426,-3.418,-3.3851,-3.3466,-3.2934,-3.2261,-3.2579,-3.2671,-3.2097,-3.2066,-3.2083,-3.2013,-3.2396,-3.22,-3.0738,-3.0924,-3.1469,-3.3034,-3.1877,-3.1244,-3.1934,-3.2206,-3.2466,-3.3119,-3.3643,-3.3994,-3.4358,-3.4862,-3.5245,-3.5365,-3.6769,-3.7815,-3.804,-3.8214,-3.7999,-3.6774,-3.584,-3.5308,-2.8301,-2.8487,-2.9155,-2.942,0.0,-2.9117,-2.8746,-2.8323,-2.8137,-2.7856,-2.7601,-2.8026,-2.8068,-2.78,-2.7819,-2.7864,-2.795,-2.8671,-2.876,-2.8383,-2.952,-2.9889,-2.9602,-2.967,-2.9267,-2.8502,-2.8097,-2.7875,-2.7845,-2.818,-2.8766,-2.9565,-2.968,-2.9491,-2.8988,-2.8225,-2.8059,-2.859,-2.8082,-2.7787,-2.7665,-2.7108,-2.6986,-2.7357,-2.7805,0.0,0.0,0.0,0.0,0.0,0.0,0.0,0.0,-2.8553,0.0,-2.9003,-2.8935,-2.9269,-3.0154,-3.0055,-3.0402,-3.1477,-3.1715,-3.1919,-3.2256,-3.1916,-3.1861,-3.2108,-3.2592,-3.308,-3.3551,-3.4112,-3.4592,-3.4971,-3.5241,-3.5458,-3.5429,-3.5258,-3.5107,-3.4919,-3.4427,-3.3889,-3.3474,-3.3042,-3.2788,-3.2398,-3.229,-3.2171,-3.1884,-3.2268,-3.2319,-3.1918,-3.102,-3.0998,-3.2262,-3.1768,-3.1043,-3.1736,-3.1866,-3.2256,-3.3249,-3.3606,-3.3956,-3.4423,-3.4765,-3.5076,-3.555,-3.6759,-3.7913,-3.8196,-3.8328,-3.8166,-3.7337,-3.6535,-3.5967,-2.8726,-2.9338,-2.9653,-2.9753,-2.9612,-2.8909,-2.8449,-2.8184,-2.783,0.0,0.0,-2.7358,-2.7401,-2.6879,-2.7028,-2.7171,-2.7349,-2.8175,-2.816,-2.7519,-2.9044,-2.9404,-2.8772,-2.9505,-2.914,-2.7873,-2.774,-2.7374,-2.6726,-2.7382,-2.8058,-2.8798,-2.9323,-2.9152,-2.8278,-2.7444,-2.7655,-2.8819,-2.8141,-2.7675,-2.7611,-2.7255,-2.7398,-2.8046,-2.8061,-2.8415,-2.9126,-2.9003,-2.8773,-2.8525,-2.9114,-2.8899,-2.7742,-2.8802,-2.928,-2.8977,-2.9421,-2.9934,-3.0444,-3.0468,-3.0841,-3.157,-3.221,-3.2508,-3.2351,-3.2528,-3.2882,-3.3561,-3.4203,-3.4625,-3.48,-3.5178,-3.552,-3.5577,-3.5639,-3.5622,-3.5622,-3.5639,-3.556,-3.5571,-3.5036,-3.4556,-3.4278,-3.3701,-3.2836,-3.249,-3.2574,-3.2309,-3.1495,-3.1554,-3.2152,-3.2883,-3.1722,-3.118,-3.2127,-3.1596,-3.1294,-3.1564,-3.1411,-3.1643,-3.2542,-3.2865,-3.3162,-3.3661,-3.4021,-3.45,-3.5313,-3.6365,-3.7345,-3.8121,-3.8083,-3.7922,-3.7855,-3.7249,-3.6548,-2.8925,-2.7956,-2.9541,-2.9813,-2.9193,-2.9051,-2.8152,-2.6766,-2.7043,-2.7119,-2.7045,-2.7904,-2.7829,-2.7115,-2.7961,-2.797,-2.732,-2.7642,-2.7646,-2.7504,-2.7937,-2.8073,-2.7975,-2.8082,-2.8106,-2.7913,-2.7072,-2.6914,-2.7389,-2.7342,-2.7695,-2.838,-2.839,-2.8197,-2.7951,-2.8378,-2.8773,-2.8957,-2.8187,-2.7743,-2.7693,-2.8288,-2.8612,-2.8657,-2.8727,-2.8805,-2.8934,-2.8767,-2.8507,-2.8183,-2.8154,-2.7906,-2.7324,-2.739,-2.7861,-2.8786,-2.8724,-2.9181,-3.0394,-3.0468,-3.0883,-3.1665,-3.1992,-3.211,-3.2229,-3.3162,-3.3697,-3.3609,-3.4609,-3.5367,-3.547,-3.5532,-3.5594,-3.5622,-3.5639,-3.5639,-3.5639,-3.5639,-3.5639,-3.5622,-3.5537,-3.4972,-3.416,-3.461,-3.4338,-3.3087,-3.2836,-3.2822,-3.154,-3.0922,-3.1323,-3.2161,-3.1153,-3.1175,-3.2626,-3.1723,-3.1013,-3.1927,-3.1187,-3.0695,-3.1012,-3.1166,-3.1473,-3.179,-3.2523,-3.3494,-3.5052,-3.5918,-3.6804,-3.7768,-3.7903,-3.7807,-3.7804,-3.7229,-3.6552,-2.8422,-2.7901,-2.8651,-2.8807,-2.8472,-2.7969,-2.7012,-2.5833,-2.5964,-2.5996,-2.5997,-2.6789,-2.6722,-2.6077,-2.6502,-2.6517,-2.6237,-2.6814,-2.6795,-2.6419,-2.7321,-2.7535,-2.7174,-2.7531,-2.7511,-2.7086,-2.6993,-2.7094,-2.7384,-2.7697,-2.8253,-2.895,-2.8408,-2.8064,-2.7962,-2.7797,-2.7691,-2.7714,-2.8209,-2.8425,-2.8421,-2.8727,-2.8934,-2.9007,-2.8934,-2.8957,-2.9052,-2.8773,-2.8456,-2.8129,-2.7964,-2.7607,-2.7006,-2.7674,-2.8284,-2.8628,-2.9181,-2.9814,-3.046,-3.0551,-3.0842,-3.134,-3.1374,-3.1466,-3.1641,-3.2486,-3.3265,-3.3974,-3.465,-3.5172,-3.5526,-3.5639,-3.5639,-3.5639,-3.5639,-3.5639,-3.5639,-3.5639,-3.5639,-3.5639,-3.5639,-3.5396,-3.4856,-3.4721,-3.438,-3.3281,-3.2836,-3.2043,-3.1309,-3.1015,-3.1148,-3.1709,-3.105,-3.1105,-3.2514,-3.1597,-3.0927,-3.1541,-3.0867,-3.0367,-3.0417,-3.0794,-3.142,-3.1824,-3.2557,-3.3689,-3.499,-3.5695,-3.645,-3.7149,-3.7433,-3.7317,-3.7195,-3.6688,-3.6062,-2.7799,-2.7679,-2.7844,-2.7826,-2.7614,-2.6689,-2.5918,-2.5293,-2.5201,-2.5091,-2.5089,-2.5829,-2.5767,-2.5141,-2.5329,-2.5499,-2.5687,-2.6294,-2.6341,-2.6022,-2.7212,-2.7451,-2.6937,-2.7608,-2.7574,-2.6961,-2.7381,-2.7547,-2.7539,-2.8033,-2.8615,-2.912,-2.8629,-2.8289,-2.8084,-2.7474,-2.7166,-2.7258,-2.8558,-2.9108,-2.8737,-2.8842,-2.9003,-2.9119,-2.9003,-2.8984,-2.9119,-2.8797,-2.8456,-2.8201,-2.8037,-2.7707,-2.7212,-2.8237,-2.8861,-2.887,-2.9689,-3.0361,-3.0551,-3.0692,-3.0814,-3.0975,-3.0992,-3.1032,-3.1202,-3.1601,-3.2478,-3.3778,-3.4286,-3.4759,-3.5233,-3.5537,-3.5639,-3.5639,-3.5639,-3.5639,-3.5639,-3.5639,-3.5639,-3.5639,-3.5622,-3.5661,-3.5443,-3.484,-3.4182,-3.3588,-3.2241,-3.128,-3.119,-3.1269,-3.1371,-3.1383,-3.1176,-3.1335,-3.1962,-3.1499,-3.1137,-3.1246,-3.0752,-3.0386,-3.0431,-3.1033,-3.1658,-3.1757,-3.2482,-3.3533,-3.459,-3.5136,-3.581,-3.667,-3.6791,-3.6535,-3.6485,-3.6113,-3.5673,-2.7434,-2.6898,-2.7517,-2.7441,-2.666,-2.5813,-2.539,-2.5303,-2.5274,-2.5293,-2.5339,-2.6044,-2.5913,-2.5298,-2.6039,-2.6437,-2.6467,-2.6563,-2.6937,-2.7473,-2.7783,-2.78,-2.7673,-2.8332,-2.8646,-2.8445,-2.8282,-2.8145,-2.811,-2.8107,-2.81,-2.8244,-2.8778,-2.8778,-2.8202,-2.8618,-2.8887,-2.8905,-2.9664,-2.9384,-2.8044,-2.8608,-2.8998,-2.9017,-2.9017,-2.8975,-2.9021,-2.8743,-2.8525,-2.837,-2.8291,-2.8269,-2.8383,-2.8434,-2.8853,-2.977,-2.9649,-2.9838,-3.0608,-3.0831,-3.0912,-3.0975,-3.1128,-3.1185,-3.1258,-3.1292,-3.1613,-3.2577,-3.3761,-3.4472,-3.4641,-3.5216,-3.5588,-3.5537,-3.5554,-3.5639,-3.5537,-3.5639,-3.5639,-3.5639,-3.5627,-3.5579,-3.5275,-3.536,-3.5145,-3.375,-3.2275,-3.1252,-3.123,-3.1389,-3.1579,-3.1589,-3.1375,-3.178,-3.2639,-3.2207,-3.1523,-3.1451,-3.1091,-3.0561,-3.0229,-3.01,-3.0267,-3.1526,-3.1475,-3.2539,-3.3952,-3.4485,-3.4772,-3.6122,-3.6241,-3.5791,-3.574,-3.5735,-3.5667,-2.6378,-2.6048,-2.6352,-2.6241,-2.5803,-2.5437,-2.5313,-2.5361,-2.5361,-2.5361,-2.5447,-2.6167,-2.6318,-2.602,-2.6427,-2.6851,-2.7351,-2.7371,-2.7462,-2.7675,-2.7707,-2.7657,-2.7537,-2.7672,-2.7803,-2.7846,-2.8053,-2.8164,-2.8199,-2.8505,-2.8923,-2.9403,-2.9773,-2.9976,-3.0124,-3.0434,-3.0577,-3.0577,-3.0838,-3.0649,-3.006,-2.9793,-2.9784,-2.9857,-2.9766,-2.9527,-2.9285,-2.9747,-2.9771,-2.9143,-2.9402,-2.9509,-2.935,-2.9704,-3.0075,-3.0362,-3.0451,-3.0599,-3.0797,-3.0912,-3.12,-3.1719,-3.1427,-3.1529,-3.2391,-3.2104,-3.2154,-3.2882,-3.3508,-3.3998,-3.4472,-3.5165,-3.547,-3.5142,-3.5067,-3.4931,-3.4457,-3.4508,-3.461,-3.4992,-3.5197,-3.5446,-3.548,-3.512,-3.4339,-3.3174,-3.1991,-3.137,-3.1263,-3.1329,-3.1504,-3.162,-3.1428,-3.1754,-3.2701,-3.2104,-3.1558,-3.143,-3.1061,-3.0428,-3.012,-3.0522,-3.1128,-3.1785,-3.2276,-3.315,-3.4973,-3.5086,-3.5194,-3.6011,-3.5994,-3.5667,-3.5975,-3.6002,-3.6071,-2.5658,-2.5585,-2.5517,-2.5426,-2.5322,-2.5332,-2.5361,-2.5398,-2.5379,-2.5523,-2.5793,-2.6131,-2.668,-2.7218,-2.7073,-2.7428,-2.814,-2.8184,-2.8229,-2.8261,-2.8259,-2.8175,-2.8001,-2.7857,-2.7788,-2.7884,-2.8501,-2.8901,-2.9026,-2.9339,-2.9984,-3.0668,-3.0779,-3.1076,-3.1575,-3.1626,-3.1626,-3.1626,-3.1715,-3.1832,-3.1722,-3.1189,-3.0814,-3.0734,-3.0617,-3.0323,-2.995,-3.0742,-3.081,-3.0026,-3.0458,-3.0624,-3.0381,-3.0808,-3.1044,-3.1009,-3.1576,-3.1788,-3.1415,-3.1561,-3.1898,-3.2476,-3.207,-3.2239,-3.3051,-3.2899,-3.2848,-3.3288,-3.3592,-3.4041,-3.4455,-3.5182,-3.5396,-3.506,-3.5035,-3.4806,-3.444,-3.4311,-3.4601,-3.4985,-3.5326,-3.5446,-3.5814,-3.5052,-3.3926,-3.3317,-3.2434,-3.1799,-3.1839,-3.1987,-3.2149,-3.2259,-3.1983,-3.2012,-3.2672,-3.1952,-3.1476,-3.1491,-3.1233,-3.0726,-3.0389,-3.1231,-3.1933,-3.2367,-3.3481,-3.4192,-3.4762,-3.5138,-3.5408,-3.5571,-3.5711,-3.5871,-3.6156,-3.6326,-3.6557,-2.5613,-2.5586,-2.5511,-2.5446,-2.5398,-2.5436,-2.5436,-2.5504,-2.5474,-2.5888,-2.6428,-2.5907,-2.6833,-2.883,-2.8133,-2.8275,-2.8956,-2.8925,-2.9224,-2.9789,-2.9737,-2.975,-2.9791,-2.9604,-2.9439,-2.9326,-2.9917,-3.0668,-3.1374,-3.0854,-3.0946,-3.1689,-3.1745,-3.1764,-3.189,-3.1881,-3.1747,-3.1932,-3.2404,-3.2661,-3.2643,-3.2529,-3.2082,-3.1526,-3.1354,-3.1342,-3.1341,-3.1452,-3.1359,-3.1038,-3.1129,-3.1281,-3.1546,-3.1323,-3.1409,-3.1842,-3.293,-3.3271,-3.273,-3.293,-3.3187,-3.3296,-3.322,-3.3322,-3.3575,-3.3457,-3.3457,-3.3474,-3.4219,-3.4592,-3.4668,-3.5348,-3.5749,-3.563,-3.5795,-3.5753,-3.5719,-3.5437,-3.5865,-3.5882,-3.5934,-3.6028,-3.6131,-3.5326,-3.4653,-3.4312,-3.3761,-3.3169,-3.3126,-3.3441,-3.3608,-3.3549,-3.3205,-3.2848,-3.2848,-3.1939,-3.1619,-3.1719,-3.152,-3.1365,-3.1607,-3.1935,-3.2401,-3.2773,-3.3085,-3.3558,-3.4235,-3.4726,-3.5081,-3.5406,-3.5968,-3.6216,-3.6409,-3.6678,-3.6939,-2.6115,-2.5586,-2.5519,-2.5474,-2.5513,-2.5995,-2.6246,-2.636,-2.6852,-2.6899,-2.6783,-2.6938,-2.7566,-2.8396,-2.8627,-2.9184,-2.9875,-2.9736,-2.9841,-3.0061,-2.9815,-2.9716,-2.968,-2.9551,-2.9471,-2.9602,-3.0227,-3.1002,-3.1689,-3.1485,-3.1764,-3.2432,-3.2544,-3.2804,-3.3231,-3.33,-3.3319,-3.3314,-3.3519,-3.3573,-3.3504,-3.3471,-3.3298,-3.3004,-3.2507,-3.1992,-3.1525,-3.2558,-3.2764,-3.192,-3.2519,-3.2756,-3.255,-3.2888,-3.3277,-3.374,-3.4284,-3.4262,-3.3615,-3.3622,-3.3843,-3.4058,-3.366,-3.388,-3.4523,-3.4404,-3.4303,-3.4726,-3.5013,-3.5243,-3.5382,-3.5708,-3.5744,-3.5386,-3.5343,-3.5248,-3.4785,-3.4723,-3.4954,-3.5393,-3.5864,-3.6233,-3.5925,-3.5343,-3.4798,-3.4507,-3.3922,-3.3525,-3.3423,-3.3532,-3.3782,-3.3882,-3.3613,-3.3499,-3.4312,-3.2451,-3.1343,-3.1602,-3.1653,-3.1958,-3.2195,-3.2659,-3.3185,-3.3761,-3.3685,-3.3846,-3.4827,-3.5131,-3.5351,-3.5518,-3.6045,-3.6451,-3.6638,-3.7034,-3.7376,-2.6158,-2.5643,-2.557,-2.5541,-2.5607,-2.608,-2.6337,-2.6446,-2.6947,-2.7013,-2.6801,-2.7071,-2.7584,-2.827,-2.8705,-2.9438,-3.0332,-3.0235,-3.0109,-3.0066,-2.9784,-2.9813,-2.9983,-2.9883,-2.9969,-3.0286,-3.0708,-3.1504,-3.2432,-3.2302,-3.26,-3.3343,-3.338,-3.364,-3.4123,-3.4216,-3.4216,-3.4197,-3.4124,-3.4055,-3.3998,-3.3921,-3.3895,-3.3821,-3.3386,-3.2896,-3.2385,-3.3475,-3.3732,-3.304,-3.3478,-3.3668,-3.3454,-3.4404,-3.5068,-3.5204,-3.5633,-3.5507,-3.4839,-3.4737,-3.485,-3.5036,-3.4541,-3.4607,-3.5487,-3.5148,-3.5165,-3.5504,-3.5684,-3.5711,-3.5844,-3.5993,-3.5874,-3.5479,-3.5418,-3.5211,-3.4747,-3.4794,-3.507,-3.5511,-3.5916,-3.6114,-3.5968,-3.5505,-3.5137,-3.4861,-3.4387,-3.415,-3.4117,-3.4117,-3.4219,-3.448,-3.4184,-3.4235,-3.4487,-3.3304,-3.2683,-3.2836,-3.2587,-3.2774,-3.3005,-3.3471,-3.3922,-3.4575,-3.4905,-3.503,-3.525,-3.5554,-3.5745,-3.5851,-3.6241,-3.6719,-3.7034,-3.745,-3.7847,-2.5679,-2.5601,-2.5668,-2.5643,-2.5632,-2.5707,-2.5602,-2.5741,-2.5804,-2.6296,-2.6644,-2.6064,-2.7194,-2.8655,-2.8501,-2.9004,-3.0258,-3.0297,-3.0188,-3.009,-2.9948,-3.0226,-3.0753,-3.073,-3.1155,-3.1848,-3.1831,-3.2623,-3.3929,-3.3408,-3.3403,-3.4054,-3.4134,-3.4134,-3.424,-3.4245,-3.4221,-3.4221,-3.4173,-3.4099,-3.3979,-3.3947,-3.3921,-3.3939,-3.3917,-3.3894,-3.3969,-3.4043,-3.3986,-3.3813,-3.3716,-3.3826,-3.4434,-3.5764,-3.6447,-3.6125,-3.6859,-3.7004,-3.6355,-3.6236,-3.6167,-3.6036,-3.5769,-3.548,-3.5537,-3.5554,-3.5537,-3.5605,-3.5796,-3.5902,-3.6095,-3.6302,-3.6328,-3.6234,-3.6268,-3.6259,-3.6318,-3.6284,-3.6266,-3.6207,-3.6156,-3.6019,-3.5975,-3.5759,-3.5542,-3.5453,-3.5402,-3.5318,-3.5267,-3.525,-3.5531,-3.5545,-3.5215,-3.5069,-3.4761,-3.4353,-3.443,-3.4423,-3.397,-3.3799,-3.3972,-3.4346,-3.4584,-3.5118,-3.5345,-3.547,-3.5853,-3.6169,-3.6478,-3.668,-3.6904,-3.7365,-3.7851,-3.8347,-3.8419,-2.5523,-2.56,-2.5607,-2.5637,-2.5736,-2.6241,-2.6459,-2.6544,-2.7028,-2.7105,-2.6884,-2.7097,-2.7677,-2.8354,-2.8693,-2.9486,-3.0521,-3.0449,-3.0328,-3.0256,-3.0525,-3.0806,-3.1054,-3.1467,-3.2141,-3.2833,-3.282,-3.334,-3.4207,-3.4106,-3.4157,-3.4435,-3.4473,-3.4473,-3.4473,-3.4473,-3.445,-3.4358,-3.4316,-3.4245,-3.4074,-3.3998,-3.4016,-3.4023,-3.4023,-3.403,-3.4148,-3.4173,-3.4074,-3.3921,-3.4074,-3.4692,-3.5873,-3.671,-3.7317,-3.7645,-3.7835,-3.7733,-3.7228,-3.7077,-3.686,-3.6409,-3.6174,-3.5915,-3.5667,-3.5656,-3.5673,-3.5723,-3.6124,-3.6571,-3.6802,-3.7257,-3.7408,-3.7111,-3.712,-3.7309,-3.7611,-3.737,-3.687,-3.6387,-3.6259,-3.6148,-3.6019,-3.5888,-3.5844,-3.5667,-3.5667,-3.5711,-3.5773,-3.5827,-3.58,-3.5837,-3.5762,-3.5818,-3.5511,-3.5397,-3.5483,-3.5257,-3.489,-3.4616,-3.4806,-3.4993,-3.5246,-3.5654,-3.5802,-3.6152,-3.652,-3.6921,-3.7352,-3.7862,-3.8351,-3.8766,-3.9091,-3.9246,-3.93,-2.5464,-2.5537,-2.5576,-2.5641,-2.5753,-2.6552,-2.6677,-2.6529,-2.7221,-2.7105,-2.6555,-2.6826,-2.7445,-2.8006,-2.8586,-2.9476,-3.0501,-3.0559,-3.0582,-3.0714,-3.1028,-3.149,-3.2048,-3.2769,-3.331,-3.3719,-3.3749,-3.4011,-3.4583,-3.4536,-3.4536,-3.4583,-3.4602,-3.4602,-3.4602,-3.4602,-3.4539,-3.4473,-3.4409,-3.4316,-3.4197,-3.408,-3.4049,-3.4099,-3.4049,-3.4117,-3.4216,-3.4216,-3.4167,-3.4203,-3.476,-3.5839,-3.7043,-3.7646,-3.8132,-3.8413,-3.8413,-3.8172,-3.783,-3.747,-3.7195,-3.6684,-3.6367,-3.626,-3.6123,-3.6118,-3.6158,-3.6593,-3.6954,-3.7288,-3.7553,-3.786,-3.8185,-3.8336,-3.806,-3.8163,-3.8456,-3.8198,-3.7577,-3.7008,-3.6724,-3.6483,-3.6191,-3.6131,-3.6088,-3.5941,-3.6011,-3.6122,-3.6224,-3.6308,-3.635,-3.6457,-3.6596,-3.6561,-3.6381,-3.6364,-3.6446,-3.6118,-3.5617,-3.5403,-3.5412,-3.547,-3.5671,-3.6344,-3.6718,-3.7267,-3.77,-3.8165,-3.8641,-3.9241,-3.9628,-3.964,-3.9784,-4.0022,-4.0111,-2.5451,-2.5416,-2.5527,-2.5659,-2.582,-2.6485,-2.6384,-2.5867,-2.6296,-2.6265,-2.5704,-2.5994,-2.6633,-2.7716,-2.8296,-2.9244,-3.023,-3.0598,-3.0925,-3.1321,-3.1651,-3.2333,-3.3667,-3.4245,-3.4466,-3.4534,-3.451,-3.4623,-3.4854,-3.468,-3.4661,-3.4795,-3.4854,-3.4682,-3.4722,-3.4663,-3.4757,-3.4602,-3.4495,-3.4386,-3.4293,-3.4173,-3.4099,-3.408,-3.4099,-3.4105,-3.4197,-3.4221,-3.4258,-3.4463,-3.5758,-3.6845,-3.7716,-3.8562,-3.8873,-3.8688,-3.8634,-3.8496,-3.8201,-3.781,-3.7429,-3.7351,-3.6873,-3.6385,-3.7024,-3.7053,-3.7211,-3.7738,-3.7997,-3.8099,-3.8269,-3.8521,-3.8917,-3.9491,-3.9226,-3.8888,-3.8681,-3.8681,-3.8346,-3.7819,-3.7491,-3.7206,-3.6654,-3.6606,-3.6579,-3.6481,-3.6724,-3.6825,-3.6886,-3.6943,-3.7173,-3.7248,-3.7248,-3.7135,-3.6921,-3.6803,-3.6803,-3.6381,-3.5959,-3.5788,-3.5727,-3.5766,-3.601,-3.6718,-3.7678,-3.8264,-3.8876,-3.9347,-3.981,-4.0299,-4.0431,-4.0305,-4.0526,-4.0962,-4.0944,-2.5455,-2.5475,-2.5519,-2.5931,-2.6432,-2.6172,-2.6207,-2.6412,-2.5986,-2.5782,-2.5724,-2.6826,-2.7078,-2.7252,-2.9012,-2.9553,-2.9302,-3.0095,-3.1014,-3.1725,-3.225,-3.3249,-3.4393,-3.4775,-3.485,-3.4811,-3.4788,-3.5109,-3.5663,-3.5034,-3.5071,-3.5776,-3.5605,-3.536,-3.4982,-3.5398,-3.5358,-3.4823,-3.4604,-3.4514,-3.44,-3.4253,-3.4124,-3.4154,-3.4179,-3.4185,-3.4216,-3.4293,-3.4685,-3.5398,-3.6483,-3.751,-3.838,-3.9008,-3.9234,-3.8934,-3.8759,-3.8684,-3.8636,-3.8473,-3.8442,-3.8426,-3.8061,-3.8077,-3.7986,-3.7974,-3.803,-3.8338,-3.8632,-3.9037,-3.9294,-3.9688,-4.0178,-4.0491,-4.0308,-3.9997,-3.9526,-3.9388,-3.9247,-3.8893,-3.8779,-3.8467,-3.7958,-3.7778,-3.7623,-3.7196,-3.7167,-3.7266,-3.7377,-3.7646,-3.7935,-3.7667,-3.7596,-3.7542,-3.7451,-3.7285,-3.702,-3.658,-3.6147,-3.581,-3.5783,-3.5796,-3.6141,-3.6632,-3.8236,-3.9118,-3.9844,-4.049,-4.0901,-4.1332,-4.1618,-4.1701,-4.1991,-4.2301,-4.2003,-2.5427,-2.5455,-2.5474,-2.5801,-2.6243,-2.6142,-2.6199,-2.6257,-2.6141,-2.5782,-2.5801,-2.6478,-2.6865,-2.6895,-2.8257,-2.9108,-2.9224,-3.0133,-3.1429,-3.2907,-3.3576,-3.4257,-3.4793,-3.4908,-3.4908,-3.4908,-3.4869,-3.5115,-3.5457,-3.5077,-3.5191,-3.5476,-3.5647,-3.5363,-3.4984,-3.5325,-3.5419,-3.4905,-3.4708,-3.467,-3.494,-3.4809,-3.4971,-3.5144,-3.5212,-3.5126,-3.4907,-3.4978,-3.5465,-3.628,-3.7009,-3.7872,-3.9075,-3.9387,-3.9402,-3.9104,-3.8752,-3.8613,-3.8815,-3.8729,-3.8707,-3.8866,-3.8868,-3.8856,-3.8854,-3.8883,-3.887,-3.9384,-3.9696,-3.9898,-4.0096,-4.0504,-4.0884,-4.1065,-4.1143,-4.0906,-4.0256,-4.0349,-4.0209,-3.9964,-3.99,-3.962,-3.8785,-3.8738,-3.8364,-3.79,-3.8115,-3.806,-3.8003,-3.8365,-3.867,-3.8578,-3.8703,-3.8865,-3.8581,-3.8295,-3.7562,-3.7056,-3.6636,-3.6188,-3.6185,-3.6242,-3.6831,-3.7581,-3.8864,-4.001,-4.0744,-4.1456,-4.198,-4.2384,-4.2808,-4.2844,-4.2844,-4.2711,-4.2498,-2.5397,-2.5388,-2.5464,-2.5492,-2.5683,-2.6271,-2.6193,-2.5854,-2.6155,-2.602,-2.5672,-2.5672,-2.6359,-2.6704,-2.7624,-2.8405,-3.0289,-3.0608,-3.2222,-3.3712,-3.473,-3.5095,-3.4906,-3.4927,-3.4908,-3.4946,-3.4946,-3.5135,-3.5344,-3.5249,-3.5173,-3.5382,-3.5325,-3.5078,-3.5059,-3.5097,-3.5078,-3.5116,-3.5013,-3.5281,-3.5683,-3.5608,-3.5696,-3.6278,-3.644,-3.6211,-3.5946,-3.6017,-3.6481,-3.7224,-3.7351,-3.8288,-3.958,-3.9628,-3.9338,-3.9073,-3.8682,-3.8663,-3.894,-3.8679,-3.8573,-3.9225,-3.9047,-3.8969,-3.9431,-3.9508,-3.9761,-4.0175,-4.0549,-4.0528,-4.0642,-4.0823,-4.1041,-4.1331,-4.1449,-4.1301,-4.1223,-4.1373,-4.1341,-4.081,-4.1078,-4.0492,-3.9713,-3.9247,-3.9316,-3.9153,-3.9309,-3.9325,-3.9355,-3.9665,-3.9878,-3.9853,-4.0105,-4.0401,-3.9906,-3.9372,-3.8429,-3.7654,-3.7255,-3.6921,-3.6935,-3.7175,-3.782,-3.8618,-3.9486,-4.0524,-4.1629,-4.2266,-4.2729,-4.2844,-4.2882,-4.2844,-4.2806,-4.2516,-4.2279,-2.5241,-2.5241,-2.5262,-2.5638,-2.6128,-2.5763,-2.5831,-2.6235,-2.5754,-2.5562,-2.559,-2.6608,-2.6897,-2.6705,-2.8368,-2.9602,-2.988,-3.0979,-3.2501,-3.4096,-3.4971,-3.5181,-3.5053,-3.4945,-3.4908,-3.5022,-3.5609,-3.5855,-3.5931,-3.6215,-3.6481,-3.5931,-3.6159,-3.6159,-3.5097,-3.5533,-3.5912,-3.5874,-3.5735,-3.6023,-3.6479,-3.6096,-3.6106,-3.6775,-3.6889,-3.6881,-3.6831,-3.6911,-3.7392,-3.8018,-3.8345,-3.8738,-3.9354,-3.9282,-3.8906,-3.8585,-3.8728,-3.8904,-3.9105,-3.9388,-3.9815,-3.9924,-3.9833,-3.9846,-3.9615,-3.9915,-4.0065,-4.0285,-4.0514,-4.0728,-4.0823,-4.0871,-4.1163,-4.1446,-4.1568,-4.1681,-4.1866,-4.2008,-4.2032,-4.2225,-4.233,-4.223,-4.1555,-4.13,-4.1092,-4.0632,-4.0537,-4.0661,-4.0785,-4.0895,-4.0983,-4.0946,-4.117,-4.1342,-4.0787,-4.0129,-3.9242,-3.8492,-3.8046,-3.7895,-3.7914,-3.7905,-3.8466,-3.9085,-3.9816,-4.0961,-4.219,-4.2555,-4.29,-4.29,-4.29,-4.2768,-4.2595,-4.2338,-4.1931,-2.5573,-2.5209,-2.5212,-2.5461,-2.5768,-2.5403,-2.5691,-2.6304,-2.6036,-2.6025,-2.6485,-2.7386,-2.7443,-2.7213,-2.8861,-2.9761,-3.072,-3.2423,-3.3805,-3.4644,-3.5066,-3.5119,-3.5018,-3.4964,-3.4927,-3.4984,-3.5306,-3.5571,-3.5799,-3.6348,-3.6272,-3.5742,-3.6462,-3.6007,-3.523,-3.5723,-3.6121,-3.6119,-3.6036,-3.6434,-3.7324,-3.6726,-3.6839,-3.7585,-3.7748,-3.769,-3.7759,-3.787,-3.8055,-3.8365,-3.8677,-3.8944,-3.9119,-3.8897,-3.842,-3.8132,-3.8294,-3.8812,-3.914,-3.9475,-3.9834,-4.0269,-4.0104,-3.9885,-3.9662,-3.9833,-4.0037,-4.0153,-4.0434,-4.068,-4.0871,-4.1139,-4.1348,-4.1782,-4.2045,-4.2323,-4.2647,-4.2655,-4.2577,-4.2882,-4.2995,-4.2758,-4.2548,-4.247,-4.1956,-4.1064,-4.1431,-4.1537,-4.1335,-4.1515,-4.1864,-4.1974,-4.2176,-4.2124,-4.1583,-4.0887,-3.9982,-3.9402,-3.8989,-3.8989,-3.9065,-3.9045,-3.9086,-3.9831,-4.0607,-4.1403,-4.2444,-4.2732,-4.29,-4.29,-4.2806,-4.2595,-4.232,-4.2074,-4.163,-2.6221,-2.5551,-2.5532,-2.5551,-2.5551,-2.5597,-2.6037,-2.663,-2.6783,-2.7103,-2.7663,-2.7873,-2.8122,-2.809,-2.8785,-3.0112,-3.1881,-3.3844,-3.5055,-3.507,-3.5081,-3.5089,-3.5001,-3.4945,-3.4908,-3.4908,-3.5211,-3.5211,-3.5306,-3.5893,-3.6291,-3.5401,-3.6007,-3.6064,-3.5552,-3.559,-3.6121,-3.6385,-3.6377,-3.681,-3.7887,-3.7418,-3.7792,-3.8465,-3.8818,-3.8675,-3.872,-3.8804,-3.8761,-3.845,-3.8768,-3.885,-3.8699,-3.8358,-3.7925,-3.7578,-3.7787,-3.8216,-3.8693,-3.9093,-3.9561,-4.0104,-3.9747,-3.9523,-3.9401,-3.9454,-3.9577,-3.9851,-4.0103,-4.0451,-4.0853,-4.1223,-4.1647,-4.2132,-4.2613,-4.3045,-4.3318,-4.3178,-4.3032,-4.305,-4.3232,-4.3098,-4.2839,-4.2653,-4.2084,-4.1735,-4.2139,-4.2359,-4.2158,-4.2158,-4.2506,-4.2708,-4.2837,-4.2805,-4.2317,-4.2064,-4.1141,-4.0753,-4.0259,-4.0321,-4.0495,-4.0659,-4.0783,-4.0882,-4.155,-4.2171,-4.2501,-4.275,-4.2862,-4.2862,-4.2768,-4.2577,-4.2239,-4.1803,-4.1321,-2.7267,-2.7101,-2.712,-2.7115,-2.7115,-2.7115,-2.7172,-2.7443,-2.8027,-2.8013,-2.7799,-2.889,-2.9057,-2.8962,-2.9383,-3.0757,-3.2676,-3.4419,-3.5251,-3.5203,-3.5138,-3.5053,-3.5018,-3.4926,-3.4908,-3.5116,-3.542,-3.5457,-3.5666,-3.6936,-3.6765,-3.5666,-3.6462,-3.6746,-3.5931,-3.559,-3.6083,-3.6898,-3.7007,-3.7486,-3.8141,-3.831,-3.8277,-3.8907,-3.9184,-3.9418,-3.9561,-3.9621,-3.9573,-3.9276,-3.8897,-3.8438,-3.8029,-3.7452,-3.7034,-3.6899,-3.7384,-3.7955,-3.8119,-3.8924,-3.9239,-3.9259,-3.9185,-3.8914,-3.8821,-3.8914,-3.9049,-3.9182,-3.9682,-4.0317,-4.0871,-4.1313,-4.1715,-4.2154,-4.2648,-4.3114,-4.3353,-4.341,-4.3339,-4.3339,-4.3426,-4.3442,-4.3185,-4.302,-4.28,-4.258,-4.2782,-4.2983,-4.291,-4.2947,-4.3149,-4.3277,-4.3369,-4.3265,-4.3032,-4.2959,-4.2559,-4.2322,-4.2026,-4.2027,-4.2211,-4.252,-4.2683,-4.2206,-4.1916,-4.2096,-4.2418,-4.2595,-4.2634,-4.2498,-4.2537,-4.2616,-4.218,-4.1717,-4.1185,-2.7827,-2.7418,-2.7399,-2.7399,-2.7494,-2.7891,-2.8096,-2.8256,-2.8976,-2.9147,-2.9071,-2.9564,-2.9983,-3.0173,-3.0817,-3.2157,-3.3686,-3.4558,-3.5088,-3.507,-3.5018,-3.5,-3.5,-3.4926,-3.4927,-3.5003,-3.5306,-3.5666,-3.5704,-3.7125,-3.722,-3.6879,-3.7485,-3.7447,-3.6538,-3.631,-3.6557,-3.7315,-3.7425,-3.7926,-3.8907,-3.9071,-3.9112,-3.9263,-3.9498,-3.9788,-3.9848,-3.9717,-3.9427,-3.898,-3.8792,-3.8346,-3.7887,-3.7574,-3.7154,-3.6891,-3.7564,-3.8118,-3.807,-3.8835,-3.9102,-3.9023,-3.8805,-3.8616,-3.8504,-3.86,-3.8652,-3.8912,-3.9528,-4.0334,-4.0849,-4.1446,-4.2021,-4.2501,-4.2923,-4.3245,-4.3442,-4.3479,-4.3479,-4.3479,-4.3479,-4.3461,-4.3479,-4.3387,-4.3442,-4.3479,-4.3479,-4.3479,-4.3479,-4.3497,-4.3497,-4.3479,-4.3479,-4.3428,-4.3322,-4.3286,-4.3251,-4.3196,-4.316,-4.3178,-4.3142,-4.305,-4.2959,-4.2722,-4.2528,-4.2198,-4.1973,-4.2015,-4.2098,-4.2221,-4.236,-4.236,-4.2015,-4.163,-4.1185,-2.848,-2.7811,-2.7811,-2.7886,-2.8112,-2.8617,-2.9025,-2.932,-2.9943,-3.0075,-2.9926,-3.0116,-3.0568,-3.1288,-3.2236,-3.3373,-3.468,-3.4756,-3.4927,-3.4945,-3.4945,-3.4927,-3.4927,-3.4927,-3.4945,-3.4965,-3.5344,-3.5439,-3.5855,-3.6975,-3.7277,-3.7277,-3.8016,-3.7998,-3.6899,-3.6936,-3.7334,-3.7408,-3.7591,-3.8339,-3.9358,-3.9717,-3.9717,-3.9739,-3.9826,-3.987,-3.9781,-3.9513,-3.9053,-3.8652,-3.8504,-3.8407,-3.7986,-3.8201,-3.8052,-3.7606,-3.8328,-3.8538,-3.8537,-3.8632,-3.8876,-3.8821,-3.8398,-3.8302,-3.8311,-3.827,-3.8307,-3.8863,-3.941,-4.0231,-4.0839,-4.17,-4.232,-4.2826,-4.3178,-4.3479,-4.3479,-4.3479,-4.3479,-4.3479,-4.3479,-4.3479,-4.3479,-4.3479,-4.3479,-4.3479,-4.3479,-4.3479,-4.3479,-4.3481,-4.3481,-4.3463,-4.3463,-4.3481,-4.3411,-4.3376,-4.334,-4.3269,-4.3269,-4.3286,-4.3178,-4.3105,-4.2977,-4.2793,-4.2582,-4.2216,-4.1846,-4.1656,-4.1973,-4.2198,-4.2279,-4.2239,-4.2056,-4.1888,-4.1525,-2.96,-2.9506,-2.9487,-2.9921,-3.0316,-2.9971,-3.021,-3.0817,-3.1023,-3.0587,-3.0059,-3.072,-3.1137,-3.1686,-3.2937,-3.3638,-3.4074,-3.4604,-3.5003,-3.5059,-3.5116,-3.5191,-3.5096,-3.5038,-3.5248,-3.5362,-3.5874,-3.5647,-3.6046,-3.7052,-3.724,-3.72,-3.8191,-3.8286,-3.7469,-3.7527,-3.7371,-3.7542,-3.8042,-3.881,-3.9547,-3.9717,-3.9762,-3.9848,-3.9867,-3.9804,-3.958,-3.9231,-3.8699,-3.8245,-3.8258,-3.817,-3.8122,-3.8953,-3.9191,-3.8783,-3.8439,-3.8044,-3.817,-3.839,-3.856,-3.843,-3.789,-3.7873,-3.7873,-3.7711,-3.7601,-3.8035,-3.857,-3.9576,-4.0718,-4.1725,-4.2302,-4.2884,-4.3356,-4.3513,-4.3513,-4.3479,-4.3479,-4.3479,-4.3479,-4.3497,-4.3497,-4.3497,-4.3479,-4.3479,-4.3479,-4.3479,-4.3444,-4.3428,-4.3465,-4.3446,-4.3463,-4.3446,-4.3481,-4.3411,-4.3411,-4.3376,-4.3358,-4.3358,-4.3286,-4.3142,-4.2822,-4.2652,-4.2454,-4.2396,-4.2297,-4.2198,-4.2198,-4.2198,-4.2279,-4.2279,-4.2239,-4.2015,-4.1846,-2.9789,-2.9789,-2.9789,-2.9996,-3.0374,-3.0937,-3.1218,-3.1385,-3.2198,-3.1876,-3.0985,-3.1516,-3.2122,-3.2747,-3.3922,-3.4433,-3.4546,-3.485,-3.5305,-3.559,-3.5722,-3.5969,-3.6425,-3.6482,-3.6387,-3.6235,-3.6653,-3.7224,-3.7243,-3.768,-3.8155,-3.8537,-3.9071,-3.9185,-3.8232,-3.8271,-3.827,-3.8458,-3.8904,-3.9448,-3.975,-3.9845,-3.9845,-3.9889,-3.9889,-3.9758,-3.9439,-3.8971,-3.8432,-3.8038,-3.8256,-3.8524,-3.8581,-3.9284,-3.9941,-3.9746,-3.902,-3.8574,-3.8553,-3.8479,-3.8383,-3.8213,-3.7728,-3.7339,-3.7242,-3.7031,-3.7053,-3.7546,-3.8197,-3.9323,-4.07,-4.1795,-4.2681,-4.3283,-4.3701,-4.3738,-4.3771,-4.3513,-4.3479,-4.3479,-4.3479,-4.3463,-4.3463,-4.3463,-4.341,-4.341,-4.3375,-4.3393,-4.3358,-4.3286,-4.334,-4.3429,-4.3411,-4.3446,-4.3463,-4.3463,-4.3463,-4.3428,-4.3428,-4.341,-4.3393,-4.3214,-4.2936,-4.2649,-4.2454,-4.2476,-4.2652,-4.2378,-4.199,-4.2157,-4.2378,-4.2418,-4.2418,-4.2239,-4.2015,-2.9842,-2.9842,-2.9808,-3.0015,-3.0487,-3.1599,-3.1975,-3.2048,-3.2842,-3.2634,-3.2027,-3.2349,-3.3125,-3.3788,-3.4508,-3.4925,-3.5001,-3.5075,-3.5454,-3.5873,-3.631,-3.6614,-3.6937,-3.7242,-3.7413,-3.7262,-3.7718,-3.8232,-3.8804,-3.9128,-3.9395,-3.9869,-3.9869,-3.9621,-3.9146,-3.9052,-3.9147,-3.9058,-3.951,-3.9791,-3.9826,-3.9867,-3.9889,-3.9889,-3.9848,-3.9717,-3.9345,-3.8765,-3.8118,-3.7611,-3.8139,-3.8377,-3.8269,-3.9185,-3.9918,-3.9817,-3.9226,-3.8892,-3.8672,-3.8472,-3.8197,-3.7954,-3.7598,-3.6918,-3.593,-3.6044,-3.662,-3.7236,-3.8287,-3.9512,-4.0911,-4.2171,-4.3267,-4.3906,-4.4277,-4.4265,-4.4191,-4.3915,-4.3621,-4.3497,-4.3463,-4.3428,-4.3428,-4.3428,-4.3375,-4.3286,-4.3268,-4.3305,-4.3269,-4.3214,-4.3251,-4.334,-4.3376,-4.3393,-4.3463,-4.3479,-4.3479,-4.3479,-4.3479,-4.3479,-4.3463,-4.3322,-4.3086,-4.2786,-4.2534,-4.2516,-4.2613,-4.2198,-4.1846,-4.2279,-4.2616,-4.2655,-4.2616,-4.2458,-4.2338,-2.9888,-2.9891,-2.9842,-3.0656,-3.1958,-3.15,-3.2144,-3.3128,-3.2786,-3.2653,-3.2613,-3.3218,-3.3634,-3.4051,-3.4658,-3.5092,-3.5092,-3.5092,-3.5339,-3.5605,-3.5966,-3.6689,-3.7183,-3.7659,-3.8115,-3.844,-3.8765,-3.9337,-3.991,-3.9891,-3.9684,-3.9359,-4.0049,-3.9655,-3.9412,-3.9528,-3.9675,-3.9583,-3.981,-3.9826,-3.9804,-3.9826,-3.9889,-3.9889,-3.9848,-3.9628,-3.9063,-3.8401,-3.7807,-3.7083,-3.7644,-3.8065,-3.813,-3.8992,-3.9627,-3.9551,-3.9197,-3.8897,-3.8707,-3.8188,-3.7533,-3.7404,-3.7145,-3.6448,-3.5104,-3.6335,-3.695,-3.723,-3.8533,-4.011,-4.154,-4.2814,-4.4105,-4.4946,-4.5273,-4.5137,-4.4873,-4.4281,-4.3974,-4.364,-4.3463,-4.3393,-4.3322,-4.3286,-4.325,-4.316,-4.316,-4.3142,-4.3196,-4.316,-4.3214,-4.3251,-4.334,-4.3393,-4.3479,-4.3479,-4.3479,-4.3479,-4.3479,-4.3497,-4.3463,-4.3322,-4.3196,-4.2992,-4.2745,-4.2688,-4.2613,-4.2378,-4.232,-4.2655,-4.2864,-4.2788,-4.2806,-4.2711,-4.2729,-3.0022,-3.0022,-2.9991,-3.0623,-3.1724,-3.191,-3.2402,-3.3102,-3.3766,-3.407,-3.4013,-3.3916,-3.4124,-3.458,-3.4882,-3.5166,-3.5259,-3.5791,-3.5848,-3.6457,-3.7181,-3.7868,-3.8306,-3.8687,-3.947,-3.9604,-3.9775,-3.9871,-4.0196,-4.0482,-4.0279,-4.0127,-4.0389,-4.0095,-3.9986,-3.9985,-3.9973,-3.9927,-3.9886,-3.9867,-3.9848,-3.9848,-3.9889,-3.9889,-3.9693,-3.9483,-3.9008,-3.7998,-3.7594,-3.7458,-3.7507,-3.7646,-3.7937,-3.8747,-3.9172,-3.9176,-3.8854,-3.8681,-3.8602,-3.8156,-3.7647,-3.6788,-3.661,-3.6141,-3.4964,-3.5964,-3.7048,-3.7851,-3.9164,-4.093,-4.2838,-4.4054,-4.514,-4.6092,-4.6403,-4.6157,-4.5705,-4.5101,-4.4546,-4.4322,-4.3758,-4.3358,-4.3251,-4.3178,-4.3087,-4.3014,-4.3032,-4.3068,-4.3086,-4.3123,-4.3178,-4.3251,-4.334,-4.3411,-4.3497,-4.3479,-4.3479,-4.3479,-4.3479,-4.3463,-4.3463,-4.3411,-4.3287,-4.3123,-4.2991,-4.286,-4.2768,-4.2691,-4.2729,-4.2844,-4.2882,-4.29,-4.29,-4.29,-4.29,-3.0102,-3.0122,-3.0369,-3.0928,-3.1713,-3.2302,-3.2849,-3.3508,-3.4558,-3.5092,-3.5054,-3.4482,-3.452,-3.5032,-3.5162,-3.5179,-3.5312,-3.5728,-3.6167,-3.6816,-3.7674,-3.8667,-3.9221,-3.9737,-4.0234,-4.054,-4.0692,-4.075,-4.1208,-4.1074,-4.1186,-4.1255,-4.1154,-4.1051,-4.0747,-4.0727,-4.0623,-4.0369,-4.029,-4.006,-3.9984,-3.9889,-3.9889,-3.9965,-4.0023,-3.9952,-3.9426,-3.8536,-3.7804,-3.7572,-3.7449,-3.7453,-3.7862,-3.8397,-3.8761,-3.8711,-3.86,-3.8391,-3.8343,-3.7841,-3.7371,-3.6546,-3.6564,-3.6254,-3.5999,-3.6522,-3.8219,-3.8823,-4.0359,-4.216,-4.4272,-4.5432,-4.6581,-4.7617,-4.7419,-4.7154,-4.67,-4.6132,-4.554,-4.504,-4.44,-4.3743,-4.3543,-4.3469,-4.3178,-4.3086,-4.305,-4.3068,-4.3142,-4.3196,-4.3233,-4.3305,-4.3394,-4.3446,-4.3497,-4.3497,-4.3479,-4.3479,-4.3479,-4.3463,-4.3446,-4.3376,-4.3323,-4.316,-4.303,-4.2994,-4.29,-4.2806,-4.2806,-4.29,-4.29,-4.29,-4.29,-4.29,-4.29,-3.0083,-3.0217,-3.0921,-3.1759,-3.2447,-3.2561,-3.3448,-3.4547,-3.4897,-3.5053,-3.5091,-3.503,-3.5047,-3.5181,-3.5176,-3.5193,-3.5308,-3.5496,-3.5897,-3.6719,-3.7903,-3.8419,-3.9049,-3.9852,-4.0635,-4.1304,-4.138,-4.1648,-4.2508,-4.2297,-4.245,-4.2546,-4.2393,-4.224,-4.1788,-4.222,-4.2034,-4.1317,-4.1181,-4.0745,-4.023,-4.0079,-4.0079,-4.0022,-4.0333,-4.0284,-3.9751,-3.8798,-3.8084,-3.7791,-3.7295,-3.7094,-3.7101,-3.8007,-3.8439,-3.8448,-3.8448,-3.8391,-3.8343,-3.7145,-3.668,-3.6604,-3.6869,-3.6913,-3.7317,-3.847,-3.9753,-4.012,-4.2011,-4.3816,-4.5459,-4.6928,-4.8128,-4.8704,-4.8541,-4.8089,-4.7596,-4.6765,-4.6084,-4.5644,-4.4985,-4.4345,-4.407,-4.3777,-4.3451,-4.3232,-4.3141,-4.3123,-4.3196,-4.3233,-4.3305,-4.3322,-4.3411,-4.3446,-4.3497,-4.3497,-4.3479,-4.3479,-4.3463,-4.3428,-4.3376,-4.3305,-4.3215,-4.3104,-4.3012,-4.2938,-4.2938,-4.29,-4.29,-4.29,-4.29,-4.29,-4.29,-4.29,-4.29,-3.0157,-3.0252,-3.1092,-3.1917,-3.2607,-3.261,-3.3309,-3.4235,-3.441,-3.4664,-3.5102,-3.5176,-3.5193,-3.5193,-3.5193,-3.5229,-3.5381,-3.6604,-3.7063,-3.6738,-3.8323,-3.8954,-3.947,-4.0024,-4.0807,-4.1323,-4.1571,-4.2068,-4.2718,-4.2966,-4.287,-4.2851,-4.3347,-4.3079,-4.2525,-4.2495,-4.2253,-4.2075,-4.192,-4.1635,-4.0896,-4.0745,-4.0517,-4.0041,-4.0231,-4.0265,-3.9927,-3.8995,-3.8394,-3.814,-3.7651,-3.7269,-3.7442,-3.8294,-3.8359,-3.8391,-3.8391,-3.8391,-3.8253,-3.7698,-3.7322,-3.74,-3.7439,-3.7768,-3.8437,-3.9078,-4.0162,-4.1588,-4.3432,-4.5253,-4.7151,-4.8559,-4.9625,-4.9986,-4.9777,-4.9067,-4.8375,-4.7279,-4.6446,-4.6225,-4.5711,-4.5235,-4.4906,-4.4636,-4.4235,-4.3816,-4.3707,-4.3379,-4.3341,-4.3359,-4.3394,-4.3428,-4.3463,-4.3497,-4.3516,-4.3681,-4.3718,-4.3664,-4.3538,-4.3376,-4.3305,-4.3215,-4.3123,-4.3012,-4.2956,-4.29,-4.29,-4.29,-4.29,-4.29,-4.29,-4.29,-4.29,-4.29,-4.29,-3.0357,-3.0701,-3.156,-3.2386,-3.3073,-3.3096,-3.3608,-3.4327,-3.4426,-3.4751,-3.5133,-3.519,-3.519,-3.519,-3.5209,-3.5496,-3.5725,-3.6642,-3.7827,-3.7445,-3.8916,-3.968,-4.0062,-4.0444,-4.1514,-4.1991,-4.2431,-4.287,-4.3787,-4.373,-4.3768,-4.3959,-4.413,-4.405,-4.3681,-4.3539,-4.3282,-4.3042,-4.2791,-4.245,-4.1882,-4.1522,-4.1219,-4.0814,-4.0778,-4.0935,-4.0291,-3.9619,-3.8996,-3.8877,-3.8415,-3.7829,-3.8105,-3.8262,-3.8343,-3.8391,-3.8262,-3.8375,-3.8332,-3.8147,-3.8122,-3.8857,-3.852,-3.8774,-3.9593,-4.0405,-4.1552,-4.2987,-4.4702,-4.6563,-4.8447,-4.9876,-5.0884,-5.1247,-5.0544,-4.9833,-4.8938,-4.7805,-4.7259,-4.7001,-4.6728,-4.627,-4.5727,-4.5475,-4.5149,-4.4766,-4.4346,-4.3998,-4.3595,-4.3558,-4.3558,-4.3628,-4.3809,-4.3993,-4.403,-4.4066,-4.4048,-4.3903,-4.3649,-4.3323,-4.3251,-4.3141,-4.3049,-4.2938,-4.2938,-4.29,-4.29,-4.29,-4.29,-4.29,-4.29,-4.29,-4.29,-4.29,-4.29,-3.072,-3.1503,-3.2382,-3.3203,-3.3891,-3.3987,-3.4445,-3.5095,-3.5152,-3.5171,-3.519,-3.519,-3.519,-3.519,-3.519,-3.5649,-3.626,-3.6547,-3.7521,-3.8419,-3.9088,-3.9947,-4.075,-4.1285,-4.2049,-4.3195,-4.3825,-4.3864,-4.5067,-4.4876,-4.4914,-4.5067,-4.493,-4.4827,-4.4725,-4.4585,-4.425,-4.3858,-4.3663,-4.3227,-4.2659,-4.2431,-4.1996,-4.1745,-4.2002,-4.2176,-4.1807,-4.1317,-4.0818,-4.0194,-3.9225,-3.8337,-3.7948,-3.8035,-3.8262,-3.8335,-3.8132,-3.8383,-3.8629,-3.8404,-3.9076,-3.9798,-3.9795,-4.0075,-4.0735,-4.1715,-4.2829,-4.4309,-4.5982,-4.7741,-4.9514,-5.0912,-5.2265,-5.1826,-5.109,-5.0268,-4.9413,-4.8696,-4.8257,-4.7956,-4.7702,-4.7193,-4.6421,-4.6099,-4.6101,-4.5662,-4.5241,-4.4839,-4.4419,-4.3814,-4.3868,-4.3868,-4.4141,-4.4563,-4.4618,-4.4563,-4.429,-4.4144,-4.3615,-4.3287,-4.3196,-4.3104,-4.2994,-4.2938,-4.29,-4.29,-4.29,-4.29,-4.29,-4.29,-4.29,-4.29,-4.29,-4.29,-4.29,-3.158,-3.2386,-3.3261,-3.3777,-3.4063,-3.4617,-3.4694,-3.4426,-3.4904,-3.519,-3.519,-3.519,-3.519,-3.519,-3.5209,-3.5763,-3.6222,-3.6721,-3.7655,-3.8419,-3.903,-3.9756,-4.052,-4.1323,-4.2183,-4.3023,-4.3768,-4.436,-4.5086,-4.5277,-4.5277,-4.5258,-4.5235,-4.517,-4.5106,-4.5038,-4.4782,-4.4602,-4.4464,-4.3985,-4.3531,-4.3322,-4.2791,-4.2621,-4.2697,-4.2759,-4.2396,-4.2188,-4.1674,-4.0951,-4.0092,-3.9311,-3.9016,-3.8619,-3.8391,-3.8391,-3.8472,-3.8678,-3.8827,-3.9098,-3.9644,-4.0451,-4.0683,-4.1315,-4.2002,-4.2907,-4.3961,-4.5434,-4.6991,-4.8619,-4.9824,-5.111,-5.1857,-5.1395,-5.0711,-4.9953,-4.9145,-4.868,-4.8291,-4.8218,-4.8,-4.7779,-4.6986,-4.7083,-4.7031,-4.6612,-4.6155,-4.5697,-4.5149,-4.4565,-4.4308,-4.4345,-4.4711,-4.5205,-4.5114,-4.5041,-4.4693,-4.4327,-4.3743,-4.3251,-4.3141,-4.3049,-4.2956,-4.2938,-4.29,-4.29,-4.29,-4.29,-4.29,-4.29,-4.29,-4.29,-4.29,-4.29,-4.29,-3.2153,-3.3223,-3.3757,-3.4178,-3.4522,-3.498,-3.4904,-3.4617,-3.5018,-3.519,-3.519,-3.519,-3.519,-3.519,-3.5248,-3.5649,-3.6453,-3.6568,-3.7406,-3.8667,-3.8954,-3.9909,-4.0635,-4.1323,-4.2259,-4.2985,-4.3558,-4.4074,-4.4934,-4.5277,-4.5297,-4.5256,-4.5216,-4.5197,-4.5154,-4.5129,-4.5061,-4.4976,-4.4849,-4.4573,-4.4345,-4.4118,-4.3644,-4.3152,-4.3133,-4.3128,-4.2915,-4.2875,-4.2699,-4.2166,-4.1426,-4.0676,-4.0112,-3.9318,-3.8909,-3.8925,-3.8876,-3.9119,-3.9265,-3.9368,-4.0054,-4.0906,-4.1655,-4.2361,-4.3066,-4.3891,-4.4985,-4.6279,-4.7748,-4.9141,-5.0088,-5.0854,-5.0796,-5.0652,-5.0028,-4.9354,-4.8817,-4.8363,-4.8206,-4.8188,-4.8109,-4.7956,-4.7875,-4.797,-4.7773,-4.7119,-4.6661,-4.6403,-4.5802,-4.5185,-4.4984,-4.5022,-4.5424,-4.5826,-4.5717,-4.5515,-4.513,-4.4581,-4.3724,-4.3323,-4.314,-4.3048,-4.3047,-4.2992,-4.29,-4.2918,-4.2936,-4.29,-4.29,-4.2936,-4.3009,-4.2991,-4.2973,-4.29,-4.29,-3.2592,-3.4082,-3.4101,-3.4541,-3.5117,-3.5193,-3.5174,-3.5174,-3.5174,-3.5174,-3.5174,-3.519,-3.519,-3.519,-3.5209,-3.5706,-3.6186,-3.6377,-3.7217,-3.8897,-3.8726,-3.9547,-4.0922,-4.1667,-4.2603,-4.3271,-4.3692,-4.394,-4.4819,-4.522,-4.5275,-4.5194,-4.5237,-4.5218,-4.5154,-4.5106,-4.5061,-4.5057,-4.4943,-4.4781,-4.4819,-4.4743,-4.4592,-4.4061,-4.4237,-4.4569,-4.4306,-4.4284,-4.4429,-4.3754,-4.2953,-4.2019,-4.0963,-4.0298,-4.0,-4.0037,-4.0138,-4.0407,-4.0692,-4.0898,-4.127,-4.2064,-4.2689,-4.3728,-4.4628,-4.5168,-4.6184,-4.7085,-4.8487,-4.9457,-5.0372,-5.0601,-5.0529,-5.016,-4.9529,-4.8964,-4.847,-4.8152,-4.8152,-4.8098,-4.7995,-4.7879,-4.7884,-4.7947,-4.7875,-4.731,-4.7088,-4.6957,-4.663,-4.5942,-4.5745,-4.5765,-4.5968,-4.6335,-4.646,-4.6184,-4.5599,-4.4906,-4.3958,-4.3503,-4.3391,-4.33,-4.3136,-4.3226,-4.3317,-4.3045,-4.2973,-4.2936,-4.3009,-4.3244,-4.3262,-4.3154,-4.3118,-4.3208,-4.2955,-3.3968,-3.4904,-3.4904,-3.504,-3.5179,-3.5198,-3.5181,-3.5127,-3.5127,-3.5143,-3.5193,-3.519,-3.5174,-3.5193,-3.5193,-3.5632,-3.6167,-3.6169,-3.7048,-3.8078,-3.844,-3.9471,-4.117,-4.1819,-4.2889,-4.3634,-4.3902,-4.3845,-4.4284,-4.4819,-4.5237,-4.5154,-4.5197,-4.5154,-4.5106,-4.5057,-4.5033,-4.5057,-4.4962,-4.4895,-4.4895,-4.4895,-4.4743,-4.463,-4.4843,-4.4938,-4.4801,-4.4919,-4.4931,-4.4564,-4.3812,-4.2779,-4.1596,-4.1511,-4.1729,-4.2115,-4.2101,-4.2434,-4.2959,-4.3289,-4.3758,-4.4165,-4.4923,-4.5754,-4.6434,-4.6722,-4.7266,-4.8103,-4.8938,-4.9819,-5.0361,-5.0363,-5.0248,-4.9683,-4.9159,-4.865,-4.8146,-4.8061,-4.8061,-4.7953,-4.7826,-4.7814,-4.7861,-4.7806,-4.7733,-4.7661,-4.7601,-4.7505,-4.7451,-4.7039,-4.668,-4.6612,-4.653,-4.6749,-4.6964,-4.6688,-4.5994,-4.5192,-4.4245,-4.3917,-4.3733,-4.3595,-4.3494,-4.3728,-4.3806,-4.3441,-4.3152,-4.2973,-4.3099,-4.3588,-4.3842,-4.3896,-4.4059,-4.4186,-4.357,-3.4448,-3.5152,-3.5193,-3.5179,-3.5181,-3.5164,-3.5147,-3.5092,-3.5092,-3.5127,-3.5143,-3.5143,-3.5162,-3.5162,-3.5143,-3.5408,-3.5961,-3.5848,-3.6821,-3.7792,-3.8575,-3.9452,-4.0635,-4.1627,-4.2354,-4.3138,-4.3767,-4.392,-4.3749,-4.4206,-4.4643,-4.4753,-4.4865,-4.5151,-4.5103,-4.5057,-4.5014,-4.5057,-4.4962,-4.4914,-4.4895,-4.4895,-4.4895,-4.4895,-4.4919,-4.5014,-4.5132,-4.5197,-4.518,-4.4851,-4.4137,-4.3415,-4.2578,-4.2321,-4.2741,-4.3286,-4.3773,-4.438,-4.5337,-4.5987,-4.6305,-4.6544,-4.6947,-4.7675,-4.783,-4.8159,-4.8539,-4.933,-4.9569,-5.034,-5.0259,-5.024,-4.9986,-4.954,-4.9039,-4.8549,-4.8138,-4.7862,-4.7844,-4.7826,-4.7735,-4.7735,-4.7759,-4.7759,-4.7687,-4.7687,-4.7699,-4.7699,-4.7735,-4.7808,-4.756,-4.7347,-4.7139,-4.7139,-4.737,-4.693,-4.6223,-4.5385,-4.4584,-4.4353,-4.4155,-4.393,-4.3846,-4.3917,-4.3899,-4.3722,-4.3433,-4.3514,-4.3914,-4.4512,-4.4675,-4.4747,-4.4928,-4.4957,-4.4343,-3.4407,-3.5051,-3.5073,-3.5075,-3.5075,-3.5001,-3.4945,-3.4964,-3.4964,-3.4945,-3.4927,-3.4946,-3.5039,-3.5245,-3.5245,-3.5321,-3.5644,-3.6329,-3.7166,-3.7852,-3.8518,-3.9697,-4.0382,-4.086,-4.181,-4.2749,-4.3536,-4.3347,-4.3004,-4.371,-4.4223,-4.416,-4.462,-4.5239,-4.5192,-4.5148,-4.5084,-4.5038,-4.4967,-4.4895,-4.4895,-4.4895,-4.4895,-4.4895,-4.4919,-4.5,-4.5135,-4.5201,-4.5262,-4.4985,-4.4519,-4.4166,-4.3802,-4.3595,-4.432,-4.489,-4.5592,-4.6441,-4.7417,-4.8082,-4.8257,-4.8494,-4.8937,-4.9154,-4.9235,-4.9415,-4.9834,-5.0092,-5.0363,-5.0361,-5.0268,-5.0144,-4.9822,-4.9408,-4.8952,-4.8495,-4.8093,-4.7741,-4.7699,-4.7699,-4.7699,-4.7699,-4.7699,-4.7699,-4.7699,-4.7699,-4.7699,-4.7699,-4.7735,-4.7826,-4.7753,-4.7632,-4.7493,-4.756,-4.7681,-4.706,-4.63,-4.5861,-4.5206,-4.4887,-4.4693,-4.4759,-4.4502,-4.39,-4.3829,-4.4214,-4.4411,-4.453,-4.4983,-4.5359,-4.5251,-4.5281,-4.5528,-4.5468,-4.5006,-3.4298,-3.4467,-3.4467,-3.4445,-3.4401,-3.4401,-3.4375,-3.4386,-3.4409,-3.4367,-3.4431,-3.4491,-3.4889,-3.6026,-3.6063,-3.6216,-3.6576,-3.709,-3.7595,-3.8225,-3.8515,-3.9891,-4.0948,-4.1099,-4.1712,-4.2536,-4.3314,-4.3404,-4.3075,-4.363,-4.4279,-4.4706,-4.4836,-4.5084,-4.4991,-4.4967,-4.4967,-4.4943,-4.49,-4.4846,-4.4846,-4.487,-4.4895,-4.4895,-4.4895,-4.5038,-4.5132,-4.5199,-4.5165,-4.5052,-4.4957,-4.4966,-4.4967,-4.5,-4.5764,-4.6508,-4.7218,-4.8351,-4.9228,-5.0016,-5.0276,-5.0043,-5.0302,-5.0302,-5.0294,-5.0201,-5.0491,-5.0625,-5.074,-5.0507,-5.0402,-5.0336,-5.0062,-4.9461,-4.8903,-4.844,-4.7974,-4.7847,-4.7783,-4.7741,-4.7699,-4.7699,-4.7699,-4.7699,-4.7699,-4.7699,-4.7699,-4.7717,-4.7735,-4.7844,-4.8007,-4.7862,-4.7753,-4.7699,-4.7681,-4.709,-4.6434,-4.6086,-4.5702,-4.5125,-4.5123,-4.5891,-4.5552,-4.4617,-4.4935,-4.549,-4.5594,-4.5314,-4.558,-4.584,-4.5699,-4.5694,-4.5954,-4.5864,-4.5321]}]]